GFSSE_250_spd_000.txt.gz
Wind_Speed
88 88 85 89 94 95 97 100 102 106 106 109 109 107 104 102 104 110 111 106 94 83 80 82 88 82 83 83 83 82 85 86 87 83 82 75 79 73 79 87 87 92 94
87 89 89 91 93 97 101 103 107 109 109 110 113 101 104 115 125 112 94 78 68 68 69 70 73 73 74 71 74 77 74 76 77 76 68 70 68 75 82 87 91 89 87
89 90 92 97 101 103 106 108 113 112 111 111 95 101 112 109 103 83 68 61 57 55 56 57 54 54 53 53 55 55 55 63 62 62 62 61 63 62 67 72 73 61 62
95 95 100 104 106 107 111 112 112 110 99 92 100 102 97 87 65 52 39 33 30 28 26 24 25 28 30 31 33 35 36 39 45 50 50 51 48 39 40 52 59 56 51
98 98 103 102 107 108 111 113 105 93 94 97 94 80 60 47 44 24 17 15 16 18 19 21 20 21 21 22 22 22 24 26 27 28 36 34 24 27 30 31 46 53 56
104 105 106 107 109 111 108 99 94 94 95 80 67 51 38 30 26 17 15 18 22 24 23 24 24 23 24 25 21 19 17 17 18 17 24 22 27 27 14 30 45 48 54
106 106 107 107 112 106 99 93 93 86 71 56 37 31 22 12 14 17 21 25 27 28 29 30 29 28 27 24 28 23 17 14 11 11 18 27 17 31 34 30 43 50 54
105 107 109 104 95 90 86 85 84 64 44 29 18 16 19 21 22 25 28 29 29 30 30 30 30 30 31 31 29 27 25 17 10 9 20 40 55 47 35 33 43 50 52
100 94 94 89 86 85 81 71 61 39 28 22 19 21 24 25 26 27 30 31 33 31 30 30 29 29 27 26 28 27 26 24 12 7 22 38 41 33 39 40 45 52 51
100 102 97 81 77 75 67 53 35 24 20 22 21 22 25 27 31 32 32 33 33 32 31 29 28 28 29 28 27 26 24 22 21 7 16 31 54 43 36 29 45 50 53
98 92 80 70 66 58 46 33 24 24 25 27 27 27 30 31 32 36 35 35 33 32 30 29 29 28 27 26 27 24 24 22 18 14 8 24 39 45 50 43 45 50 52
74 71 67 64 52 44 36 29 27 30 31 33 33 33 35 37 40 39 40 37 34 35 35 34 32 30 29 26 26 26 23 21 20 15 13 9 27 48 49 43 43 51 53
69 59 47 46 39 31 31 32 34 37 38 39 40 41 42 43 43 41 40 39 40 40 36 36 36 34 30 29 28 28 28 25 21 20 20 11 13 26 48 47 46 46 52
52 46 38 34 33 33 37 38 39 41 44 48 51 49 48 47 43 45 44 44 44 43 43 43 41 39 39 38 37 36 34 34 32 29 24 24 18 17 32 46 51 52 52
37 34 35 34 38 39 43 43 44 46 49 52 48 49 50 50 49 47 48 47 47 47 47 46 45 44 43 41 41 41 42 42 40 36 35 35 30 26 25 31 49 60 63
31 31 35 39 45 48 50 48 49 51 53 50 47 48 49 50 49 47 47 47 49 50 50 50 50 50 49 49 49 49 47 44 44 44 41 42 43 38 36 35 36 50 65
32 31 39 38 46 53 56 52 52 51 51 47 48 51 51 48 49 50 51 52 51 50 51 53 54 56 56 56 56 54 52 52 49 46 45 43 50 51 47 45 43 44 48
30 26 18 46 50 58 57 52 47 48 50 51 52 49 51 54 54 56 55 55 54 55 57 59 59 57 57 57 57 55 55 55 55 55 55 55 51 55 58 56 53 53 51
34 32 30 49 56 58 49 46 50 52 53 52 53 54 59 57 57 58 60 60 59 58 59 60 60 60 62 64 64 63 66 65 65 64 63 61 61 58 54 59 62 62 61
34 34 34 40 49 49 48 50 48 49 53 57 59 56 60 61 62 62 63 65 65 64 64 66 66 67 70 70 72 73 75 75 73 71 70 66 63 64 65 63 63 63 67
35 36 42 45 50 47 45 50 57 59 59 57 60 61 65 66 67 66 67 68 69 71 73 74 75 77 79 81 81 82 81 82 81 83 80 75 74 74 70 72 71 71 73
40 43 45 46 51 51 53 58 59 61 63 63 66 67 67 67 69 73 74 75 77 79 82 85 87 87 87 89 91 92 93 89 91 93 91 87 88 85 85 86 83 82 79
45 49 49 50 51 57 59 60 64 65 67 68 70 71 68 73 77 80 82 84 88 90 94 96 96 99 98 97 102 104 102 101 101 103 103 102 100 99 95 99 95 92 93
50 53 53 54 57 64 64 62 65 68 71 73 73 73 78 83 87 89 92 94 96 98 102 105 108 110 112 110 109 112 116 119 117 110 112 112 113 112 107 109 109 103 102
52 55 55 57 63 66 67 68 70 70 71 75 79 81 85 90 94 97 99 103 104 107 110 114 115 118 121 122 123 124 125 120 118 113 103 104 108 115 117 113 114 112 116
55 56 60 65 65 68 69 73 75 78 83 86 89 91 94 98 101 105 110 113 116 118 121 121 125 127 127 131 132 126 122 116 108 106 102 93 90 98 109 115 110 111 117

GFSSE_250_spd_003.txt.gz
Wind_Speed
79 81 84 85 86 88 87 93 97 97 97 100 103 107 107 110 112 106 95 106 116 116 95 69 65 64 57 56 57 59 62 64 67 70 73 72 73 71 76 80 82 71 65
86 86 88 90 93 90 94 98 101 102 107 105 105 107 112 112 102 99 104 105 103 81 59 51 49 46 43 41 41 45 49 56 62 66 63 66 67 64 62 69 75 71 76
87 90 94 93 91 92 98 101 106 108 104 105 109 112 112 101 96 98 95 86 56 46 35 32 31 32 31 27 29 30 34 42 47 51 59 61 65 59 60 63 73 70 70
90 91 88 90 93 99 100 105 108 109 109 107 109 99 98 97 99 84 68 42 22 23 16 21 21 22 19 18 16 16 20 23 29 33 39 41 49 55 58 63 71 66 72
86 88 91 97 102 105 104 107 110 110 111 102 96 88 90 87 70 54 38 27 19 17 19 23 22 24 26 24 25 22 20 21 22 23 22 30 38 44 51 48 52 72 58
92 97 97 101 104 105 104 107 110 110 97 92 81 80 74 65 43 26 18 18 21 23 25 27 25 23 23 22 23 24 27 26 21 14 14 21 24 27 24 31 36 45 63
95 94 101 103 102 101 105 108 106 104 93 83 73 67 51 39 25 21 22 23 27 28 29 29 30 26 26 26 24 24 25 28 23 16 14 18 25 22 25 26 31 35 38
98 99 99 98 99 102 105 105 100 93 73 66 57 45 36 27 26 26 27 29 30 33 34 32 28 25 26 27 25 23 22 25 28 19 11 18 24 28 35 30 27 30 34
98 96 96 97 100 102 97 87 72 71 64 52 41 36 29 30 28 31 32 33 34 37 37 33 30 29 29 27 25 22 21 19 22 23 12 20 27 32 35 36 36 37 31
91 92 97 101 99 96 81 71 63 54 44 38 33 31 32 33 32 34 37 39 40 40 40 35 33 32 30 31 27 24 21 20 15 19 18 14 32 30 26 35 37 35 39
92 96 97 98 90 82 72 62 52 46 40 36 38 40 39 39 41 43 44 45 46 46 44 39 35 33 33 30 26 25 25 24 21 16 13 12 24 38 30 43 33 35 37
92 93 91 81 74 71 60 55 49 43 38 39 39 44 48 48 49 55 49 48 46 45 44 40 40 36 35 33 30 26 24 26 27 23 21 13 13 29 41 43 42 34 42
83 78 73 60 56 59 50 47 39 39 42 46 45 49 51 51 52 53 52 48 47 46 44 43 39 39 39 37 34 31 31 29 25 27 26 22 19 16 34 52 52 49 44
79 69 58 52 54 49 43 44 46 47 47 50 53 54 56 57 55 54 50 46 46 47 45 44 44 45 44 42 41 37 35 34 35 33 32 33 26 26 25 27 49 56 48
60 51 50 45 39 45 48 50 46 47 49 50 53 58 59 57 54 51 49 48 46 48 49 49 50 50 48 46 44 44 42 41 40 39 38 39 37 32 32 32 31 49 58
50 41 37 24 40 40 51 41 47 57 56 53 54 55 55 54 52 54 50 50 51 53 53 53 51 51 50 48 47 47 47 45 44 45 42 40 43 44 40 39 40 40 50
36 33 20 12 42 36 46 37 52 61 57 49 46 51 55 55 52 54 55 56 54 54 54 55 54 52 50 48 49 49 48 48 48 49 48 45 44 44 47 46 46 49 49
34 33 28 33 43 51 47 50 58 57 52 54 54 49 52 57 59 62 59 59 60 59 56 57 56 55 56 56 55 53 53 54 55 56 55 53 54 54 54 54 51 54 56
34 35 29 38 45 47 50 53 56 58 57 54 52 57 61 60 61 61 62 64 64 62 62 63 63 64 65 66 65 62 61 60 61 63 63 64 65 64 61 62 62 61 58
35 29 29 35 40 42 51 57 59 58 54 55 61 63 63 64 66 67 68 67 68 66 66 68 71 73 73 72 72 72 74 75 75 75 74 74 73 72 72 72 69 69 69
37 35 35 41 43 46 51 58 58 55 57 62 65 65 65 66 68 70 73 74 73 73 76 79 80 80 82 83 82 82 83 84 85 86 86 86 84 78 79 78 79 78 76
41 43 40 44 50 53 57 59 59 60 63 68 68 69 70 73 74 74 76 78 79 81 85 88 89 88 90 94 96 95 92 91 94 93 94 96 95 93 91 88 83 83 86
43 48 50 51 53 56 58 56 60 64 66 68 71 73 78 80 81 84 86 87 88 90 93 96 100 101 102 104 109 109 106 103 100 102 104 103 102 101 101 100 101 98 98
44 48 51 55 58 56 55 58 62 66 70 74 75 78 81 84 89 92 96 98 100 102 105 107 110 113 115 116 115 118 119 118 113 107 109 111 113 112 114 116 114 112 113
51 53 56 59 60 60 61 64 67 72 76 78 81 84 88 92 96 100 103 106 110 115 118 120 121 124 123 121 120 121 125 123 117 109 100 104 109 111 110 112 115 111 116
56 57 56 57 61 63 68 71 75 81 85 89 91 94 96 100 106 110 111 114 118 122 124 125 125 124 122 122 123 121 114 110 109 107 100 89 89 93 92 91 92 96 104

GFSSE_250_spd_006.txt.gz
Wind_Speed
77 79 78 80 84 86 87 89 93 93 95 91 99 103 102 104 101 102 103 106 98 98 104 95 96 70 57 51 49 48 49 50 51 53 55 56 57 57 59 64 60 63 59
80 82 82 85 88 89 88 89 92 93 97 101 104 105 103 103 103 108 106 103 102 92 84 72 50 41 37 39 38 38 41 41 43 41 41 48 54 57 63 65 59 55 58
81 83 85 87 86 85 86 91 96 98 99 100 106 101 102 106 107 108 105 97 82 81 58 37 26 28 27 26 23 24 24 27 31 34 38 48 53 55 58 64 61 62 63
83 82 84 86 86 88 90 97 99 100 104 105 102 103 105 108 108 99 81 78 64 53 35 27 26 27 26 23 22 21 21 20 20 26 33 41 45 44 49 55 63 69 71
86 84 85 89 95 99 100 100 99 101 101 98 102 105 109 100 88 74 69 56 42 33 28 25 30 31 29 26 25 26 23 23 23 22 28 35 40 45 46 48 63 73 76
89 92 97 100 100 96 96 98 101 99 94 98 103 109 101 81 67 60 47 38 32 31 32 33 34 36 37 35 30 25 26 24 26 24 27 27 33 40 43 46 50 59 71
91 93 92 93 92 95 98 98 97 97 98 103 104 101 84 66 58 47 41 38 35 38 37 39 40 39 39 38 35 33 25 25 27 27 29 27 25 29 36 41 42 47 75
80 85 89 91 96 95 92 92 95 98 101 101 94 74 63 56 49 42 39 38 36 38 37 43 43 45 45 41 38 33 29 24 25 28 27 28 20 21 25 32 37 43 53
86 90 92 93 90 91 94 95 97 98 87 76 60 56 53 45 40 38 37 40 41 40 43 48 48 49 48 40 39 35 32 25 25 26 23 26 18 22 21 30 32 35 43
88 94 93 94 92 93 95 94 93 89 76 52 54 47 47 41 43 44 44 46 50 52 52 55 54 52 47 41 40 37 32 28 24 23 23 22 25 18 22 28 29 27 27
92 91 94 91 90 92 90 88 82 63 57 57 52 49 46 44 46 45 46 50 50 53 53 52 49 46 42 41 39 37 35 31 29 27 25 21 21 21 20 28 30 28 27
87 89 88 87 87 88 83 69 52 53 48 50 47 48 49 48 50 51 55 53 56 56 53 46 42 43 42 42 40 40 39 36 33 31 28 22 18 21 22 31 39 36 38
84 88 87 84 85 77 59 57 47 45 45 48 48 54 55 53 54 55 55 56 54 52 47 47 45 43 43 43 45 47 46 43 39 37 34 32 30 26 25 27 32 42 42
85 79 83 79 72 64 49 43 44 46 50 49 47 45 49 54 56 55 52 48 49 48 49 48 46 48 50 50 50 48 46 45 45 44 43 39 38 34 32 32 30 35 48
77 70 65 66 57 49 44 47 47 46 47 45 48 53 52 58 53 47 48 49 50 47 48 49 52 51 50 51 51 51 53 52 49 48 46 46 45 45 40 36 39 37 37
66 65 60 55 54 47 48 43 43 44 43 48 52 56 57 58 56 53 48 48 54 54 53 54 55 55 56 57 58 56 55 54 54 53 49 49 49 49 47 42 40 45 45
72 63 59 53 45 47 48 52 46 53 53 47 57 61 63 61 59 53 55 58 58 57 56 55 57 59 59 59 58 56 55 57 59 59 58 57 55 56 53 51 47 43 49
55 45 42 45 46 51 53 59 60 62 56 56 59 62 63 60 55 57 61 65 65 64 62 62 62 62 62 63 63 62 62 63 65 67 65 64 62 60 60 58 56 55 50
46 46 44 42 47 52 56 59 60 60 59 61 60 63 61 60 59 61 65 66 64 65 69 69 69 66 68 69 69 68 68 69 72 74 72 70 69 69 68 68 68 65 63
49 42 42 46 49 50 52 54 55 56 60 63 67 67 63 63 65 69 71 71 70 70 74 76 75 74 76 76 77 76 79 81 83 84 81 79 79 79 79 78 79 77 76
45 43 42 47 47 47 52 55 57 61 63 67 68 63 65 68 71 72 74 75 77 79 80 81 80 83 84 84 82 83 84 86 89 94 93 92 90 90 89 88 88 88 87
46 44 45 47 49 52 54 57 60 65 68 68 65 67 71 73 76 79 82 85 87 87 87 89 90 91 93 95 95 94 93 94 97 98 101 101 99 99 101 100 98 95 95
42 42 42 47 51 53 57 61 65 68 67 68 71 74 79 82 84 87 91 92 91 91 93 96 98 101 104 106 107 108 109 106 105 108 111 109 108 110 111 108 106 107 106
41 44 48 52 55 58 61 63 64 66 68 70 74 79 83 86 90 94 97 98 100 102 105 108 111 114 116 117 118 118 121 119 116 111 113 116 117 118 117 113 112 112 113
46 50 54 55 57 59 61 61 63 65 69 74 80 85 90 94 97 100 104 106 110 113 118 121 125 128 130 129 128 130 130 124 116 114 105 107 109 114 119 120 118 113 114
50 52 54 57 58 59 62 64 68 72 77 81 86 91 96 100 105 108 112 115 118 124 129 132 134 135 136 134 129 124 118 111 105 103 97 91 91 95 99 105 107 107 108

GFSSE_250_spd_009.txt.gz
Wind_Speed
81 81 82 82 83 85 85 84 87 88 90 91 94 95 100 102 104 104 101 98 100 101 101 103 93 89 86 75 56 52 47 43 39 42 41 44 46 47 48 50 57 65 65
83 81 81 83 84 85 87 92 93 94 93 96 94 102 103 103 104 102 98 101 102 102 105 89 84 74 61 51 36 35 34 36 38 39 38 36 38 42 47 47 53 57 62
83 84 86 89 90 90 91 93 94 98 96 95 101 103 104 106 103 100 100 102 101 99 80 77 65 55 45 40 36 34 35 33 33 34 34 34 36 37 42 48 49 52 59
83 87 87 88 90 94 95 97 98 94 100 103 100 102 103 99 99 103 103 101 96 79 67 61 53 42 42 37 40 37 40 38 31 29 29 30 33 38 38 48 50 53 55
85 87 90 91 93 96 97 95 98 101 96 97 102 99 98 99 99 100 101 90 73 67 59 54 42 42 41 43 44 43 45 42 37 28 25 29 30 33 36 42 54 61 62
84 85 87 92 89 91 94 92 94 94 97 98 98 97 96 98 100 97 88 67 65 57 50 45 44 46 44 43 45 45 48 48 41 34 31 32 30 32 33 34 41 49 55
87 91 88 88 92 94 86 90 92 95 96 97 95 97 98 97 95 81 64 60 51 47 46 47 44 44 45 47 49 51 51 46 40 36 32 28 30 31 29 25 30 39 43
76 82 85 89 87 83 87 87 94 91 95 95 95 94 95 88 74 66 56 51 46 44 44 46 49 52 53 54 51 51 50 45 42 38 33 31 27 26 30 28 24 28 36
83 91 89 85 87 90 93 90 92 93 93 95 91 88 83 65 57 53 49 47 45 48 47 50 53 55 57 56 54 51 44 42 39 36 34 33 28 25 25 23 23 29 31
82 86 83 87 89 89 92 91 90 95 94 91 86 78 59 56 53 48 48 47 48 48 49 54 57 57 57 55 46 40 39 40 40 37 36 35 34 27 23 19 24 29 32
86 90 89 88 87 87 89 93 89 91 89 88 76 74 60 51 51 49 51 50 50 52 54 56 55 54 52 46 44 40 39 42 42 41 40 36 35 32 27 20 18 27 28
85 86 89 88 86 88 90 88 91 83 80 74 70 61 53 53 52 50 46 45 51 54 53 47 44 45 46 47 45 42 43 43 45 44 42 39 38 37 32 28 22 26 33
85 86 82 84 88 88 84 83 75 75 72 62 63 58 61 58 50 47 48 50 54 54 52 50 49 49 47 46 48 50 50 49 46 47 46 44 44 45 42 37 33 28 31
75 78 83 80 77 83 75 69 71 69 63 62 59 61 60 58 54 54 51 52 55 57 56 52 45 50 54 52 52 51 49 48 50 52 52 52 50 49 46 44 42 37 34
74 78 83 87 84 82 82 75 66 57 58 60 60 58 55 56 57 56 57 57 63 64 56 53 53 57 58 58 57 57 56 56 57 56 55 54 53 50 46 43 43 45 44
78 76 79 78 78 70 70 59 56 54 56 59 57 59 62 63 66 66 63 62 60 60 56 56 57 58 58 59 61 61 61 62 62 60 58 56 54 52 51 50 49 49 47
80 79 76 73 68 60 57 56 55 57 58 61 63 64 67 65 64 63 65 66 64 61 59 60 61 61 60 62 62 64 65 67 66 65 64 63 60 57 56 56 56 55 53
80 81 78 68 48 47 45 50 57 59 62 64 64 65 66 65 64 67 70 70 67 62 62 65 66 64 64 66 68 69 70 71 71 69 68 68 67 66 65 63 63 62 60
56 54 42 35 34 40 53 58 59 65 67 67 66 63 64 65 68 70 71 72 67 67 68 69 70 70 70 71 74 76 78 78 78 77 77 77 75 74 75 75 74 72 69
47 44 34 40 46 51 64 67 70 69 71 70 67 66 67 69 70 72 72 70 72 73 74 76 77 80 81 81 81 80 82 84 86 85 85 85 84 83 83 83 84 83 80
47 46 41 45 50 55 60 68 70 71 72 71 71 72 73 75 75 74 74 74 75 77 79 81 83 86 89 90 91 89 88 89 90 91 92 93 93 93 94 92 92 91 92
49 50 55 56 57 59 62 66 69 68 69 72 74 75 75 75 75 76 78 79 82 85 89 90 91 93 96 98 98 98 96 99 102 103 104 105 105 106 106 105 102 99 98
51 52 55 55 52 53 56 60 63 68 70 72 73 75 78 79 79 82 86 89 91 93 97 100 102 105 107 108 111 111 110 109 110 115 120 120 118 116 116 114 114 113 110
46 45 49 50 50 52 57 60 65 70 72 73 75 77 79 81 85 89 93 96 101 104 108 111 114 119 121 123 124 127 129 129 128 123 125 127 126 121 119 120 122 122 124
44 49 48 49 53 58 62 66 68 69 72 75 78 80 83 87 91 96 103 106 109 113 116 121 124 126 128 130 130 128 126 125 124 120 113 116 119 124 126 121 119 118 119
43 50 51 53 58 61 63 66 68 71 73 75 78 83 89 96 100 104 107 113 117 120 124 127 129 130 130 128 127 124 121 119 118 116 108 99 101 106 109 114 113 111 108

GFSSE_250_spd_012.txt.gz
Wind_Speed
79 79 79 78 80 81 83 83 87 89 89 88 93 91 95 97 98 96 97 94 97 93 93 93 93 86 89 78 75 83 74 60 51 46 43 48 46 40 35 36 38 41 43
83 81 82 83 85 86 87 88 91 93 93 95 96 98 99 100 96 92 96 97 95 95 93 96 91 92 83 74 73 64 53 47 49 49 46 43 44 45 42 33 33 36 44
88 85 85 87 89 89 90 93 96 94 93 96 100 99 100 101 96 93 96 96 97 95 100 96 89 80 71 65 56 50 46 44 46 47 48 46 43 39 40 39 35 31 39
88 85 87 85 91 91 90 95 96 95 96 95 95 98 99 98 95 96 100 96 96 95 98 90 78 70 59 51 49 46 48 48 47 46 48 43 41 41 37 38 36 36 35
87 85 82 86 83 90 95 95 94 93 96 93 97 98 96 94 97 103 99 96 94 91 90 76 69 60 56 47 48 49 50 48 49 48 48 45 42 40 43 42 40 33 29
84 80 82 86 85 89 86 95 91 92 89 101 98 96 91 95 100 100 101 95 91 88 78 68 60 55 53 47 45 47 50 52 52 51 49 45 43 40 40 40 38 33 26
71 78 82 85 89 88 94 87 83 88 94 95 91 94 95 98 99 97 98 93 88 82 68 59 54 53 47 48 47 49 53 53 52 49 42 42 38 36 34 39 39 31 22
77 79 84 88 91 86 85 85 90 92 95 89 91 93 94 94 94 98 91 87 80 71 59 53 51 51 47 51 54 54 53 51 44 40 37 35 33 32 31 33 35 34 28
76 76 72 75 79 80 83 84 88 95 92 95 92 90 97 99 94 91 86 77 72 65 61 57 49 47 49 55 53 54 50 44 41 38 35 34 31 31 28 28 32 33 31
74 77 77 76 80 84 89 92 95 95 90 86 90 95 96 91 84 88 72 70 61 60 54 53 45 48 51 51 45 43 42 41 41 39 36 35 34 33 30 29 29 32 31
79 81 82 86 91 91 90 90 82 83 84 95 93 88 82 81 74 73 65 65 64 60 51 49 50 49 49 50 54 47 45 43 42 42 43 42 39 36 34 31 31 33 31
81 78 82 82 82 88 93 89 83 83 89 85 85 88 71 74 74 66 68 66 65 61 54 51 47 53 52 55 52 46 45 47 47 45 45 45 40 40 38 37 35 34 35
82 84 84 85 80 65 74 82 90 83 86 83 79 74 74 69 69 69 64 61 62 61 61 62 58 53 55 55 51 45 47 47 50 49 47 46 46 48 47 43 41 38 34
75 82 87 81 81 84 85 85 83 83 83 73 67 67 69 66 66 67 64 66 65 64 68 63 58 56 57 54 53 52 51 50 50 51 52 49 47 49 49 49 46 43 38
67 71 73 76 79 81 85 78 77 68 65 62 63 62 65 69 66 67 67 67 68 67 65 64 61 64 63 58 54 56 58 57 55 53 53 53 53 51 50 50 48 46 42
81 77 78 79 78 79 77 75 65 63 65 70 68 62 59 62 63 67 69 69 67 65 65 64 67 69 68 64 60 61 62 63 61 58 57 58 59 57 55 53 51 49 48
78 86 90 79 78 73 67 54 53 54 61 58 60 51 57 63 69 69 69 71 71 71 68 69 70 70 69 65 65 65 66 66 64 63 61 62 64 65 64 62 59 54 54
79 81 78 71 61 48 41 45 52 59 61 58 58 65 69 72 73 73 73 73 71 70 71 73 75 74 72 70 72 72 72 73 73 73 73 74 73 71 70 69 68 67 61
68 65 59 51 39 29 50 60 61 56 62 67 72 76 77 77 77 76 74 74 75 77 78 79 77 76 75 73 72 74 77 78 78 79 80 80 80 81 81 80 77 74 74
52 49 44 41 42 44 55 64 65 67 70 73 76 76 80 78 77 76 76 78 80 81 80 79 79 79 79 79 82 84 87 88 87 88 89 89 89 89 89 87 87 86 83
45 45 45 44 51 55 58 62 67 70 75 78 79 78 76 76 76 78 79 80 80 80 82 83 85 87 90 91 91 92 93 97 99 99 99 99 100 101 100 97 95 93 92
45 47 45 49 54 59 64 67 69 72 72 72 74 75 75 77 80 81 81 82 85 87 88 89 89 91 94 95 97 99 99 102 106 109 111 111 112 111 109 109 107 105 104
43 48 52 55 58 61 62 62 65 66 68 70 72 74 76 78 81 84 86 88 90 90 92 94 96 98 102 107 110 113 114 114 116 116 119 120 119 117 118 117 116 117 116
46 48 49 52 55 57 57 58 60 63 67 70 73 76 79 82 86 88 89 91 93 95 98 101 106 110 113 117 119 122 126 129 131 128 126 125 126 125 124 127 126 120 117
36 39 44 48 50 53 57 60 63 66 70 73 75 77 79 82 83 85 89 94 99 104 106 111 116 119 123 127 130 132 135 134 131 126 117 118 118 119 120 122 122 119 114
40 43 47 50 53 56 59 61 64 66 69 72 74 76 77 81 86 91 95 99 104 109 111 117 124 128 130 134 133 132 128 124 124 123 116 107 105 105 103 107 108 110 109

GFSSE_250_spd_015.txt.gz
Wind_Speed
84 81 78 82 85 86 86 84 84 84 85 87 89 90 89 91 93 96 96 94 93 94 91 85 92 90 86 90 86 78 74 69 77 68 52 51 49 48 48 47 46 38 34
87 85 85 85 88 85 88 86 88 87 89 90 93 90 95 93 95 95 95 94 95 93 87 92 95 94 89 89 85 76 67 73 61 50 47 49 51 48 47 46 43 34 32
88 90 88 87 89 84 89 89 89 89 90 91 94 94 94 93 91 96 90 93 92 88 94 98 96 92 88 85 78 67 65 65 55 51 50 49 47 47 43 43 38 41 34
87 87 83 83 85 87 88 88 87 87 88 88 90 90 86 92 90 89 92 91 92 95 96 94 91 89 85 80 69 62 58 53 49 51 50 49 48 48 45 41 39 33 33
87 85 83 79 81 83 77 76 86 87 86 87 89 95 97 90 89 92 89 90 93 97 95 96 84 91 80 71 63 60 53 48 46 50 51 50 49 48 36 35 34 32 30
85 80 78 79 79 88 84 87 85 87 91 93 95 95 86 88 87 96 88 94 95 97 95 85 83 83 75 66 59 53 50 45 49 50 50 48 43 39 33 27 28 26 26
59 73 78 78 81 77 81 84 80 85 88 92 89 84 88 93 90 91 100 96 97 89 78 82 74 69 61 62 57 48 44 46 44 46 45 39 38 36 29 26 25 24 21
70 64 66 77 74 81 86 80 80 86 93 81 83 89 89 89 92 96 93 93 91 82 86 76 71 63 61 58 50 45 46 45 39 43 36 33 35 36 30 27 27 25 23
81 79 78 74 71 76 80 84 79 82 81 87 91 92 89 94 93 92 93 92 84 87 73 69 67 64 59 54 49 44 44 43 43 41 37 35 31 32 33 32 32 28 27
75 75 74 75 78 79 81 85 84 85 83 82 95 92 95 87 85 87 83 82 82 67 74 67 62 61 58 52 48 47 46 44 46 42 39 34 34 34 35 32 29 29 28
79 74 76 80 86 80 77 77 85 87 86 83 89 90 83 86 79 80 79 80 73 72 67 61 61 57 58 55 50 49 47 49 48 42 38 37 38 37 34 34 32 31 32
50 58 65 66 68 69 78 85 86 82 82 86 86 82 85 80 79 77 72 72 70 67 65 60 60 58 57 53 50 48 46 49 50 48 43 41 38 39 37 36 37 37 36
56 72 68 77 78 87 86 82 80 82 82 85 87 88 77 80 80 71 73 71 67 63 57 59 60 58 57 50 49 49 50 51 51 51 51 49 45 44 43 41 40 39 38
66 71 69 73 72 78 80 82 84 83 84 86 82 83 76 78 75 71 68 63 59 58 62 66 65 61 59 58 56 55 55 55 54 50 52 54 51 50 50 47 44 43 42
64 60 68 67 69 76 77 79 86 91 86 80 78 77 72 75 71 60 60 60 57 65 69 69 71 69 66 63 61 60 60 60 59 55 52 53 54 54 52 51 49 47 45
70 71 76 77 82 74 75 80 80 76 75 70 70 68 62 58 60 63 66 68 69 72 73 75 75 73 69 68 67 66 67 67 65 62 58 60 59 58 57 57 53 52 50
69 73 73 75 81 78 80 74 66 70 67 63 66 64 64 70 67 70 75 76 78 78 79 78 74 73 73 71 70 70 70 69 68 67 66 66 65 64 63 62 63 63 62
67 67 72 71 69 68 59 42 50 52 58 60 63 67 71 73 73 74 78 81 84 84 83 76 75 73 73 73 74 74 74 74 73 72 72 72 71 71 71 71 71 70 69
59 60 60 57 51 48 48 50 62 55 59 67 65 71 74 76 79 82 86 86 83 81 81 78 77 78 78 77 77 79 81 80 80 79 79 81 81 80 80 79 80 79 78
47 46 46 44 45 49 53 57 59 60 65 69 72 77 83 83 87 87 83 79 80 79 79 81 81 81 82 83 83 82 83 83 84 84 86 86 87 88 88 89 89 87 87
41 41 41 43 45 48 50 55 60 65 69 72 76 79 79 79 80 81 82 81 80 81 82 84 85 86 87 87 87 87 89 90 92 93 94 95 96 97 99 100 99 98 97
40 41 43 44 47 50 52 56 60 64 69 73 75 78 79 79 78 79 82 83 83 84 85 87 87 87 88 89 92 94 95 98 101 106 110 112 112 114 114 115 113 112 110
35 39 41 44 48 53 58 61 63 66 67 68 69 71 74 76 78 79 80 82 85 86 86 87 90 94 99 102 105 108 109 111 113 114 117 120 119 120 123 124 124 122 122
36 38 40 42 46 47 50 54 58 62 64 67 69 71 73 74 76 78 80 82 84 85 88 93 99 104 108 110 111 111 112 113 115 115 119 122 123 125 126 123 122 120 116
33 36 39 42 45 48 51 54 58 61 63 65 67 70 72 73 75 77 79 81 86 90 96 101 106 108 109 112 112 114 115 118 122 124 123 121 120 122 121 119 115 109 107
40 43 46 49 51 54 56 59 61 63 64 66 68 70 72 73 73 75 81 87 93 98 102 108 112 112 113 113 115 114 113 115 119 120 116 113 114 117 114 112 110 107 103

GFSSE_250_spd_018.txt.gz
Wind_Speed
85 84 84 84 83 83 84 83 81 81 83 85 84 83 84 87 89 92 93 92 88 89 92 95 86 87 89 93 87 81 77 72 71 63 65 65 59 54 50 50 49 47 41
83 86 88 82 83 83 85 85 84 83 86 86 84 83 87 90 92 88 89 87 88 91 85 83 86 89 86 88 82 80 80 71 64 63 64 56 53 50 51 50 50 49 41
80 86 87 85 85 83 86 87 82 82 78 82 83 82 85 85 83 85 85 87 80 82 81 84 87 81 89 85 80 82 76 66 61 58 55 49 46 47 47 45 44 42 41
80 87 87 87 87 88 84 85 84 82 80 76 80 81 78 76 83 89 86 88 85 84 85 87 85 87 87 78 80 72 69 70 58 55 51 47 45 46 44 41 37 32 33
74 83 86 86 87 88 88 88 88 80 71 76 80 86 85 85 89 84 85 92 81 85 90 85 93 86 87 75 79 65 71 57 54 53 46 45 45 41 38 35 30 28 26
82 82 80 79 68 72 70 78 81 79 77 79 85 86 83 84 79 87 82 82 86 89 88 92 81 82 80 72 69 70 58 54 51 47 45 46 42 39 33 29 28 23 23
60 64 57 69 74 74 76 72 71 78 80 80 80 83 77 78 78 82 86 89 91 91 87 78 82 72 78 70 63 58 57 49 45 42 43 42 41 38 32 30 25 25 23
54 54 65 70 74 73 78 75 67 66 75 74 71 80 88 88 93 90 90 88 88 84 75 87 77 76 70 66 61 56 50 45 41 41 43 43 42 39 35 29 25 26 26
85 86 82 79 81 71 72 70 75 73 76 78 84 85 92 84 88 90 78 78 83 82 82 79 73 67 68 61 58 51 48 48 45 42 40 41 43 40 37 31 29 29 29
79 69 67 70 72 72 73 70 73 79 79 82 87 79 77 87 80 79 79 84 83 88 77 74 71 66 62 59 50 49 48 48 43 40 39 40 43 44 41 35 33 31 29
67 65 72 76 77 72 59 75 76 79 76 71 74 83 88 89 88 84 88 88 88 87 80 73 64 67 59 52 49 48 50 46 44 41 39 43 45 43 44 41 37 35 33
75 74 72 68 66 60 62 63 74 73 68 72 76 80 83 80 84 91 92 93 86 81 79 68 63 61 53 52 55 53 51 50 48 45 44 45 48 47 46 46 43 40 38
58 60 66 62 63 55 60 62 61 68 73 71 78 78 83 89 91 92 90 84 76 73 72 62 58 57 58 58 58 59 61 56 51 49 48 47 47 49 49 49 48 47 43
57 61 65 61 58 55 57 60 67 70 76 84 84 89 87 92 91 90 85 75 69 68 57 60 64 65 64 65 64 63 61 57 54 54 51 52 51 50 50 52 55 52 49
64 58 61 61 63 64 62 63 76 82 83 86 84 85 87 89 87 83 71 71 68 63 63 66 69 71 73 77 75 70 65 61 61 61 58 58 57 55 54 54 55 57 55
65 69 69 68 67 71 79 80 78 81 81 75 81 78 78 77 78 75 71 70 67 67 67 73 77 80 81 82 74 69 68 66 66 67 66 63 62 58 56 55 57 60 61
60 62 66 69 70 71 72 75 74 67 63 62 61 63 69 73 71 70 73 73 72 73 75 82 85 87 86 77 74 75 73 71 71 70 69 68 66 67 65 62 62 62 62
57 59 59 58 59 63 64 59 31 53 52 52 53 57 59 68 73 75 75 79 81 83 86 88 88 84 79 78 77 76 76 75 73 73 71 72 71 71 69 69 71 71 70
52 55 54 51 51 51 48 44 51 57 56 60 63 67 68 71 75 79 81 84 88 89 88 83 80 80 78 78 80 79 79 79 76 75 73 74 76 77 78 75 78 78 76
48 48 47 48 46 44 47 50 53 55 60 64 66 70 78 80 84 88 89 89 86 84 83 81 82 82 83 81 82 80 77 75 75 79 79 82 84 84 85 86 86 87 86
45 46 46 44 41 41 44 46 52 57 60 64 67 69 72 76 78 79 79 80 81 83 84 83 83 83 83 79 79 79 80 82 83 86 89 92 94 95 96 95 96 95 96
36 36 35 36 39 43 46 50 54 57 60 63 65 66 68 71 74 78 81 82 82 83 82 83 84 84 83 80 84 87 90 93 97 99 101 106 107 108 110 113 112 112 112
32 34 36 38 39 41 44 48 51 55 59 62 67 70 72 74 76 79 80 82 82 83 83 82 80 82 88 90 91 97 102 104 105 109 114 114 115 118 118 119 121 122 122
28 29 32 36 39 43 47 52 56 59 62 66 69 72 73 75 77 79 80 80 80 81 79 80 87 90 92 99 103 108 110 114 116 115 118 118 118 120 119 119 118 120 118
29 34 37 40 44 47 51 55 59 62 65 68 70 71 72 72 72 71 72 73 76 79 85 89 94 96 101 106 111 116 119 121 122 119 111 114 117 118 115 114 113 114 111
32 35 39 43 47 50 54 56 60 62 64 65 65 65 65 65 66 67 71 77 82 87 90 94 98 103 107 113 118 119 119 117 114 114 115 113 114 116 110 106 103 101 101

GFSSE_250_spd_021.txt.gz
Wind_Speed
81 82 82 82 85 87 87 85 85 82 82 82 83 85 86 86 86 84 83 85 89 86 88 87 84 92 90 86 83 82 85 83 80 74 77 69 67 63 62 55 55 49 46
81 79 81 83 86 87 87 86 84 83 83 83 83 83 88 86 83 85 86 80 84 82 80 84 92 93 91 81 82 90 81 79 79 80 79 67 61 56 58 53 50 48 48
76 80 81 79 82 82 82 81 80 83 82 83 86 86 89 88 89 83 82 83 80 88 84 86 82 79 82 81 88 83 74 84 78 73 68 59 57 56 53 47 46 45 43
73 77 81 82 81 80 79 80 81 78 80 79 84 83 84 85 87 80 78 81 81 82 82 80 83 84 85 83 84 75 81 79 81 72 61 55 56 50 45 44 42 41 37
68 75 80 82 84 84 86 83 81 80 75 75 65 71 77 79 80 82 82 81 80 78 79 89 91 88 89 82 79 80 84 80 78 61 59 53 53 43 42 42 40 36 30
63 74 72 80 79 78 77 72 78 62 61 67 74 76 76 78 75 71 72 75 80 84 88 90 83 83 73 84 82 84 83 76 70 61 59 54 45 40 39 39 37 33 29
59 58 68 68 70 70 71 58 51 58 61 64 74 75 66 67 66 67 74 81 80 82 86 82 79 75 87 84 84 83 71 64 63 59 53 46 44 42 41 40 37 36 30
60 66 73 63 61 64 52 51 55 54 69 73 66 65 72 68 73 81 84 83 84 76 78 77 83 80 82 84 80 71 64 57 57 51 48 45 45 42 39 37 37 35 33
31 42 53 43 52 48 52 58 63 75 70 67 67 70 80 89 79 82 84 85 75 82 81 76 78 84 86 74 67 62 62 57 53 45 43 44 42 39 40 38 37 37 35
31 49 51 52 59 61 66 65 78 74 72 77 79 76 83 80 85 77 76 75 76 75 81 82 86 88 82 69 63 59 55 57 48 48 46 42 40 42 38 37 38 38 39
61 69 71 75 81 78 74 82 84 81 82 78 74 79 77 78 73 74 75 77 84 85 87 89 86 80 65 59 57 54 51 47 52 51 52 52 50 46 44 40 40 40 40
73 81 83 81 84 83 83 87 86 71 80 80 73 77 80 77 77 78 82 86 93 91 91 84 80 68 60 49 52 54 55 56 57 53 59 54 50 49 46 45 42 42 40
67 75 83 86 87 82 83 83 81 69 76 79 79 79 80 82 85 85 92 90 88 84 82 75 67 62 59 59 58 59 61 63 66 59 60 51 47 48 48 49 48 46 45
66 71 77 79 82 87 86 85 89 87 83 81 76 81 83 87 91 94 92 87 81 78 69 65 64 62 59 59 60 66 70 74 72 61 53 52 49 51 52 52 52 53 51
58 65 63 68 77 82 78 69 73 69 75 79 83 85 90 90 90 89 89 85 76 73 66 67 67 68 68 70 71 75 79 80 75 63 54 61 60 57 57 57 56 56 56
68 68 65 67 67 68 72 69 75 83 87 90 91 89 89 87 81 73 74 74 76 75 75 73 74 73 75 76 81 83 83 80 73 71 70 62 65 65 64 62 61 59 55
57 58 66 72 75 79 80 80 81 84 85 83 80 76 78 74 70 65 61 65 73 76 78 80 80 84 84 87 86 79 76 75 74 73 73 73 68 66 68 68 66 65 63
59 60 66 70 68 71 71 71 70 69 72 70 68 65 64 65 67 66 68 73 77 81 82 86 90 93 92 81 77 78 78 77 75 75 72 73 72 73 67 67 67 69 67
53 59 65 67 67 64 61 63 64 68 67 64 65 66 70 70 74 75 77 81 87 88 87 87 84 83 81 84 82 80 80 79 79 77 78 73 68 70 71 71 67 74 73
52 53 55 57 57 56 57 62 64 64 64 63 64 67 67 70 73 75 78 80 81 79 79 80 82 84 84 82 82 83 84 83 79 75 76 78 79 80 79 79 84 83 82
42 45 47 47 53 53 56 58 59 58 57 59 61 63 65 66 69 71 73 76 79 82 82 84 85 87 86 86 82 82 83 82 82 83 83 87 90 90 89 92 92 94 95
42 44 46 47 47 45 44 46 47 48 50 52 55 60 64 69 72 76 80 82 84 86 87 87 85 84 83 84 81 79 82 87 91 93 94 96 100 101 105 108 110 109 109
38 37 33 33 33 34 37 41 45 49 54 58 63 67 71 75 78 81 83 86 87 87 86 84 82 81 79 82 87 89 90 93 96 102 106 110 114 116 118 119 121 122 119
24 24 27 30 34 38 41 45 49 53 55 59 60 63 65 67 72 74 75 77 77 76 74 75 78 80 85 87 91 98 101 104 107 106 112 117 121 124 126 125 121 119 117
21 25 29 33 36 40 45 48 49 51 52 53 55 59 62 65 67 68 69 68 71 73 74 76 82 87 92 96 103 106 108 111 115 118 115 118 118 118 120 119 119 117 116
23 27 32 36 39 41 44 46 49 52 55 57 60 63 64 66 68 69 68 69 71 74 79 82 88 95 98 103 108 113 116 116 114 114 111 108 109 110 112 114 115 110 105

GFSSE_250_spd_024.txt.gz
Wind_Speed
73 73 73 74 74 77 80 81 81 78 79 79 80 81 82 84 83 84 85 85 88 83 86 87 90 88 81 83 83 81 84 84 85 77 78 78 76 78 78 63 59 54 56
79 76 74 77 75 73 74 78 76 76 77 81 78 77 74 73 77 79 78 75 80 81 81 82 78 78 78 77 84 80 92 86 79 80 72 78 84 82 75 56 56 54 55
73 73 65 69 71 76 76 76 74 74 73 75 76 75 76 77 73 77 73 73 69 72 78 81 80 78 74 70 79 90 87 82 74 73 78 84 84 74 62 57 54 56 51
73 72 73 75 76 77 75 76 75 70 68 72 74 80 77 75 72 67 64 68 72 75 72 74 81 74 75 82 84 78 73 76 70 84 79 83 71 59 57 58 56 53 47
75 73 75 73 73 73 71 68 71 72 70 70 77 71 67 57 58 65 71 75 69 74 75 77 70 74 81 86 79 73 77 74 84 81 86 65 60 57 54 56 50 45 43
72 71 67 70 77 70 70 69 72 67 68 65 56 57 58 60 61 68 65 73 65 70 73 74 75 87 82 78 73 81 82 81 77 82 84 62 56 55 53 52 47 45 42
69 70 70 70 72 72 70 64 62 68 64 59 59 54 59 57 69 70 63 65 68 67 76 86 83 77 73 69 72 77 82 87 85 74 64 58 54 51 48 44 46 44 42
59 58 49 62 67 67 64 62 66 68 68 63 56 52 56 64 64 66 69 74 79 79 83 80 80 75 78 75 80 87 91 86 76 62 62 53 51 45 41 44 44 40 39
51 44 39 61 56 60 60 49 55 48 48 54 56 59 64 72 72 77 84 82 81 81 85 77 80 76 77 80 87 91 83 71 60 54 55 48 44 45 45 44 42 41 40
40 31 38 58 65 65 62 55 49 50 48 53 62 63 68 71 77 82 87 75 74 78 87 88 83 83 84 90 89 84 71 61 57 53 53 49 46 46 46 49 48 44 41
33 46 59 62 64 58 58 62 62 59 63 68 68 72 74 81 88 90 84 84 84 85 85 90 90 87 92 94 91 74 61 56 51 50 57 51 52 52 55 50 51 50 44
46 58 50 43 50 57 56 65 62 68 76 79 82 86 86 87 85 80 82 88 91 91 90 90 90 94 96 93 75 67 60 57 56 54 57 56 56 57 56 47 49 50 48
49 55 57 50 51 53 62 67 70 70 75 79 83 79 80 89 91 93 90 91 91 95 96 100 102 101 93 78 64 64 62 63 60 54 59 65 65 60 56 47 44 45 50
62 63 62 63 64 70 76 81 81 84 89 90 88 89 90 88 90 93 87 91 96 102 102 99 92 88 79 70 68 69 66 66 66 67 62 68 67 59 52 50 47 47 49
70 70 70 73 77 81 81 83 87 88 91 92 93 94 95 91 91 94 94 97 103 104 99 91 81 77 74 72 72 74 75 82 83 82 67 65 59 59 59 54 54 54 54
66 72 75 72 70 80 85 85 85 84 89 88 89 91 93 94 97 101 100 99 95 95 88 82 78 77 76 77 78 79 84 88 90 84 76 68 66 63 63 61 59 60 61
62 69 69 71 72 71 79 91 87 86 82 84 91 92 91 95 98 97 93 93 89 84 80 79 79 79 83 87 86 79 77 79 79 78 75 73 66 65 63 61 62 62 61
51 60 69 79 75 80 78 80 84 83 86 88 91 92 92 94 91 87 86 84 81 78 80 83 84 82 80 80 83 81 78 83 82 82 80 79 77 69 69 68 65 65 66
44 49 62 67 70 75 78 81 82 84 84 84 83 83 80 80 80 79 77 75 75 77 77 78 80 81 82 83 83 83 84 84 83 77 73 71 72 69 69 69 66 64 67
46 54 52 59 59 65 67 70 75 77 75 74 73 73 74 72 70 68 70 72 76 78 80 82 83 84 86 83 80 78 78 81 80 78 75 75 77 80 81 80 78 80 80
52 48 51 53 59 63 66 65 62 62 64 65 64 62 61 62 66 69 72 74 77 80 80 80 81 80 82 80 78 75 72 72 75 77 80 82 85 88 91 92 91 91 92
45 48 45 47 50 53 53 54 53 53 51 51 51 55 59 63 67 68 71 72 73 74 74 73 71 68 70 70 69 70 71 73 79 85 91 95 99 102 105 107 107 108 107
42 44 43 42 42 43 43 42 41 41 44 49 53 56 59 62 64 66 66 68 70 72 72 72 72 71 70 75 78 80 82 84 87 93 98 105 110 114 118 120 119 117 114
33 31 34 35 34 33 34 37 40 42 44 46 48 52 54 58 63 66 67 69 70 73 74 74 74 76 78 79 83 86 92 95 99 101 107 112 116 117 120 121 123 120 116
28 28 27 26 29 32 33 35 38 40 42 46 51 54 59 60 63 66 67 69 72 74 74 77 78 79 83 86 90 96 103 107 112 115 112 112 109 109 108 107 107 110 111
24 23 24 27 29 31 36 41 44 47 50 53 58 63 67 70 69 68 70 73 75 76 77 78 82 86 90 94 100 105 110 114 113 112 109 102 99 102 105 106 107 109 107

GFSSE_250_spd_027.txt.gz
Wind_Speed
77 71 68 70 70 72 69 71 69 70 73 73 70 71 73 74 77 76 79 77 77 76 75 72 74 77 75 72 70 71 78 76 73 72 80 87 84 75 74 71 78 77 80
73 73 69 77 80 76 70 73 72 75 76 69 69 75 74 77 74 74 73 71 74 74 71 72 71 69 69 71 73 76 71 69 72 72 86 84 79 73 70 79 78 87 73
75 74 68 72 79 78 70 60 67 68 71 75 71 69 71 68 68 70 72 70 67 64 67 64 64 67 70 69 68 67 66 68 75 87 81 74 72 75 79 83 86 81 69
73 73 72 78 72 65 73 75 75 73 77 75 73 70 66 67 71 73 71 69 66 59 55 62 67 69 67 64 62 66 68 80 78 77 78 76 76 76 81 92 89 70 59
75 69 68 71 77 84 78 77 79 81 74 76 74 74 70 68 72 71 65 62 59 61 63 65 67 59 61 65 67 75 78 77 85 77 76 81 83 84 93 78 68 60 57
71 67 65 67 73 77 80 82 80 75 70 70 62 61 65 66 67 61 57 61 60 62 67 69 67 64 70 74 79 82 82 77 80 85 84 80 87 89 82 66 62 55 53
54 52 52 56 65 73 75 76 73 69 70 66 67 65 66 64 66 58 65 65 61 65 68 71 69 71 79 78 72 72 79 82 86 88 88 88 90 89 76 64 59 54 48
48 49 50 57 62 67 70 70 70 61 55 52 49 47 51 55 58 62 64 60 67 72 72 71 76 73 70 68 78 84 84 82 89 92 93 93 83 77 63 59 55 50 47
54 52 56 61 52 59 61 63 57 54 52 53 52 50 51 52 52 55 61 67 71 67 76 75 72 76 79 79 91 97 93 90 93 93 92 84 67 64 58 51 51 48 50
48 24 45 36 47 52 57 61 50 49 49 47 55 58 60 57 53 59 66 69 74 76 78 77 79 89 91 90 92 92 91 95 95 94 87 64 60 54 52 55 53 53 53
52 49 51 58 60 54 51 52 41 49 51 53 61 58 53 64 64 72 74 73 77 86 85 86 89 88 88 92 95 98 97 96 91 80 70 58 53 53 52 52 50 57 57
43 48 45 55 53 50 54 55 57 53 58 59 53 54 63 68 71 77 76 80 81 84 85 91 89 99 99 97 95 97 92 89 79 69 66 59 59 54 54 53 55 59 61
34 33 52 61 57 56 58 64 49 54 49 55 66 76 68 73 79 87 93 96 97 98 94 93 100 100 100 98 96 95 92 87 79 69 69 63 58 60 62 64 64 64 56
35 39 39 52 56 65 68 64 64 61 69 73 73 72 76 83 87 92 87 83 85 90 93 98 99 98 97 98 96 94 87 84 79 76 70 72 71 73 76 75 65 58 59
42 44 43 45 58 61 62 64 67 65 73 75 80 85 87 91 91 92 90 91 93 97 100 97 100 100 97 94 93 87 81 79 83 83 81 80 75 67 64 65 68 61 59
55 55 53 55 61 63 68 71 74 77 81 82 84 83 86 90 91 95 95 100 101 100 100 101 97 95 90 90 84 82 79 79 80 79 78 75 76 76 74 70 70 68 63
56 59 61 65 66 70 73 76 77 77 79 78 82 83 84 88 91 99 101 98 95 98 97 93 92 90 87 83 83 82 82 84 86 87 85 84 83 81 78 74 72 69 67
45 62 65 69 76 78 79 78 76 78 82 84 86 88 92 92 94 94 99 100 97 90 88 84 83 82 82 83 86 86 85 83 83 82 77 74 71 69 67 64 61 60 62
47 61 68 69 70 69 74 78 82 83 87 91 91 92 93 92 92 90 92 88 84 82 78 77 80 82 83 83 82 82 80 78 77 74 72 72 71 70 70 69 69 71 71
43 52 70 70 64 58 65 69 71 76 79 80 83 85 81 83 84 83 78 74 72 74 76 77 78 79 78 78 78 78 77 74 74 72 71 72 73 75 76 77 77 78 78
40 39 45 48 50 58 62 69 70 70 74 77 79 82 77 72 66 64 67 69 70 71 72 73 73 74 78 82 79 78 77 76 76 78 80 82 84 86 89 90 91 91 92
41 47 51 56 60 62 63 65 66 65 64 65 64 62 58 59 60 59 59 61 64 68 71 73 74 75 78 79 77 77 76 78 78 80 84 89 93 97 100 102 105 106 105
43 44 43 49 51 54 56 56 57 57 52 51 52 53 53 52 54 57 62 65 68 71 74 75 76 77 77 77 77 76 76 79 82 87 93 96 103 108 111 116 118 117 115
42 42 40 46 49 49 48 45 45 43 44 44 46 48 52 54 57 61 64 67 71 75 78 79 79 79 79 79 81 86 89 90 91 92 98 102 106 110 114 119 118 116 109
33 34 35 40 40 41 41 40 41 41 42 43 45 49 54 57 61 67 71 76 79 83 82 79 80 80 82 86 90 94 98 100 103 102 99 98 100 104 106 109 109 108 103
28 29 32 34 36 39 40 42 42 44 45 46 50 54 60 63 68 73 77 82 86 86 81 80 83 86 90 96 99 103 104 105 102 98 95 97 101 104 107 107 107 105 100

GFSSE_250_spd_030.txt.gz
Wind_Speed
79 76 73 73 73 70 71 73 76 75 73 71 71 67 69 69 70 71 70 73 78 74 75 71 71 70 68 67 67 65 70 68 65 65 65 59 66 65 69 78 79 76 76
78 77 76 77 75 73 73 77 78 78 73 67 72 67 62 65 70 72 75 74 74 75 71 65 70 68 63 66 67 68 65 64 64 66 64 64 65 74 77 82 78 77 80
77 74 75 77 77 76 76 75 77 77 73 70 63 68 74 75 73 76 80 77 75 78 69 71 69 61 62 60 60 62 65 68 67 64 66 71 73 73 78 78 81 83 84
77 77 76 74 74 73 72 77 75 74 74 68 66 74 77 77 80 81 76 77 75 72 70 67 58 60 59 59 65 64 63 64 68 69 73 75 74 77 81 83 85 87 87
74 78 74 73 72 69 71 73 71 74 72 71 73 78 77 80 78 79 68 71 69 66 67 62 55 61 61 67 64 65 70 66 69 74 74 68 76 86 95 90 91 88 88
68 61 57 59 59 63 61 68 69 68 69 77 77 76 77 76 70 67 66 70 67 65 65 59 60 65 67 68 65 62 71 77 78 69 67 81 88 87 88 89 91 86 89
53 48 48 45 50 50 55 60 65 72 80 76 75 72 69 58 57 58 61 62 53 57 55 59 62 63 65 70 64 62 76 67 69 81 87 87 85 90 92 90 91 85 79
36 31 41 44 41 48 53 58 64 69 68 66 66 60 58 62 61 58 55 50 58 61 61 58 60 66 66 70 68 77 71 78 83 86 89 91 91 89 88 86 75 70 62
18 28 36 44 41 45 53 57 58 57 56 56 50 51 54 60 59 58 46 54 56 56 52 59 62 62 67 77 80 76 82 87 91 90 98 100 98 89 81 71 63 59 52
27 38 39 41 33 37 40 45 45 48 53 53 53 57 61 60 58 52 56 63 64 60 60 63 75 76 77 83 88 93 95 99 100 99 97 91 88 78 76 66 59 59 57
53 36 35 45 45 46 54 53 49 55 53 55 55 44 40 48 57 67 60 59 59 63 65 71 72 83 89 92 96 96 93 96 101 103 93 92 88 83 77 66 62 57 55
50 56 61 49 50 52 49 48 51 47 45 45 46 50 53 46 51 52 54 68 80 72 76 81 85 88 94 98 96 104 103 104 101 95 96 92 87 89 82 75 64 62 63
35 61 61 62 57 56 54 42 47 51 48 47 48 44 49 56 57 61 71 71 77 86 85 89 88 93 99 105 105 103 103 100 95 96 94 90 85 77 72 71 70 66 67
43 35 50 62 61 50 55 52 40 43 51 58 59 62 65 73 74 77 82 83 87 87 90 95 96 100 99 98 89 89 85 85 88 87 86 85 81 77 72 71 70 71 68
37 40 46 45 46 55 64 67 64 62 63 63 68 65 60 71 70 76 79 86 87 88 94 94 98 94 94 86 87 86 86 85 86 90 88 85 81 81 80 78 77 78 77
42 49 50 50 59 62 57 52 63 58 59 61 67 71 72 77 79 80 84 86 91 94 93 87 83 88 82 88 88 86 88 88 88 88 86 86 84 82 79 75 75 76 77
45 47 49 55 57 56 56 62 66 71 66 73 78 80 81 82 88 90 92 90 91 92 90 87 86 89 85 85 83 85 85 87 88 89 88 85 80 77 76 74 71 68 70
49 50 57 58 56 57 59 59 66 71 78 79 78 79 83 86 87 84 87 93 88 85 84 84 85 82 77 79 83 85 84 83 83 83 82 81 79 79 76 71 71 70 69
47 49 56 61 59 61 69 70 74 74 76 78 80 84 84 83 83 83 84 84 84 83 82 76 72 74 76 76 77 78 80 80 82 83 82 81 78 77 77 75 75 75 74
44 46 50 52 57 61 65 70 71 74 79 79 77 75 76 76 79 80 81 80 78 72 69 70 72 73 75 78 79 80 81 80 81 83 83 82 81 80 79 79 79 79 80
50 48 52 54 55 57 59 61 66 73 75 72 71 75 76 77 78 77 75 72 69 68 70 70 71 73 78 81 84 86 84 81 81 81 82 84 86 88 89 91 91 91 92
52 50 45 44 50 55 54 57 59 62 67 72 75 74 74 74 72 71 68 68 67 67 70 71 73 78 82 87 88 82 77 79 82 85 89 91 94 98 100 101 102 100 100
39 36 38 42 48 53 56 59 60 62 61 64 66 67 65 64 66 67 66 65 65 68 73 75 79 84 88 90 86 81 80 83 87 93 96 99 104 107 108 106 103 102 103
40 37 40 44 49 49 54 54 56 57 57 56 56 59 60 62 64 64 65 67 69 74 77 80 86 91 95 92 87 87 89 91 94 98 101 105 104 103 103 101 104 105 104
32 35 35 38 42 47 49 48 47 48 49 53 57 58 60 62 66 70 73 74 75 77 80 85 90 94 93 90 90 90 94 99 104 108 110 110 106 103 104 106 108 106 102
27 30 30 40 39 39 40 42 43 46 51 54 57 60 63 66 67 68 71 74 77 79 84 89 95 96 93 91 92 95 99 104 109 112 112 107 105 105 106 106 107 104 98

GFSSE_250_spd_036.txt.gz
Wind_Speed
77 74 73 72 71 71 72 71 70 68 69 71 72 71 72 72 72 73 75 76 75 77 76 74 74 74 74 71 73 76 76 76 77 74 71 74 71 68 63 56 59 57 59
78 75 74 73 71 70 71 70 71 73 72 71 74 74 73 72 73 75 78 75 76 76 77 76 76 76 75 75 78 79 75 74 73 73 69 68 64 61 58 57 60 56 55
77 75 74 73 70 69 67 70 72 71 71 73 74 75 74 74 73 75 76 76 78 78 78 79 76 76 74 76 78 76 76 74 70 66 63 61 56 59 58 61 59 55 62
75 74 74 72 71 71 69 69 71 70 72 74 75 72 74 73 75 75 74 77 79 78 77 77 76 74 74 79 77 71 64 61 57 55 51 50 49 50 55 57 56 59 63
75 74 73 74 72 73 73 71 72 71 72 73 73 74 75 74 72 74 76 76 75 77 75 72 73 71 75 69 64 62 53 47 47 53 53 53 53 51 52 55 63 66 66
76 73 68 70 72 72 72 72 71 71 72 67 71 72 68 70 70 68 72 74 73 71 71 62 62 72 65 64 61 52 51 50 51 52 58 57 54 55 60 69 73 74 75
64 59 62 65 71 72 72 63 60 65 64 66 67 68 67 66 64 68 67 72 70 64 66 62 57 60 56 53 45 48 50 54 53 52 52 55 61 69 73 72 76 76 82
48 46 54 59 63 61 50 54 56 55 58 60 61 58 61 61 62 60 62 61 62 66 60 58 54 57 62 56 52 55 47 44 49 57 61 68 71 73 71 79 81 83 87
53 51 52 49 51 50 48 50 49 52 55 57 55 54 56 58 58 60 56 53 56 58 57 59 54 54 55 50 53 53 50 56 63 68 69 70 76 80 83 84 86 91 95
47 43 39 32 48 42 41 37 47 49 56 55 53 55 56 56 52 51 51 50 53 57 56 55 53 47 43 47 53 56 66 70 71 72 73 82 86 88 89 91 95 98 97
37 28 35 38 43 37 46 39 44 43 47 52 52 56 51 53 50 49 50 50 51 56 56 45 35 43 54 66 67 70 73 80 79 81 88 92 89 89 94 97 95 90 76
48 48 56 45 38 39 35 42 53 52 53 53 55 52 52 51 51 48 51 54 52 55 53 39 57 68 73 71 75 74 74 78 84 88 94 95 92 93 92 83 72 70 70
49 48 42 34 37 40 49 53 58 56 53 56 62 60 58 51 57 61 55 47 48 44 54 62 67 67 71 74 78 82 85 84 89 91 91 90 84 76 73 70 70 70 68
45 41 44 44 41 51 53 59 54 57 57 55 59 63 56 54 63 47 40 52 52 58 70 71 67 71 77 81 85 89 89 84 86 91 82 76 71 65 62 69 72 74 75
46 47 48 49 50 52 53 52 57 58 55 50 44 49 36 36 45 50 53 55 61 65 68 73 77 86 87 92 92 91 86 86 83 75 71 64 66 67 67 69 73 79 82
50 46 46 47 52 50 51 54 62 60 60 49 43 52 54 62 64 64 71 68 68 72 79 82 85 85 82 83 83 80 77 72 71 70 67 70 72 72 76 76 78 81 84
53 53 54 55 56 58 56 57 63 63 60 56 63 63 69 68 70 65 67 74 77 79 83 85 82 83 85 85 77 76 70 69 70 70 73 78 76 78 81 83 85 85 85
41 46 51 54 61 64 60 62 58 59 62 62 58 62 65 61 62 70 71 74 78 78 78 79 76 75 78 74 72 70 72 73 73 76 79 81 84 87 87 89 88 88 89
43 40 51 50 49 53 59 61 56 59 57 58 64 66 71 71 71 74 77 80 79 76 76 73 75 73 73 72 74 77 77 78 81 83 87 89 89 89 88 89 92 93 93
38 41 45 47 50 53 53 54 54 55 61 66 67 70 70 71 73 73 73 73 71 71 72 71 69 70 73 77 79 80 81 83 86 86 86 87 89 92 93 95 97 97 93
38 44 49 54 48 52 53 55 59 54 55 58 61 64 68 68 68 66 66 65 67 69 67 67 70 75 77 77 78 80 82 81 82 83 87 89 93 95 98 99 99 98 94
42 45 46 53 54 57 55 57 58 61 62 63 64 60 61 61 61 64 65 65 65 64 66 70 73 72 74 78 81 78 77 82 85 89 91 94 97 98 99 98 101 102 103
47 50 49 52 53 54 59 56 56 57 56 56 55 55 55 57 58 60 61 60 62 66 70 73 75 79 81 78 77 81 83 85 89 92 94 95 97 99 101 104 108 110 111
39 39 39 40 41 44 47 49 50 51 51 51 49 48 51 52 53 56 60 63 66 68 70 74 77 77 75 79 83 87 87 92 94 91 91 94 98 103 108 111 114 114 113
32 35 37 39 42 44 45 43 40 42 45 45 46 49 51 53 56 60 63 65 68 69 72 73 75 76 77 81 85 87 90 96 96 94 93 98 103 109 113 114 114 113 111
40 41 42 38 40 38 35 38 37 38 41 45 48 51 55 58 61 63 65 67 71 72 71 73 74 78 82 84 87 91 97 96 94 98 102 106 108 110 111 111 111 110 110

GFSSE_250_spd_039.txt.gz
Wind_Speed
81 80 80 78 75 73 71 69 68 69 69 69 69 70 71 70 70 72 75 74 76 76 77 75 76 76 79 78 81 79 78 80 80 79 76 77 76 72 71 69 67 62 59
80 79 79 77 75 73 73 71 71 70 70 70 70 72 71 71 72 72 74 72 75 76 77 77 78 78 79 80 81 81 81 80 78 76 73 74 70 66 65 63 54 54 54
79 79 79 76 75 73 71 71 70 69 68 69 71 73 72 72 75 72 73 76 77 78 79 79 80 79 80 81 80 80 77 77 73 71 64 63 61 61 55 53 51 52 49
81 79 77 75 74 72 72 72 70 69 69 69 68 71 71 72 73 73 75 78 79 78 78 78 77 78 79 79 79 77 75 69 67 67 65 56 58 54 51 50 48 51 51
80 79 78 75 75 73 71 70 70 70 71 70 71 73 74 74 74 75 77 76 78 76 75 76 76 77 77 78 76 65 66 65 64 61 59 53 53 48 50 53 53 52 59
74 75 75 73 73 73 74 72 71 71 71 71 72 72 73 72 71 74 74 74 73 74 72 74 72 74 72 67 64 58 60 59 59 60 51 48 51 50 54 58 55 61 63
77 72 71 71 71 71 72 70 70 70 67 69 69 70 70 71 69 71 71 71 69 72 68 69 66 62 67 63 60 64 58 55 54 54 52 54 51 53 54 56 64 65 69
49 48 60 59 67 72 71 68 64 59 59 59 61 62 62 63 65 64 65 63 62 60 63 60 61 58 57 58 61 61 61 54 46 47 52 54 58 59 63 66 70 69 72
32 40 42 49 56 64 52 47 47 49 52 53 54 57 60 59 59 58 59 55 57 55 53 53 54 57 59 60 60 63 51 46 53 59 61 66 65 71 73 74 76 77 78
44 37 39 44 50 46 44 42 35 39 46 48 52 57 55 56 55 52 53 56 56 53 54 52 51 56 55 58 49 44 51 57 64 68 68 69 70 71 79 79 80 84 85
42 46 34 32 34 34 36 36 37 38 40 46 49 47 54 52 54 55 53 51 50 53 52 57 63 65 50 39 53 59 62 64 69 70 73 77 79 84 84 86 86 85 73
47 49 40 38 39 34 37 38 44 43 44 51 53 55 54 53 55 57 56 60 56 55 62 65 55 49 51 54 57 62 69 70 73 73 77 82 83 85 82 76 67 66 62
45 47 55 47 40 45 43 48 50 51 55 57 57 54 57 53 54 56 57 62 63 68 54 45 51 52 61 65 68 72 76 81 84 85 83 85 75 68 69 66 63 64 63
51 54 56 53 51 57 56 53 52 53 53 55 56 58 60 55 56 57 64 66 60 48 52 56 59 64 70 75 78 81 80 79 77 79 78 70 66 66 64 64 65 69 70
49 55 56 59 58 56 57 52 56 51 58 56 58 60 62 60 60 64 63 51 55 54 61 65 69 72 75 78 77 78 81 78 75 74 69 67 68 68 67 68 71 76 78
52 55 56 50 49 53 53 56 57 54 58 60 61 61 61 63 61 61 59 58 63 61 62 66 70 76 75 76 79 72 74 72 69 67 68 68 72 74 76 77 77 76 78
52 42 46 46 42 43 48 52 51 52 56 59 58 63 64 60 57 59 60 62 64 68 73 75 80 79 84 85 73 70 68 66 68 71 74 75 76 77 78 78 76 77 77
49 47 46 48 46 45 47 53 58 60 57 53 56 52 54 57 59 61 65 69 73 72 75 78 79 81 75 71 67 65 64 67 70 70 72 74 76 76 76 76 78 80 82
44 44 50 50 50 53 52 49 55 52 53 58 56 59 60 62 63 67 71 71 75 78 79 79 75 72 69 63 63 65 68 71 73 75 74 72 73 76 80 83 85 87 89
45 43 41 49 43 53 57 51 53 56 62 60 59 62 63 67 69 70 72 73 74 69 68 69 67 67 64 65 67 70 72 74 77 76 75 76 80 84 86 88 90 93 94
44 43 43 44 45 51 53 55 54 55 55 54 59 62 66 70 69 70 66 67 64 62 66 64 63 63 65 67 70 73 76 77 74 75 78 82 86 89 90 93 97 96 96
36 35 44 41 41 44 47 51 57 58 55 61 65 65 65 65 65 67 66 60 60 60 59 60 62 65 67 70 75 75 71 72 77 81 84 87 88 91 95 97 98 99 101
40 43 42 42 45 48 51 53 57 61 63 59 60 63 64 61 60 58 54 54 55 58 60 63 65 67 72 74 72 74 73 78 82 85 87 89 91 96 98 98 100 104 108
32 38 40 42 44 45 45 48 47 47 50 50 48 48 47 49 46 50 52 56 58 61 64 66 69 71 73 70 72 74 81 85 86 86 88 92 96 97 97 100 106 111 113
33 32 35 33 34 36 40 41 39 43 42 42 42 42 44 46 50 53 58 61 63 66 66 68 72 73 73 74 76 81 85 87 88 89 90 96 97 98 102 108 112 113 113
38 34 33 35 38 36 34 39 42 44 41 37 38 42 46 49 53 58 61 64 67 67 69 72 75 75 75 79 83 85 88 90 92 93 96 97 96 101 108 113 113 113 112

GFSSE_250_spd_042.txt.gz
Wind_Speed
88 87 85 84 81 80 78 75 73 71 69 69 68 68 69 72 73 72 73 72 72 74 73 74 74 76 76 76 77 78 79 79 82 84 84 84 85 84 83 79 75 70 60
90 88 86 85 84 82 80 78 75 73 72 71 71 72 73 73 75 75 74 73 75 75 75 75 75 75 76 77 77 78 80 82 83 82 84 84 82 80 78 69 65 59 55
89 87 84 84 83 81 80 77 75 73 73 73 72 73 75 76 76 75 75 75 76 75 74 73 74 74 77 77 77 79 78 80 81 82 80 79 75 69 64 63 59 55 51
91 86 84 84 81 78 78 77 76 73 72 73 73 73 75 75 76 77 75 73 73 74 73 74 76 76 77 77 75 77 77 78 78 77 74 73 68 65 60 59 54 50 50
83 83 84 82 80 78 77 76 75 74 72 72 75 76 78 76 76 76 76 74 73 73 74 73 75 74 73 72 73 74 76 74 69 64 64 57 65 56 52 54 54 54 54
81 77 83 81 80 79 76 75 74 75 75 74 75 76 77 77 77 77 77 72 71 71 71 74 73 73 72 70 70 69 70 63 61 57 60 57 54 52 52 56 58 59 59
67 72 71 73 76 72 70 76 77 76 75 74 73 77 79 77 73 74 71 70 71 68 67 70 66 67 65 64 62 63 63 60 61 59 59 57 50 47 49 50 53 58 58
57 59 51 50 60 63 68 69 69 69 69 68 68 68 70 70 68 67 67 65 62 64 63 64 63 63 61 60 61 59 63 60 59 60 51 48 48 50 56 60 63 64 67
32 34 40 39 46 57 60 60 59 63 62 60 59 59 55 57 57 56 56 60 59 60 61 60 58 58 59 58 57 58 58 57 50 49 47 53 58 66 66 64 65 72 72
37 31 39 40 36 39 35 26 42 46 40 39 42 46 48 52 53 54 53 56 55 58 58 57 57 63 60 62 63 58 52 47 49 53 61 62 62 67 70 73 74 77 77
45 46 39 39 40 40 35 30 37 35 37 32 38 41 47 49 52 55 53 52 52 54 56 58 58 58 61 63 52 49 51 53 56 58 67 71 72 74 76 77 80 74 66
47 51 50 43 44 29 28 32 33 30 35 38 39 46 47 47 45 46 50 57 57 56 56 58 60 59 57 51 49 54 58 62 64 70 73 74 75 77 74 70 71 67 61
49 51 52 52 40 32 46 36 33 38 43 43 45 50 54 52 52 53 56 60 54 55 60 60 60 57 51 54 61 63 65 71 73 74 71 75 82 76 77 71 62 62 63
50 49 51 46 51 41 41 42 37 43 49 49 47 52 56 57 56 58 59 60 61 62 62 62 58 56 58 62 62 64 68 73 74 76 82 76 70 67 63 65 67 67 67
47 53 52 58 52 50 48 47 54 53 56 54 52 53 62 65 61 63 60 63 62 61 61 59 58 58 64 68 71 76 78 78 78 70 70 66 63 62 64 64 65 68 70
43 54 57 52 57 55 54 51 55 57 49 49 52 58 64 61 60 59 61 62 60 57 60 60 62 66 70 74 76 79 81 80 69 63 65 65 65 66 68 69 70 70 70
46 55 57 57 54 55 52 50 57 60 61 49 54 56 60 55 57 58 59 55 57 60 62 64 67 70 70 69 69 67 66 63 61 64 66 67 68 71 73 74 74 72 72
47 55 51 52 51 53 51 51 50 58 57 58 59 60 59 59 58 58 55 59 62 65 67 71 73 72 70 71 69 63 63 63 62 65 69 71 74 75 76 75 74 76 78
47 45 45 49 45 47 52 54 52 47 52 52 56 63 63 64 65 61 62 68 69 70 74 74 73 68 71 65 62 61 62 63 64 68 72 75 76 75 75 77 80 82 84
31 45 40 43 49 48 49 50 47 49 46 46 53 58 61 62 62 65 66 68 72 73 71 70 69 67 64 61 60 62 62 65 69 73 76 75 74 76 80 84 84 84 87
39 51 42 45 46 44 48 53 44 46 52 52 51 59 63 64 68 64 70 74 75 71 71 67 64 61 59 60 62 63 64 70 75 76 76 76 78 81 85 87 88 88 88
36 41 48 46 45 45 46 47 49 61 66 71 70 70 65 66 67 69 70 69 69 64 62 58 56 60 61 63 65 67 70 71 74 75 80 81 84 87 88 87 89 91 94
33 32 38 48 50 46 46 48 53 49 50 54 59 61 63 63 63 61 63 65 58 56 56 58 62 63 64 68 70 74 75 79 78 75 79 86 88 89 89 90 93 95 96
31 33 36 38 39 43 47 47 53 57 55 57 55 57 55 54 54 54 55 53 53 55 57 63 66 67 70 72 75 77 80 82 83 85 83 86 89 91 91 93 97 94 95
35 34 34 33 36 37 42 46 46 47 51 51 53 51 51 51 52 51 50 52 55 59 62 66 69 71 73 76 76 75 78 82 86 89 91 93 91 90 92 95 96 99 102
33 34 38 33 36 34 35 39 43 41 42 46 50 51 51 48 47 49 52 58 61 64 68 70 70 74 78 79 77 77 81 84 87 89 91 94 94 95 96 97 101 104 106

GFSSE_250_spd_045.txt.gz
Wind_Speed
92 93 97 94 91 88 84 81 79 78 76 75 75 74 73 72 71 71 71 70 70 71 71 72 74 74 74 76 76 77 77 77 79 79 78 79 80 80 81 81 81 80 79
97 95 92 93 94 91 88 86 82 80 79 77 78 77 76 74 74 74 73 74 74 74 75 75 77 76 77 77 76 77 76 77 79 79 79 80 79 78 80 79 76 72 68
86 95 97 92 90 92 90 86 84 83 82 80 79 78 78 76 78 78 79 78 78 77 76 78 78 78 76 75 76 73 75 74 77 76 78 78 75 76 74 74 66 64 61
73 85 93 94 90 88 87 88 86 84 82 81 79 80 81 80 82 81 82 81 80 79 78 78 79 77 76 77 77 75 76 76 76 76 75 75 73 69 66 63 60 59 54
48 71 77 87 86 89 90 88 84 82 82 80 81 81 82 81 82 83 82 82 80 80 80 79 79 77 76 77 76 74 74 74 74 74 69 66 63 64 62 60 59 57 54
53 42 73 64 83 88 85 83 83 81 79 79 81 82 83 82 81 81 80 81 81 80 79 76 76 75 72 72 75 72 71 69 67 60 57 60 60 60 60 59 55 52 49
57 51 47 66 70 67 71 80 81 76 75 80 80 78 80 80 79 78 79 78 78 77 79 76 72 70 71 69 69 68 64 65 57 55 56 58 55 48 50 49 49 54 52
54 44 44 47 55 65 64 65 69 75 74 74 76 77 76 74 73 72 72 69 71 70 70 69 69 67 64 65 63 62 61 55 54 58 56 52 52 52 49 50 54 57 59
61 50 39 46 46 52 62 52 56 69 71 67 67 67 64 65 63 61 61 58 58 59 60 59 60 61 63 61 60 58 56 58 58 55 52 51 52 52 52 60 61 65 68
44 38 25 18 29 37 47 46 42 35 42 51 50 51 50 49 46 48 51 56 55 57 57 56 59 60 57 58 55 56 55 55 54 53 52 57 60 59 60 63 69 71 74
40 44 42 33 25 31 36 38 34 32 31 37 36 31 37 41 44 48 50 52 55 53 52 54 57 59 58 57 55 56 55 56 55 58 59 59 63 61 69 71 72 75 75
50 54 47 47 46 41 36 34 38 34 38 32 30 31 39 45 42 46 46 42 42 52 55 58 59 59 60 59 59 58 58 58 55 61 62 68 73 76 75 79 75 74 73
54 59 53 43 46 44 40 43 34 38 35 22 32 39 43 46 48 49 50 52 59 59 59 58 60 63 64 57 57 56 58 60 64 69 70 74 75 77 81 80 77 75 67
51 62 58 47 52 47 45 44 42 43 38 31 37 46 45 51 54 58 60 61 58 58 63 66 60 59 59 59 56 62 64 69 71 73 76 75 73 71 72 73 68 63 63
52 64 67 61 53 54 49 51 47 43 42 41 50 54 48 51 55 54 53 60 65 65 67 59 59 56 62 61 63 66 70 71 75 72 75 75 72 70 67 61 63 65 68
52 59 63 60 59 55 56 54 46 44 43 44 52 54 56 57 59 60 62 64 60 61 58 59 59 60 61 65 68 71 75 76 77 75 74 69 65 63 64 64 65 68 73
49 55 55 57 61 59 60 54 49 49 50 53 53 48 51 53 52 55 60 63 65 60 61 59 65 64 69 73 73 76 77 73 72 68 68 64 62 65 66 68 71 71 71
47 51 50 52 54 60 60 55 51 50 48 49 50 48 47 49 47 55 58 60 65 69 66 69 75 72 73 73 77 76 71 68 64 65 65 65 66 65 68 74 75 74 74
38 46 47 52 57 55 58 59 59 53 49 49 46 49 55 57 58 60 65 65 70 73 77 77 74 75 77 77 73 66 62 60 62 64 66 67 71 74 74 76 79 79 81
32 39 37 40 40 40 57 55 55 56 49 44 52 54 57 55 58 61 63 66 65 65 73 75 77 75 76 72 65 60 59 62 62 64 66 71 74 78 82 84 82 82 84
17 25 33 26 36 48 43 40 40 39 43 57 57 57 60 60 57 58 63 67 75 78 82 73 70 68 66 63 62 63 60 62 66 71 73 76 77 79 81 84 87 88 85
30 31 31 36 37 39 42 41 46 55 58 56 53 53 55 59 64 71 77 79 79 79 77 71 67 61 61 62 62 63 67 67 61 69 80 81 81 83 84 85 88 90 90
32 37 38 39 43 40 43 46 44 45 50 57 61 63 66 66 62 64 67 69 70 70 66 65 62 60 60 64 67 69 73 72 76 76 74 81 82 84 87 90 90 90 90
37 34 36 39 42 42 45 45 46 50 54 54 57 59 62 66 69 68 67 66 63 61 61 60 61 62 66 69 72 75 76 77 81 86 85 81 80 85 89 92 95 95 93
35 35 36 34 35 36 41 49 53 56 57 60 62 64 66 65 63 63 62 60 59 60 59 60 62 67 71 76 77 77 77 81 88 91 91 92 90 89 88 90 93 94 95
31 36 39 39 37 41 41 41 44 46 49 50 46 45 54 60 61 57 58 59 55 57 62 63 67 73 75 77 77 81 83 88 92 89 88 90 93 96 98 98 96 95 99

GFSSE_250_spd_048.txt.gz
Wind_Speed
67 79 86 90 92 91 92 91 89 86 84 81 81 80 78 76 76 73 74 73 72 70 71 71 70 72 73 73 73 73 73 74 74 75 76 76 76 77 78 79 79 79 81
53 67 74 82 92 93 93 91 92 89 87 85 82 81 81 80 79 78 77 76 75 74 75 75 75 76 76 75 76 77 77 76 76 75 76 76 77 78 80 79 81 80 79
61 60 59 66 73 88 92 91 93 91 90 89 86 84 83 83 82 82 80 79 78 77 79 78 78 79 79 79 80 79 79 77 77 77 76 78 78 77 78 78 78 78 73
29 45 53 60 64 64 77 91 91 92 92 90 87 86 85 86 84 83 82 81 81 81 81 81 82 81 80 81 80 79 78 78 78 77 77 76 78 76 73 74 70 67 68
36 35 29 38 58 69 77 73 90 90 89 90 85 87 88 87 84 86 84 83 83 84 83 82 83 83 80 79 79 77 78 78 76 75 76 75 73 72 67 63 60 60 60
32 35 15 23 26 40 55 72 76 87 90 84 85 88 88 85 82 83 82 82 84 84 83 85 83 81 79 78 76 75 76 73 73 74 72 71 69 64 62 61 57 56 53
51 31 29 24 31 48 58 57 61 73 81 85 87 85 84 79 80 79 80 82 82 84 83 83 80 80 77 76 75 73 68 69 70 66 66 64 63 61 58 53 50 51 48
58 44 47 50 40 44 43 40 53 54 67 78 77 76 79 76 75 77 76 78 78 79 77 78 77 77 75 72 68 66 64 63 64 63 63 58 55 53 48 51 52 55 55
93 52 43 37 34 30 36 39 41 51 57 58 64 67 70 67 68 69 66 67 70 71 70 72 69 67 63 62 61 57 59 59 58 58 52 52 53 58 54 58 57 62 62
83 84 60 53 45 38 29 36 34 39 43 52 52 48 45 50 50 56 59 57 58 58 57 58 56 53 55 56 55 58 58 57 56 53 54 56 57 58 61 61 66 69 69
77 75 75 60 42 40 30 23 26 26 31 32 27 33 30 28 33 35 40 50 51 48 48 49 46 48 52 56 57 56 59 61 59 58 56 59 62 61 61 67 71 72 73
66 63 63 51 43 43 43 37 25 32 32 29 25 22 24 23 28 32 37 42 44 41 46 44 41 50 57 57 55 59 55 55 60 58 61 64 64 66 70 72 75 75 77
60 69 61 54 47 45 45 39 35 33 35 35 32 31 22 28 35 45 45 47 43 48 51 53 56 58 60 60 63 65 63 61 62 62 62 64 69 73 77 76 75 74 71
54 54 55 60 55 47 43 42 43 42 41 38 39 36 35 41 43 44 47 48 48 53 54 57 60 61 61 61 67 60 65 68 61 66 69 72 74 76 77 78 75 72 65
51 56 62 61 58 50 48 47 45 42 49 45 45 47 39 40 42 45 51 49 51 55 53 55 57 61 70 63 64 64 72 64 74 76 74 75 79 81 79 72 67 64 63
58 61 60 63 56 50 54 51 41 48 47 45 45 42 45 47 52 54 53 50 53 56 58 59 60 61 62 64 67 72 72 75 78 73 80 80 81 79 65 63 64 63 65
51 56 59 62 61 53 52 56 50 50 48 48 49 47 53 52 55 54 57 58 58 58 58 59 60 62 66 69 71 75 79 78 80 83 79 74 71 67 68 67 63 62 65
51 50 57 61 59 59 53 60 53 50 51 50 46 48 50 56 59 60 60 61 58 53 56 61 65 68 69 72 77 74 78 80 82 75 72 70 64 63 65 67 67 70 73
40 52 49 56 59 52 55 57 57 55 54 54 52 51 49 51 54 52 53 51 56 62 66 65 68 72 74 78 79 84 85 79 76 70 67 65 67 67 64 67 71 73 75
37 45 46 50 56 52 47 54 55 56 56 55 59 53 55 47 50 51 56 61 58 57 62 66 69 74 75 85 84 80 79 76 72 63 63 65 70 74 73 73 75 79 81
22 27 39 42 41 46 47 55 63 58 54 61 60 50 53 55 56 57 58 62 66 68 67 70 74 80 79 79 77 77 72 66 64 65 68 71 74 74 78 84 87 88 85
25 25 28 33 34 34 37 36 43 50 53 56 57 60 62 60 56 58 62 65 63 69 76 80 80 80 81 79 74 72 70 66 63 65 69 72 75 80 80 86 90 91 90
19 26 27 30 32 32 35 40 42 41 46 48 52 51 54 61 66 67 70 69 73 75 78 79 76 75 74 73 70 67 66 66 67 70 72 72 77 79 86 93 93 90 90
28 35 34 37 39 42 43 43 43 48 55 54 53 52 50 52 56 59 61 66 68 70 70 72 75 74 71 67 66 67 69 71 74 78 78 80 80 85 90 93 93 94 95
29 33 38 39 39 42 45 49 48 48 52 56 56 57 59 62 67 70 70 71 68 71 71 73 72 72 70 67 67 71 74 77 81 83 86 92 92 93 98 96 93 92 93
30 32 37 36 39 42 43 43 41 43 48 49 48 50 50 56 63 62 64 67 65 67 71 71 70 68 68 72 76 79 79 84 86 87 89 92 96 103 103 102 100 100 100

GFSSE_250_spd_051.txt.gz
Wind_Speed
49 49 54 59 63 71 80 83 85 86 87 85 84 83 82 79 79 78 78 77 76 75 73 72 71 69 68 69 68 69 71 71 72 72 73 74 75 76 76 76 75 76 78
32 39 39 42 45 50 57 67 79 85 87 88 88 87 85 83 82 82 80 80 80 78 78 77 75 73 73 74 74 75 75 75 74 75 77 77 78 76 76 77 78 77 79
33 22 17 37 44 40 45 54 63 73 81 89 90 90 89 87 85 85 84 82 82 82 82 80 80 78 77 78 78 77 78 77 77 79 78 77 77 77 76 77 79 80 82
38 31 18 38 43 39 45 51 59 64 72 81 86 90 90 88 87 88 86 85 85 84 84 84 83 82 81 80 79 80 80 80 79 80 78 77 77 76 78 77 79 81 78
41 48 45 32 35 34 29 42 53 60 59 67 79 84 88 88 86 86 88 87 87 86 85 85 84 84 84 83 81 80 80 80 79 78 78 77 76 75 75 77 77 72 74
58 54 47 46 25 15 35 35 36 38 44 49 65 69 82 84 83 87 86 85 87 87 86 88 85 84 84 82 81 79 79 78 76 73 75 72 73 71 72 72 70 68 60
58 55 47 31 14 17 17 46 44 43 37 39 48 61 63 71 80 79 81 83 83 83 84 85 86 84 84 80 79 77 75 73 73 70 69 67 68 69 68 65 62 54 54
62 51 48 41 28 22 30 41 49 45 38 36 35 48 51 57 65 76 80 78 76 76 76 75 77 73 79 78 75 75 71 64 64 62 62 63 66 65 60 57 53 52 57
44 65 41 47 38 33 50 53 57 53 42 34 31 36 40 45 51 61 70 70 68 66 70 67 71 66 64 62 57 55 58 57 54 56 60 59 55 56 56 53 58 58 57
47 56 70 43 50 41 42 39 57 43 34 44 32 30 35 41 46 44 45 51 51 52 53 56 51 55 47 46 49 47 50 54 59 59 56 59 59 63 57 55 58 60 62
46 50 65 56 61 51 60 63 58 32 25 20 21 25 29 24 28 39 26 32 38 41 39 39 41 39 40 39 42 47 55 55 59 59 60 61 60 63 61 60 61 64 69
44 61 59 60 65 68 66 60 46 34 31 23 25 25 28 28 19 24 23 29 35 34 35 37 38 39 39 42 48 52 57 57 59 63 65 65 67 66 67 70 74 70 76
49 62 62 66 67 65 64 58 51 39 31 28 28 32 32 28 28 22 29 33 39 42 43 40 39 41 44 49 53 53 56 59 60 61 64 66 68 72 75 77 76 80 78
53 68 70 66 74 69 56 52 50 41 40 34 42 38 33 33 31 31 32 38 41 49 41 40 41 42 47 51 53 58 59 61 62 59 63 67 71 73 76 76 78 78 74
58 64 78 72 67 62 54 49 48 50 48 50 43 44 37 36 42 41 43 44 46 46 42 45 45 49 47 48 55 60 65 62 59 64 70 73 76 80 81 80 79 77 72
52 62 85 71 65 62 62 52 53 51 55 53 50 46 42 41 49 48 43 42 44 45 49 48 46 46 53 58 61 62 60 60 69 72 75 81 82 84 83 76 73 72 67
45 56 64 81 69 64 64 58 58 53 55 51 51 46 47 46 50 48 47 49 49 49 52 47 54 58 60 58 58 62 66 66 68 72 78 83 86 81 80 75 68 63 65
38 51 53 57 59 61 58 62 64 61 58 51 47 45 48 45 49 47 49 52 55 54 57 52 57 62 60 62 64 71 66 70 74 80 82 80 82 78 73 70 68 66 65
47 50 53 53 56 62 62 66 60 57 58 56 47 47 49 46 51 50 53 51 54 57 55 54 57 59 64 64 65 67 70 75 81 85 83 84 73 71 66 69 67 67 66
40 41 48 53 55 56 59 58 56 56 54 58 58 52 48 48 54 50 51 53 51 50 54 58 60 65 68 72 75 75 76 78 81 78 78 77 72 70 67 66 69 69 71
36 42 45 49 53 55 58 57 48 56 55 52 52 56 57 58 58 59 59 58 57 59 60 63 68 70 69 71 75 76 78 80 81 76 68 69 69 70 70 72 73 75 78
27 41 45 45 52 53 53 59 59 48 50 53 55 52 53 58 60 64 60 60 62 66 67 66 66 77 82 79 81 80 76 74 74 72 68 65 67 70 74 76 81 85 87
16 24 31 35 38 49 45 39 42 44 40 41 44 49 59 58 55 60 64 66 69 71 71 72 79 79 74 73 73 72 72 74 74 74 70 70 71 74 79 82 85 88 93
23 19 22 30 29 33 33 36 38 40 42 44 46 49 52 53 52 52 59 61 62 66 67 69 70 71 72 73 71 74 78 80 76 70 73 77 81 82 85 88 91 94 98
32 29 28 29 27 30 34 38 41 45 47 52 51 55 56 58 60 63 64 65 65 63 67 74 72 73 74 79 75 80 79 77 76 76 79 83 87 88 92 95 98 98 101
29 33 31 30 34 38 39 41 49 51 56 56 55 55 55 58 61 65 64 60 61 74 79 77 77 79 81 79 79 79 83 81 78 79 86 87 91 97 101 103 106 107 107

GFSSE_250_spd_054.txt.gz
Wind_Speed
61 51 46 49 57 60 64 62 59 67 77 83 83 83 84 83 82 82 81 80 80 79 77 76 74 74 74 73 72 70 70 69 68 69 69 72 73 73 74 75 76 77 77
53 42 40 32 42 48 53 53 56 57 62 71 84 83 86 87 86 85 84 83 83 83 82 80 78 78 77 77 76 74 74 73 74 73 73 75 76 76 77 79 78 78 76
46 42 42 13 45 42 41 41 43 49 47 49 61 75 79 85 87 86 87 86 87 85 83 83 81 81 80 80 79 78 78 79 78 77 77 78 77 78 79 78 79 76 77
49 53 57 53 44 38 29 29 30 39 46 45 48 56 67 76 83 86 86 85 87 86 85 86 84 81 83 83 81 80 81 81 79 80 79 79 78 79 79 76 75 75 73
53 63 52 64 44 25 31 26 23 30 39 48 50 52 58 60 66 75 84 86 84 85 86 85 85 83 85 84 84 82 82 81 79 80 79 80 78 76 74 76 73 71 72
57 52 49 45 38 22 23 21 29 36 34 28 33 41 54 54 61 61 66 75 85 84 83 85 85 83 83 83 83 81 82 80 80 80 78 75 73 75 71 66 70 68 69
50 55 52 42 31 27 15 38 41 41 41 39 35 34 37 40 45 55 56 58 70 78 77 78 80 80 82 79 80 79 76 74 70 71 71 71 67 64 64 65 65 65 57
46 46 47 46 38 35 43 35 41 40 41 50 48 46 30 32 29 36 49 53 53 59 68 73 76 75 75 71 70 67 65 66 66 62 55 55 56 57 59 60 57 55 51
42 46 43 40 45 41 56 52 45 45 45 42 45 44 39 32 26 27 33 38 44 46 49 52 59 67 65 65 62 56 59 57 52 50 45 53 56 57 58 56 55 55 58
40 49 38 45 44 35 39 46 57 53 47 37 45 39 42 40 30 32 32 33 38 40 42 46 48 47 46 42 49 45 40 41 46 48 50 53 54 55 56 57 57 61 63
36 59 54 49 49 42 33 38 43 44 43 36 27 28 29 27 36 30 27 29 34 40 42 39 39 34 33 36 36 38 39 40 42 47 49 51 54 58 62 58 62 66 67
46 52 63 53 54 54 43 45 39 50 42 30 28 31 40 38 38 28 24 27 35 35 36 37 34 34 35 41 40 42 38 42 45 48 53 55 59 62 61 62 64 69 71
52 53 56 66 63 56 62 52 49 46 43 38 34 33 34 35 35 35 36 31 39 43 42 39 42 46 42 37 39 38 37 45 49 51 54 62 63 60 62 65 70 72 76
51 48 59 65 67 63 72 66 64 50 54 51 45 41 37 36 34 35 38 43 42 51 47 42 44 47 37 41 42 39 44 46 51 55 60 59 61 62 66 67 74 77 81
47 45 61 62 65 73 74 70 66 67 67 63 54 44 41 36 36 36 38 40 42 45 43 43 44 41 41 43 44 48 44 51 55 57 59 58 62 67 72 75 78 80 82
51 48 65 67 70 75 80 73 74 67 66 58 53 45 47 47 46 40 40 42 45 48 44 47 47 46 46 48 50 53 51 58 57 57 60 65 71 71 74 76 79 78 78
55 53 57 71 69 72 80 77 71 70 68 57 56 56 55 51 49 43 45 49 48 52 54 50 49 53 53 54 54 56 54 56 58 64 66 72 69 73 78 78 78 78 75
57 58 66 59 79 76 77 80 74 70 65 61 57 54 58 58 54 51 50 52 54 54 54 56 57 56 62 60 60 54 55 58 64 72 70 73 77 77 76 75 76 75 71
35 37 54 63 67 79 81 80 79 72 65 60 57 57 57 57 59 59 54 53 55 52 54 58 63 62 63 58 58 60 60 70 70 70 71 77 73 78 80 78 75 74 71
33 33 38 47 60 71 77 76 68 64 66 59 59 62 61 60 60 56 53 56 54 54 61 63 63 58 59 61 62 65 68 69 73 75 76 78 78 75 75 76 75 75 74
27 29 35 39 50 59 72 68 60 51 54 60 66 65 60 57 59 62 62 60 58 61 64 61 61 64 64 65 68 71 77 73 75 78 83 80 72 73 76 76 77 77 78
25 27 31 39 41 47 58 67 59 53 56 56 58 57 55 59 58 59 58 56 57 61 64 65 66 68 65 68 71 73 74 76 76 78 78 74 77 79 77 78 80 82 84
15 18 30 35 40 45 45 43 46 53 56 55 56 53 47 52 60 64 66 65 69 71 70 71 74 74 76 74 73 68 68 74 76 76 77 80 79 81 81 82 85 85 88
16 12 12 22 30 33 37 40 43 49 52 48 47 51 58 60 57 55 56 59 64 67 71 72 71 70 70 71 71 70 73 76 75 74 77 79 81 81 85 89 90 92 93
22 22 17 16 19 22 26 28 27 31 35 37 39 42 47 51 55 59 61 62 67 67 69 72 75 82 77 76 74 75 78 79 80 78 76 80 84 87 91 92 95 95 96
23 24 26 23 24 27 27 27 32 36 38 37 45 51 56 57 60 63 66 66 67 70 69 73 76 81 77 77 76 81 79 77 81 83 84 85 87 91 95 98 98 102 107

GFSSE_250_spd_057.txt.gz
Wind_Speed
73 71 71 69 71 73 70 72 72 66 63 67 69 70 74 80 83 83 84 86 86 84 82 82 81 80 79 77 76 75 74 74 73 71 72 71 72 71 72 72 73 74 75
68 66 66 57 60 64 58 54 52 59 67 62 68 63 61 65 75 87 89 89 88 87 85 84 85 84 82 82 80 79 79 77 76 76 74 75 75 74 75 76 76 77 77
64 57 59 52 51 49 33 39 32 39 46 52 50 52 56 60 65 71 80 89 86 86 86 87 88 87 85 84 83 83 81 80 78 79 77 77 76 76 75 75 77 77 77
59 51 51 49 49 39 27 43 42 34 32 42 42 50 59 60 61 64 72 76 86 89 89 89 89 88 87 86 85 85 83 82 81 81 79 78 76 77 77 76 76 76 76
48 50 47 48 47 39 50 20 29 30 26 30 30 37 46 52 52 56 58 65 71 78 88 88 88 90 87 86 85 86 85 83 82 82 81 76 75 76 77 74 73 73 69
51 47 42 48 54 54 48 26 28 23 22 25 25 28 33 40 44 47 53 54 58 59 67 76 81 83 81 81 84 82 81 80 79 81 80 77 77 75 71 71 69 64 63
37 44 43 58 55 59 45 30 21 25 28 32 34 35 32 32 35 35 40 45 50 53 58 65 64 65 68 69 74 75 77 76 77 75 77 73 67 66 68 62 57 58 57
37 42 48 58 56 52 38 27 26 28 35 38 31 37 37 41 43 35 30 29 33 37 41 49 54 54 55 55 62 66 66 71 74 75 73 70 64 62 60 55 53 56 55
35 35 45 62 52 43 32 34 28 30 41 35 31 37 40 46 45 38 39 27 23 25 25 32 37 43 45 45 53 55 59 64 62 61 55 55 54 46 47 50 50 50 54
39 43 41 50 43 36 30 29 48 45 44 37 34 43 41 43 46 43 39 42 30 28 26 31 35 45 42 44 45 47 48 47 40 43 42 38 40 45 46 50 50 54 54
45 46 26 46 46 49 42 47 47 53 46 47 45 44 43 39 42 31 34 39 40 41 45 38 42 47 51 42 40 41 38 37 38 36 37 39 42 46 49 50 57 55 54
45 45 46 49 52 59 50 54 53 50 47 48 46 45 43 36 34 34 38 40 44 42 38 41 42 44 55 45 38 35 38 41 40 38 35 41 47 49 52 57 55 57 57
44 53 53 52 52 51 48 48 53 63 54 46 48 43 40 36 34 33 36 32 36 38 39 45 41 47 49 43 45 46 42 37 42 41 40 46 49 53 59 58 57 59 61
43 52 59 56 58 60 54 50 57 49 42 39 46 42 42 33 41 37 33 36 38 40 40 41 39 51 47 41 40 36 38 41 45 46 49 52 53 57 59 58 61 67 73
42 51 51 62 58 61 61 59 60 56 49 45 47 42 45 38 38 39 35 33 37 36 39 37 38 42 45 44 43 42 46 49 50 54 56 56 56 58 61 61 68 73 72
41 50 52 56 62 61 58 61 64 63 59 51 54 55 49 44 41 37 39 35 40 41 39 40 42 45 50 49 49 48 50 54 59 61 60 60 59 63 64 71 76 75 80
43 42 53 53 60 64 62 57 60 63 61 61 53 57 53 52 56 49 45 49 48 44 45 46 46 47 50 53 51 51 57 58 62 60 63 64 65 66 69 75 74 81 81
44 44 50 55 55 60 71 69 63 64 64 65 64 63 62 52 56 57 53 52 51 50 53 52 51 54 58 55 54 56 62 63 65 65 66 69 69 72 76 79 80 79 78
50 55 53 57 57 60 66 77 76 69 69 72 74 69 65 58 49 54 54 52 52 54 55 56 58 56 58 57 58 61 66 66 67 68 67 69 73 75 83 85 76 77 76
51 54 55 62 63 62 65 68 80 81 72 71 73 69 64 64 66 64 57 57 56 61 59 59 60 62 61 62 64 64 67 66 66 63 67 71 76 81 80 77 78 77 79
60 54 53 53 61 62 69 75 73 75 78 75 72 72 73 70 64 64 61 61 60 57 56 58 62 64 69 70 69 69 68 68 69 72 78 84 81 79 78 78 78 80 80
44 54 59 51 44 40 50 74 74 76 75 75 77 75 77 76 69 61 63 64 62 61 64 65 68 66 64 65 68 64 71 74 76 77 79 79 78 79 78 79 79 82 84
27 34 39 36 33 35 34 42 61 72 76 82 79 70 64 64 60 49 56 51 52 54 57 59 61 62 66 70 72 72 72 73 74 76 80 77 75 74 77 77 82 86 86
22 22 26 24 27 26 28 32 41 50 70 65 65 65 65 51 52 51 54 56 56 55 58 58 62 67 69 70 72 69 70 70 72 71 76 77 78 77 78 82 86 84 84
23 20 20 21 21 28 27 31 35 36 41 50 56 52 47 47 44 46 49 52 55 60 60 61 65 66 69 71 71 71 70 72 71 74 76 79 79 81 84 85 84 86 90
26 24 24 21 21 19 17 18 23 29 30 30 33 36 41 45 48 49 51 59 61 58 59 60 63 66 68 72 76 74 71 73 72 73 76 80 83 86 86 86 89 93 97

GFSSE_250_spd_060.txt.gz
Wind_Speed
76 75 73 76 76 73 70 68 73 73 76 75 74 74 73 74 75 73 76 81 80 85 88 87 87 86 85 84 81 81 80 77 75 73 73 73 73 72 72 71 73 73 73
74 77 75 74 75 73 65 64 67 69 71 73 65 66 61 62 69 72 71 72 81 85 88 90 90 88 88 86 85 83 80 78 79 78 77 76 76 75 75 74 75 76 76
71 75 74 72 68 69 65 62 62 65 70 72 56 57 59 63 63 63 67 70 75 81 89 88 87 89 89 88 88 84 83 81 80 80 80 80 79 78 78 78 77 76 77
61 65 68 70 68 70 63 61 57 59 57 51 52 37 47 52 62 65 64 67 70 71 78 80 84 85 88 89 88 86 85 83 82 82 81 82 82 81 81 79 77 77 78
57 59 61 64 67 69 64 57 53 50 44 40 32 27 38 43 45 49 52 58 61 61 65 69 75 79 86 82 82 85 83 84 84 84 83 82 83 82 79 77 79 75 74
54 57 63 68 60 58 49 52 49 45 37 32 29 29 36 34 30 34 39 41 55 55 56 61 59 58 65 65 66 73 70 73 79 76 75 77 80 78 78 72 69 69 69
41 49 50 54 51 46 42 48 39 31 25 29 36 35 30 28 28 28 30 28 27 30 46 48 42 43 46 51 59 65 65 56 63 52 49 55 57 57 62 62 59 59 55
34 35 36 43 37 38 42 42 32 25 25 30 28 29 29 32 34 30 32 30 31 23 21 28 30 25 25 25 29 33 32 34 40 41 43 47 48 46 48 48 46 46 45
25 28 31 36 30 41 42 42 38 29 30 27 33 25 32 32 33 30 33 34 37 27 19 11 8 8 22 25 33 36 42 45 43 42 42 43 41 40 41 40 40 42 43
23 21 24 28 37 48 46 45 49 43 41 35 27 32 40 29 31 31 36 38 39 33 27 27 26 26 32 32 37 42 47 47 42 41 36 34 34 35 37 39 43 45 46
24 35 33 37 37 38 42 42 48 45 39 45 39 38 40 34 30 38 39 43 38 38 36 34 33 32 34 39 46 49 48 37 34 34 36 36 34 37 41 42 46 48 49
25 40 41 38 31 33 38 44 42 33 32 45 49 40 40 41 36 39 37 34 30 38 38 36 36 38 41 39 47 48 43 34 38 35 36 40 37 37 42 46 48 53 52
28 36 48 25 42 34 35 47 39 38 40 41 43 48 48 43 40 37 38 38 41 42 43 40 42 42 36 41 49 40 38 34 33 31 35 40 40 44 50 52 53 52 54
41 42 41 38 45 43 54 50 53 44 44 43 42 40 43 47 47 44 41 37 41 37 42 40 41 40 41 41 40 37 38 37 34 37 41 42 46 50 54 55 58 59 61
50 52 48 34 43 43 60 56 50 56 51 45 45 49 46 51 46 38 34 28 29 31 35 42 39 39 41 44 40 39 40 39 41 42 45 49 51 54 59 61 60 62 62
49 55 50 47 42 46 55 52 51 52 47 45 48 51 48 40 44 39 39 39 38 39 37 36 40 42 45 44 43 43 46 45 46 47 48 51 55 59 63 65 65 67 68
47 46 48 47 48 46 49 51 57 55 53 53 46 50 48 47 51 54 47 50 51 41 40 40 42 46 46 47 49 46 47 47 49 52 53 57 60 63 70 67 67 68 69
49 46 45 47 43 46 49 53 57 59 52 57 55 54 51 52 50 50 50 50 51 52 46 54 47 49 48 49 49 50 50 51 51 53 57 60 65 69 70 68 65 65 68
48 50 44 51 52 51 44 45 55 62 63 57 56 50 51 52 55 55 49 47 46 47 48 48 50 51 49 52 51 52 55 55 56 59 62 66 68 68 62 61 66 68 73
49 52 51 50 47 55 49 45 43 55 67 68 63 63 62 60 59 59 59 60 59 61 60 60 59 60 57 62 63 58 58 60 58 58 63 64 64 61 63 69 68 70 72
56 56 56 52 50 51 59 55 59 54 56 61 63 60 66 65 67 71 69 70 72 70 61 65 69 62 64 65 59 56 58 56 56 56 58 58 60 64 65 65 69 71 74
62 63 62 57 58 57 58 59 61 58 57 64 62 68 72 73 74 69 66 70 70 70 62 60 61 63 58 54 53 54 55 54 55 59 61 61 63 65 66 68 73 73 75
60 74 67 69 63 59 57 57 63 60 73 69 69 72 69 68 68 68 69 64 65 63 63 63 63 54 52 54 54 56 58 60 59 60 61 61 62 65 68 70 73 78 80
27 33 51 68 70 69 68 64 63 56 55 60 70 70 67 67 70 67 65 66 61 63 62 56 55 58 56 55 59 58 59 63 64 62 66 63 63 63 70 74 81 83 84
22 23 22 26 35 44 49 52 57 51 42 42 42 52 66 67 55 59 53 51 56 64 59 54 57 58 58 62 61 60 62 67 68 68 65 61 63 71 75 79 84 82 80
21 20 21 20 23 25 27 30 30 31 31 31 34 37 40 43 46 52 59 54 59 57 58 58 58 60 63 62 61 59 57 64 63 60 54 67 74 76 79 86 81 79 84

GFSSE_250_spd_063.txt.gz
Wind_Speed
76 76 74 72 72 74 77 75 73 72 75 76 79 76 77 78 78 77 79 78 79 78 79 82 84 83 86 84 83 80 79 79 77 75 75 75 75 74 74 72 71 72 72
75 74 71 69 69 71 73 74 69 66 72 71 75 74 71 71 69 69 67 64 66 68 74 80 79 84 88 87 84 83 82 82 82 83 80 78 78 76 77 75 74 74 75
72 71 72 72 72 74 74 70 69 68 66 68 67 68 70 67 65 59 57 61 65 66 70 74 77 80 81 82 84 83 84 86 86 83 83 82 81 79 78 75 76 77 76
68 69 69 68 67 70 70 70 71 66 65 66 65 62 64 60 55 51 57 57 63 68 67 67 71 76 77 77 75 77 80 82 83 83 80 83 81 80 76 75 78 74 72
66 62 67 64 62 66 64 69 66 66 66 63 58 56 56 49 50 45 53 56 56 58 64 61 65 70 72 71 71 70 68 63 66 68 73 75 72 75 75 76 74 62 63
60 61 36 53 55 59 62 66 64 60 61 60 52 50 48 35 33 47 44 41 40 34 40 37 38 51 53 57 56 44 46 41 48 60 62 56 59 62 52 59 53 48 52
51 48 44 56 54 49 51 53 52 50 50 54 51 41 36 32 28 39 33 27 28 27 21 16 19 25 28 22 25 23 24 25 17 23 31 32 33 38 43 45 44 42 41
33 37 39 48 50 46 37 40 40 40 48 49 41 41 33 28 35 35 32 29 28 35 8 5 4 10 6 12 4 8 10 16 24 25 29 28 33 35 37 38 38 39 36
21 27 31 33 37 39 32 37 33 30 35 34 38 37 37 31 35 38 32 31 30 29 20 17 12 6 8 11 14 17 27 26 32 38 33 32 33 31 32 33 33 34 33
29 27 19 25 20 26 29 32 34 36 36 32 27 32 35 37 35 31 34 30 29 28 29 24 19 20 14 20 22 30 29 32 34 33 33 29 29 32 30 30 33 33 33
17 15 18 23 21 26 29 33 43 38 34 31 31 37 33 30 32 38 33 30 28 33 31 28 27 28 26 26 29 31 31 29 32 32 33 32 31 31 30 31 28 29 34
22 34 24 21 25 29 29 35 41 39 39 41 39 36 32 27 30 42 40 35 34 36 39 36 33 35 31 36 36 31 32 31 32 34 31 32 30 31 32 31 37 37 39
35 33 32 48 20 21 24 27 32 34 39 43 40 40 39 30 36 45 42 42 39 39 42 42 39 41 39 33 36 31 31 30 27 32 31 30 30 32 35 37 40 40 45
29 28 40 40 45 36 31 32 39 37 39 40 44 41 40 42 40 44 46 45 39 37 39 43 43 42 37 35 34 34 34 30 34 34 31 30 35 37 40 44 43 45 48
33 42 30 25 30 43 46 40 46 39 37 40 41 38 39 41 45 47 48 43 39 36 26 36 42 45 44 42 41 36 36 36 38 38 36 38 39 42 45 47 47 51 55
35 37 28 28 35 41 44 48 46 46 44 37 35 39 40 42 41 42 42 43 45 42 39 42 40 39 40 44 36 38 38 37 41 40 42 44 46 51 48 51 51 57 60
35 41 32 41 41 40 44 44 49 47 44 46 40 39 45 48 47 48 51 50 54 51 50 46 40 38 39 42 44 42 42 42 39 52 45 50 50 51 52 53 55 59 57
43 39 35 32 38 41 43 45 47 48 51 46 39 39 42 43 42 43 44 45 43 43 44 44 41 40 41 41 47 44 48 52 54 56 54 51 50 51 53 56 57 58 56
43 44 43 35 43 38 42 35 40 50 47 47 46 37 41 34 33 39 44 46 48 41 41 41 43 45 48 51 55 56 58 56 55 56 54 50 49 51 54 55 54 56 59
44 47 42 38 42 45 43 36 33 43 53 48 44 46 52 52 50 47 51 52 54 49 51 52 57 61 65 65 61 59 48 51 54 52 49 50 52 55 53 51 53 55 58
51 48 53 47 42 42 47 47 38 37 38 51 51 44 46 44 45 48 54 59 59 62 63 61 62 66 67 64 51 52 65 68 59 52 52 53 53 53 52 57 59 63 59
58 56 52 51 56 50 47 46 46 46 48 43 50 53 54 57 61 57 59 59 63 65 65 67 70 63 60 56 56 57 59 57 53 50 51 49 51 56 61 63 62 55 61
62 65 59 57 56 59 56 53 51 49 48 51 53 50 53 54 59 62 62 67 62 61 64 63 59 49 51 51 52 48 52 55 53 55 57 58 57 61 61 57 54 62 66
38 40 62 56 58 61 58 60 61 62 55 53 55 57 61 58 57 61 67 63 48 57 52 52 41 46 47 48 49 53 61 58 53 59 63 62 61 57 51 57 64 69 71
25 27 34 41 57 59 61 62 62 57 64 62 63 59 61 65 59 52 51 53 50 44 42 44 44 47 49 51 58 55 57 59 62 63 62 54 49 50 56 61 67 73 77
20 25 24 26 29 28 31 40 49 54 60 65 60 62 59 54 46 39 38 38 40 41 41 46 50 53 53 57 53 55 59 57 54 52 46 44 53 60 63 67 73 76 76

GFSSE_250_spd_066.txt.gz
Wind_Speed
75 75 78 77 76 76 77 75 76 77 74 77 75 76 77 77 78 77 76 76 77 76 79 79 81 80 82 83 85 85 85 84 83 83 79 78 78 77 75 74 75 75 74
71 72 73 73 72 72 71 71 73 75 70 72 71 71 72 73 75 75 75 71 68 66 67 68 69 75 78 83 84 81 84 84 84 84 82 82 81 79 78 80 81 80 77
69 68 71 70 70 70 71 71 72 73 70 68 68 68 67 67 72 71 69 69 63 60 58 60 68 72 73 79 76 78 79 82 82 80 83 83 82 81 78 78 78 78 75
67 68 70 68 66 69 69 69 71 72 71 66 64 66 67 65 66 68 65 62 61 57 62 62 61 61 63 66 67 68 71 71 74 73 70 67 68 71 77 71 67 63 70
69 66 64 63 62 60 63 71 75 73 76 72 69 70 66 63 64 63 59 54 46 44 53 50 54 56 53 59 64 67 64 66 67 53 64 71 69 63 58 61 59 55 55
63 55 54 51 49 48 59 67 69 70 70 67 65 64 66 61 57 57 47 41 41 39 45 48 42 44 45 43 50 54 56 49 53 39 39 44 39 46 51 54 48 46 43
53 43 44 42 41 42 48 59 62 62 70 64 57 58 57 58 49 44 42 35 34 30 29 26 18 15 25 27 29 27 24 20 20 12 16 20 19 28 31 34 37 37 34
34 30 32 33 43 59 55 40 50 50 53 48 46 52 49 50 43 37 32 35 27 32 25 17 9 8 10 12 10 8 9 10 5 12 15 17 22 20 24 32 31 33 30
20 19 28 28 44 46 38 32 34 30 35 37 37 40 43 43 39 33 29 32 28 33 29 23 20 14 7 8 7 9 15 17 16 15 17 23 24 24 24 26 30 30 29
21 26 28 27 36 44 47 43 35 22 18 22 32 39 36 33 35 34 37 33 32 36 34 29 21 20 23 13 16 17 20 29 26 24 22 25 28 26 27 25 28 29 31
20 27 22 22 23 29 33 40 39 34 24 21 25 31 37 39 37 33 34 32 37 33 30 31 30 24 30 27 25 24 29 27 24 24 19 30 26 31 28 27 29 31 29
15 23 27 22 17 25 34 34 36 35 26 21 21 21 28 33 32 33 35 37 33 34 25 28 31 34 36 35 35 32 32 36 34 27 27 23 22 27 25 31 32 36 37
23 23 27 23 30 31 28 34 34 33 25 22 22 21 28 33 36 32 34 36 36 32 35 31 33 38 41 39 35 34 40 43 34 27 27 23 24 26 27 33 34 39 39
25 23 32 30 32 42 37 27 27 25 27 28 32 33 32 30 36 35 33 35 37 36 34 36 37 42 36 38 37 43 44 37 31 32 31 31 28 27 36 35 41 42 42
27 47 41 37 36 34 32 34 33 29 36 26 37 39 38 36 34 33 36 37 40 40 37 35 35 38 40 40 40 40 35 30 38 35 37 37 29 38 40 43 46 46 45
32 42 29 26 32 39 42 38 29 34 34 31 32 38 38 38 39 38 42 42 40 41 36 37 37 42 44 41 39 35 36 36 40 38 41 38 46 44 49 50 49 48 45
29 35 35 26 31 37 36 40 38 36 38 35 36 35 37 37 40 40 43 40 41 41 40 42 47 46 44 38 35 38 38 39 40 44 42 50 55 49 53 54 48 45 48
31 31 33 32 27 34 38 43 37 39 38 41 38 34 35 35 33 35 40 42 44 46 46 42 40 43 42 44 36 38 40 43 46 52 52 60 51 57 49 48 47 50 52
36 33 31 33 38 35 39 41 42 42 42 45 45 44 37 36 37 37 41 42 41 42 41 40 42 43 45 42 42 45 48 56 57 58 56 53 55 52 50 49 51 53 55
42 39 41 34 44 38 39 48 46 44 45 45 49 48 42 41 38 38 38 38 40 45 46 46 47 50 51 51 51 57 60 59 60 51 53 56 50 47 51 52 53 53 57
44 47 49 42 43 34 38 42 47 48 42 38 48 50 48 43 43 42 38 39 44 46 48 50 52 56 57 58 62 61 60 59 52 51 52 52 47 52 51 51 52 56 56
52 52 47 51 44 52 39 39 45 44 38 35 42 39 49 48 41 38 36 40 46 47 51 53 56 61 64 65 66 66 58 52 54 52 51 50 53 50 50 54 54 61 64
52 55 57 53 49 50 48 44 45 41 46 41 42 40 45 51 56 57 54 52 52 57 56 58 60 59 56 54 50 50 45 52 50 52 53 52 52 52 52 58 64 63 60
35 48 56 59 60 56 51 46 49 53 47 49 48 45 42 43 44 49 51 54 57 61 60 59 59 51 47 51 47 47 51 49 51 53 53 52 50 57 59 60 55 53 54
31 33 39 56 57 63 64 62 56 58 55 53 49 55 51 55 51 49 53 58 55 56 63 59 53 49 48 49 49 50 50 51 53 52 54 56 60 55 48 48 48 51 52
20 29 28 31 37 47 60 55 62 63 59 59 59 57 54 55 60 63 59 58 55 53 48 48 47 47 46 49 51 54 54 52 50 49 52 50 45 43 44 45 49 54 56

GFSSE_250_spd_069.txt.gz
Wind_Speed
76 78 79 81 81 81 81 81 79 78 80 79 79 77 77 77 77 76 76 77 77 76 77 77 78 78 77 79 81 82 82 82 82 80 81 82 82 83 83 84 82 81 81
69 73 74 77 77 77 78 76 75 75 76 77 74 75 74 75 73 73 73 74 74 74 75 75 75 75 73 73 76 79 80 80 81 81 81 82 81 80 80 81 80 78 77
66 69 66 73 72 73 72 70 69 69 70 70 69 70 69 67 72 70 68 68 68 67 66 64 64 63 65 67 67 65 66 68 69 71 70 71 70 71 72 76 77 78 76
64 67 68 69 70 69 67 64 63 65 67 68 67 67 63 62 66 65 63 62 61 61 59 59 59 56 58 60 63 61 62 60 63 64 64 66 68 67 66 64 57 65 69
65 65 63 65 66 61 58 57 58 60 65 68 66 65 63 59 62 64 63 63 60 55 53 49 43 49 53 57 57 58 56 58 57 54 54 52 54 54 55 54 59 57 55
59 59 58 55 56 50 46 47 49 50 57 65 63 65 68 64 64 65 63 63 56 49 47 46 47 49 44 48 49 48 40 41 42 42 39 38 45 43 41 41 39 44 43
51 50 47 42 38 33 23 31 25 41 43 52 53 61 62 63 64 63 64 60 53 45 36 36 26 28 20 26 17 20 22 24 24 28 16 10 17 19 24 24 28 31 30
45 40 37 26 35 38 48 29 28 38 56 49 52 47 59 55 55 55 50 52 47 37 40 21 24 19 9 8 8 3 3 12 4 6 13 10 6 12 10 14 21 23 25
33 25 30 33 40 37 47 42 34 56 51 50 47 39 39 42 49 50 38 41 37 33 28 24 26 22 14 8 6 7 8 7 11 14 21 22 21 13 15 20 18 20 22
20 19 18 23 32 37 57 60 59 40 39 38 33 33 38 40 45 45 40 34 32 31 23 28 34 28 24 16 15 12 17 19 18 20 22 22 26 20 19 26 20 22 26
13 15 14 18 24 40 66 73 62 42 35 32 21 23 34 36 35 39 42 35 32 34 25 32 36 34 27 21 23 25 26 25 25 30 30 25 27 26 22 25 21 22 27
6 22 22 17 37 40 62 66 55 52 40 29 23 21 27 34 31 33 30 33 29 28 30 38 37 33 32 31 30 31 27 29 30 32 30 30 28 29 29 30 29 28 31
14 17 27 24 30 46 57 53 47 39 40 36 15 12 11 22 29 27 27 25 28 30 38 37 32 29 29 33 34 30 30 31 31 33 26 30 30 30 36 40 31 35 34
24 24 22 26 27 35 54 56 51 47 42 32 21 17 16 14 19 25 25 31 32 38 39 33 34 26 30 33 35 31 33 31 31 30 33 31 33 34 38 33 35 44 40
28 27 25 22 29 32 38 44 45 45 37 33 26 25 23 21 21 30 27 33 41 38 36 36 30 33 33 39 39 36 34 32 31 36 36 35 37 39 38 43 46 49 51
21 26 29 37 32 32 41 44 44 38 33 29 32 34 34 29 24 30 31 36 34 31 33 34 37 41 40 42 40 34 34 33 36 38 36 35 37 38 46 49 53 48 55
27 27 41 30 30 26 43 41 42 34 35 34 31 34 35 35 30 31 29 30 33 34 37 38 38 35 36 39 36 38 40 38 39 39 36 38 42 50 52 51 49 56 48
28 39 35 33 38 34 41 41 43 36 35 40 30 32 34 34 37 37 35 35 38 40 42 40 41 39 39 38 38 41 41 44 41 39 42 46 51 54 54 51 51 52 51
38 44 36 31 28 25 41 38 46 34 40 36 31 31 29 32 31 30 29 28 32 37 40 41 39 32 37 42 42 44 47 43 46 47 50 56 58 60 55 50 48 49 52
40 40 36 35 32 31 36 42 43 42 42 38 35 36 36 33 33 32 30 30 33 36 37 36 36 38 41 46 47 46 49 51 53 56 56 62 60 53 50 49 48 53 55
47 45 44 36 35 36 36 45 48 44 43 45 43 44 44 40 36 36 35 36 36 38 36 40 39 39 42 46 54 56 58 59 60 60 61 57 52 52 51 52 53 57 56
51 50 45 50 35 33 42 39 43 49 52 46 44 44 49 50 48 43 41 42 38 36 31 35 39 46 49 55 58 62 62 61 58 57 53 49 51 53 54 56 56 54 54
51 58 54 50 51 38 39 48 48 47 46 53 51 47 48 50 50 53 45 42 39 39 44 44 46 50 58 60 62 62 61 58 56 51 49 52 56 55 56 54 55 55 59
46 54 62 55 53 57 48 47 50 43 51 47 43 43 42 41 43 40 45 46 49 52 55 50 52 55 62 64 58 63 59 52 50 50 53 56 57 58 59 54 53 56 57
25 45 50 63 58 55 55 58 52 58 49 46 47 47 42 45 45 47 44 44 44 47 47 49 54 57 63 60 61 54 49 50 52 53 57 59 57 53 51 54 55 56 56
12 17 38 46 56 59 63 63 60 55 60 53 55 53 57 51 49 51 52 52 52 55 57 60 60 59 59 59 53 50 51 50 51 56 57 50 50 52 51 53 54 54 48

GFSSE_250_spd_072.txt.gz
Wind_Speed
71 71 72 75 75 76 77 78 79 79 78 79 79 79 81 81 79 77 77 76 78 77 77 78 77 78 78 79 78 78 78 78 78 78 78 78 77 77 78 79 81 80 79
65 69 68 69 71 72 74 76 75 75 75 77 76 76 78 79 78 76 75 76 77 77 77 76 76 76 77 77 78 76 77 77 74 77 78 77 77 78 78 80 79 75 73
63 68 67 67 69 71 70 69 69 70 70 69 71 70 71 71 70 71 71 71 72 74 74 73 72 72 72 70 71 70 72 71 72 71 72 72 73 70 65 64 63 65 68
57 62 63 65 65 64 64 64 62 61 62 62 63 63 63 65 63 62 60 64 63 62 63 61 62 62 62 60 61 60 64 67 65 66 65 66 67 64 64 55 52 55 61
57 59 63 61 61 59 59 55 53 52 52 54 53 54 55 56 58 58 57 58 60 58 58 57 54 51 52 53 53 55 54 55 57 48 52 56 55 52 51 46 46 47 50
55 57 56 58 55 53 49 45 34 37 39 41 44 42 43 40 45 51 55 57 60 56 58 56 52 49 45 43 43 42 48 41 34 29 35 35 36 36 35 35 38 38 39
53 53 54 53 47 44 37 26 14 21 31 41 36 32 30 35 34 41 52 58 59 58 56 52 51 44 32 31 24 30 24 19 20 24 26 25 13 17 13 13 22 13 15
49 45 47 44 40 30 28 38 40 32 28 36 38 38 37 34 40 42 45 56 58 58 58 51 45 34 30 15 10 12 11 10 11 4 10 10 12 12 10 13 11 13 12
42 37 36 34 28 27 36 53 55 46 39 30 45 41 40 45 46 42 46 48 49 49 46 38 32 28 24 20 13 9 10 6 10 6 7 11 12 16 17 20 24 15 18
30 31 24 26 30 30 46 63 57 61 52 56 38 37 47 48 45 40 38 41 42 41 32 31 30 29 25 23 22 17 15 14 18 18 23 22 25 24 23 23 24 27 23
22 24 21 20 28 38 56 49 51 53 53 62 46 39 39 38 31 37 38 36 39 29 29 28 28 28 29 23 22 22 18 17 18 19 24 23 22 24 23 27 27 27 25
22 19 18 18 21 28 43 47 47 42 48 50 46 43 41 28 28 31 33 37 44 29 29 32 22 28 29 25 23 28 24 20 21 23 22 24 21 23 29 29 31 31 29
15 21 23 19 24 29 44 56 50 56 50 43 36 37 30 25 25 26 27 33 35 35 30 32 26 30 35 29 34 34 28 27 31 28 25 23 27 30 28 32 33 34 34
20 19 27 23 28 36 42 69 59 61 50 43 35 30 27 16 14 14 21 25 32 32 34 32 24 34 36 28 27 30 33 30 29 26 25 29 30 32 32 35 36 39 37
20 23 24 25 39 45 46 60 66 62 54 41 36 31 24 20 15 19 23 29 33 36 35 25 36 37 26 21 27 26 29 36 39 34 33 30 31 36 36 36 36 36 45
19 26 20 29 43 48 57 56 64 51 48 37 34 31 24 19 23 30 28 30 32 30 27 37 35 30 21 27 34 38 38 40 34 33 30 34 35 38 39 38 40 46 50
15 32 29 22 33 45 57 61 64 58 47 44 43 42 29 23 23 22 27 29 29 29 30 39 28 27 28 28 31 32 33 30 31 31 36 40 38 41 42 40 49 52 53
22 24 28 32 29 33 53 62 68 65 60 50 47 39 39 35 31 27 27 25 28 27 33 28 28 27 30 32 32 32 34 33 33 35 37 40 42 42 46 51 53 54 50
23 26 27 44 33 31 26 40 58 66 58 54 51 42 39 38 34 32 29 29 26 27 28 29 33 32 28 31 35 37 38 38 37 39 43 44 46 50 53 54 55 58 50
24 28 42 46 36 36 21 37 43 52 47 44 42 39 33 34 35 34 31 33 33 34 33 28 28 32 33 39 39 42 43 40 42 45 50 52 55 59 58 59 59 53 52
31 35 46 41 39 38 26 41 46 44 42 49 41 43 38 39 37 31 30 29 30 25 30 29 33 40 40 35 40 41 44 45 46 49 52 57 60 62 57 58 54 53 54
40 42 49 42 44 42 33 29 48 49 49 47 42 48 45 39 41 35 35 34 33 32 34 34 37 40 36 39 45 47 48 55 59 58 60 63 66 51 52 51 52 54 53
37 40 54 49 44 51 40 36 40 45 48 52 51 48 46 45 42 43 39 35 34 36 34 38 39 39 40 46 48 50 54 60 62 65 67 63 49 46 46 47 49 55 61
16 49 49 56 56 43 50 42 42 44 50 49 48 47 44 39 44 44 48 50 50 51 51 50 49 46 53 54 57 55 58 63 64 63 58 54 45 45 46 51 57 55 59
10 18 55 57 57 56 45 42 46 44 48 52 53 55 54 51 45 47 46 51 51 53 48 51 47 53 55 57 56 56 58 61 63 62 58 43 45 45 48 58 64 61 56
14 8 14 50 58 61 57 59 52 45 49 56 55 56 59 53 53 50 49 45 44 47 49 54 54 54 58 59 61 62 61 64 62 56 43 43 48 56 55 55 53 55 57

GFSSE_250_spd_075.txt.gz
Wind_Speed
69 70 72 74 75 78 78 76 74 74 75 77 77 78 79 78 77 79 78 78 78 79 76 78 77 77 77 79 79 78 79 79 79 78 79 78 79 79 77 78 78 78 78
61 67 67 69 71 72 73 74 74 73 73 74 74 76 77 77 78 78 78 79 79 79 78 77 76 75 76 75 76 77 78 78 78 78 78 79 76 78 76 75 74 76 78
61 61 61 63 64 67 70 71 70 69 69 68 67 66 67 69 70 71 73 72 74 75 76 77 75 73 71 71 71 72 73 74 72 73 73 73 72 72 74 75 73 71 67
54 59 58 60 60 61 63 64 65 61 57 56 55 54 53 56 57 59 62 64 66 66 66 67 66 65 64 63 63 63 65 60 64 64 61 59 60 61 62 56 55 55 53
49 56 59 59 60 59 58 58 55 52 50 45 44 44 42 44 45 46 52 54 55 55 55 54 55 56 54 53 52 53 54 52 50 52 50 48 42 40 41 43 43 42 41
47 50 58 55 56 53 47 44 42 40 35 31 26 28 32 34 39 37 39 40 42 45 46 46 47 49 47 48 46 43 41 43 40 34 29 29 34 35 32 31 31 31 32
48 50 51 49 47 46 37 26 25 17 13 16 19 25 27 32 32 31 36 38 37 40 44 45 45 48 44 43 37 34 32 31 20 22 24 26 28 19 14 11 10 11 9
48 49 49 42 40 36 27 24 18 18 18 28 21 27 37 33 31 31 31 33 32 33 41 46 46 46 42 37 31 21 14 5 13 8 10 10 8 7 11 9 14 15 14
42 44 42 37 32 31 29 35 40 34 43 45 32 26 41 36 41 40 37 33 32 33 40 46 48 46 34 30 22 20 13 10 9 8 8 8 9 8 12 13 14 18 15
42 35 34 32 27 28 30 42 53 53 55 52 44 42 42 45 43 38 37 38 39 39 38 43 38 34 30 25 29 24 20 22 18 4 11 15 15 16 17 14 16 19 19
36 29 25 23 22 27 28 46 62 63 59 58 50 40 54 47 38 38 36 33 35 39 39 36 31 27 25 29 28 25 25 25 21 11 12 15 15 15 15 20 19 22 23
30 24 19 12 17 19 32 44 65 64 65 63 48 56 47 44 43 39 31 34 38 39 39 33 28 28 30 31 28 27 27 26 19 18 14 20 20 19 16 20 23 26 27
22 17 16 20 22 21 32 46 66 69 64 59 50 61 41 47 47 44 33 30 31 39 33 29 30 31 29 31 31 28 26 23 23 21 18 20 18 21 21 22 27 28 32
22 18 17 25 27 27 35 49 65 60 69 57 51 60 48 37 33 40 38 31 27 27 27 28 30 31 27 32 29 27 23 21 20 21 20 17 21 21 24 26 30 32 32
23 22 21 26 27 28 32 49 65 69 64 51 53 64 54 43 37 29 28 26 23 23 27 31 38 32 28 31 26 23 20 21 23 26 29 29 26 25 29 33 33 36 39
24 24 21 24 30 29 32 46 59 65 63 63 60 53 48 46 33 28 32 27 26 25 36 42 39 37 29 32 25 22 21 24 24 27 32 26 27 29 34 36 38 39 42
24 23 23 20 32 27 35 38 58 58 66 66 61 48 46 46 28 26 21 22 24 28 29 38 46 41 32 33 21 24 22 24 22 23 27 30 31 32 36 38 39 41 45
22 26 24 22 29 27 35 36 51 55 54 58 63 51 35 41 40 31 31 27 27 29 33 38 41 32 34 29 24 24 29 25 25 30 31 34 32 36 39 41 45 48 52
26 25 21 25 27 30 41 38 50 59 57 55 53 51 47 41 36 35 33 28 27 29 31 32 31 29 27 29 25 27 29 31 29 33 36 35 36 40 44 46 48 54 57
28 27 25 26 30 34 36 44 54 56 53 56 53 48 41 38 33 30 25 25 26 31 32 26 29 27 32 31 31 32 32 35 36 39 38 41 42 44 50 54 56 59 59
32 27 27 25 35 37 41 33 43 59 57 56 59 54 41 40 31 34 30 30 33 33 31 28 28 31 31 32 35 33 37 37 42 43 45 46 50 50 54 58 62 63 68
24 34 26 28 40 41 37 28 37 48 47 56 60 61 51 39 35 30 33 37 40 37 31 33 29 31 33 37 39 38 41 44 45 46 50 54 52 56 59 60 62 66 54
14 35 34 33 46 45 35 31 33 41 42 45 44 43 40 40 41 41 37 35 40 33 34 34 38 40 40 40 40 44 45 48 48 55 54 54 56 59 65 67 65 53 46
9 19 39 40 51 48 43 39 33 39 37 39 46 47 50 53 39 44 47 43 43 48 42 36 36 35 37 40 44 51 54 54 55 58 55 57 60 63 64 60 61 48 46
15 12 16 48 48 55 43 48 41 35 42 50 50 48 49 55 60 51 49 53 51 51 50 51 53 53 50 51 52 54 56 57 57 58 60 60 65 63 61 61 50 50 51
14 15 11 21 50 55 52 47 45 42 46 44 45 55 53 57 57 52 52 46 44 46 49 49 50 53 56 55 57 58 59 60 61 64 63 65 63 60 60 59 52 51 52

GFSSE_250_spd_078.txt.gz
Wind_Speed
65 67 71 74 76 77 77 76 77 78 78 77 77 76 75 78 79 80 81 81 80 79 80 80 80 79 78 78 79 80 80 80 80 80 79 79 79 80 79 79 78 79 80
60 66 66 68 70 72 75 76 76 73 74 76 76 76 75 77 79 80 80 80 79 79 81 80 78 77 75 76 77 76 77 78 78 78 78 78 77 77 78 78 77 77 78
59 61 63 65 67 68 67 68 70 72 69 68 68 68 68 68 68 70 73 74 75 76 76 76 76 75 74 73 73 73 73 73 75 74 72 74 72 72 70 69 68 62 63
54 58 59 59 63 65 66 67 65 66 67 65 63 61 56 54 52 53 55 58 62 64 65 66 65 65 65 63 63 63 65 66 63 60 61 60 61 59 55 50 50 48 47
54 56 54 53 55 60 61 63 63 61 58 55 51 47 40 41 43 43 43 44 47 49 50 52 54 52 51 52 53 52 51 49 50 51 49 47 42 38 35 39 41 41 40
49 52 52 48 50 53 52 55 55 50 45 42 37 32 27 28 29 29 29 31 34 37 39 40 39 39 40 43 46 43 43 44 42 39 33 26 29 30 29 29 27 25 22
46 46 47 46 45 46 46 42 40 30 24 27 22 22 22 18 20 22 24 30 31 30 32 31 32 32 35 41 42 41 42 33 29 28 23 25 24 24 24 14 10 6 8
42 45 46 45 42 43 38 30 17 20 18 15 17 17 17 22 20 25 25 30 27 28 28 26 23 24 31 39 40 33 33 25 17 14 13 11 15 17 11 6 9 10 10
42 43 45 44 40 38 32 25 31 33 21 24 35 23 13 16 29 26 28 24 30 29 23 22 22 26 34 43 40 32 28 24 17 12 13 13 10 7 10 13 11 8 11
41 43 44 42 39 32 28 33 35 47 45 51 61 38 31 23 35 32 38 34 30 35 28 27 27 29 39 40 37 35 28 27 24 13 16 13 14 10 9 11 9 15 12
42 41 40 41 34 29 27 35 37 52 56 60 55 41 32 34 39 39 43 38 25 31 33 29 28 34 40 35 32 28 32 29 26 19 20 15 17 12 10 14 16 13 14
44 43 37 34 29 21 23 35 42 54 61 60 54 52 37 39 43 37 44 36 23 19 25 25 27 33 36 30 31 31 33 25 23 18 17 17 17 11 13 12 16 16 20
44 40 34 28 24 23 25 32 43 52 65 56 59 60 56 42 43 48 48 44 36 32 23 25 34 34 30 29 33 36 32 29 26 18 14 17 17 13 16 17 19 21 23
43 37 31 24 21 26 28 33 40 47 60 53 59 60 56 48 44 51 45 44 46 43 30 29 29 31 32 36 38 35 33 34 35 20 20 20 18 20 20 17 21 25 28
38 34 28 22 18 28 28 33 35 35 58 57 61 57 54 52 52 45 43 35 32 34 33 31 25 34 33 36 35 38 36 31 23 19 19 22 22 22 20 22 23 28 32
34 28 29 22 15 28 26 31 29 35 59 65 63 55 56 48 49 42 32 26 19 15 25 25 30 28 31 33 35 37 36 26 21 21 22 22 19 21 23 26 31 33 34
33 27 32 20 19 25 28 28 26 38 60 58 59 48 44 56 48 37 28 25 19 28 26 24 24 28 38 37 39 39 36 24 22 23 22 22 21 25 28 32 34 37 38
29 23 28 22 17 24 28 26 25 39 51 64 62 44 59 52 55 50 38 37 34 33 33 25 28 30 43 40 42 39 36 26 26 25 25 28 26 28 33 35 39 42 42
25 21 28 24 21 23 27 26 26 36 56 61 55 61 62 54 45 43 38 34 29 24 28 29 26 34 43 45 40 40 37 28 28 29 30 29 31 32 37 41 41 45 49
22 20 28 25 20 25 25 23 29 31 56 62 60 59 58 60 50 39 30 28 32 29 29 25 25 36 37 46 42 41 33 32 33 32 34 35 35 39 44 46 46 50 51
18 16 29 29 28 24 28 21 30 34 47 56 63 61 59 59 60 47 37 35 34 35 28 29 29 30 34 42 35 37 40 40 38 40 42 39 41 46 48 51 53 52 53
19 15 24 30 30 22 29 28 36 41 48 53 55 52 56 52 52 41 37 34 34 32 29 32 34 36 30 35 39 38 38 47 42 41 40 42 45 50 53 57 55 56 58
14 17 14 32 29 25 27 31 34 38 50 53 49 54 52 55 54 48 46 44 32 33 33 35 38 39 35 39 38 39 43 46 43 43 47 48 53 56 58 57 56 60 63
12 12 10 25 30 29 26 37 36 37 42 54 53 53 49 53 50 52 53 50 37 34 27 32 38 43 40 40 42 44 47 46 46 51 53 56 57 56 58 59 62 65 67
9 12 11 11 34 35 32 38 39 33 29 42 48 54 49 53 56 56 46 41 41 38 41 42 44 46 50 54 47 46 44 52 52 52 57 57 62 61 60 64 67 68 67
7 10 11 11 8 36 38 45 45 38 33 29 35 40 41 50 57 47 48 48 50 48 47 52 55 54 55 54 57 55 54 53 55 57 58 60 61 63 65 70 76 74 70

GFSSE_250_spd_081.txt.gz
Wind_Speed
63 64 62 63 65 65 66 68 69 72 74 74 74 76 77 78 80 84 84 83 82 82 81 81 81 82 81 81 81 80 79 80 79 79 79 80 81 81 81 82 81 80 79
56 54 56 56 57 60 61 65 68 68 69 71 72 73 75 78 79 80 82 83 83 82 83 81 80 81 81 82 81 80 79 78 77 78 77 78 78 79 79 79 78 80 80
53 55 56 55 54 59 61 62 64 66 68 67 68 68 70 71 73 76 78 76 77 79 80 80 79 79 80 79 79 79 77 74 73 74 74 75 74 75 74 76 76 75 68
50 49 51 52 54 59 61 62 62 64 64 64 64 62 57 60 61 63 65 66 69 66 65 67 67 68 68 70 70 70 68 65 63 63 64 64 64 65 64 59 56 51 50
56 53 48 50 55 57 56 58 59 60 60 60 56 52 47 48 47 48 51 53 54 55 54 52 51 53 54 54 56 54 51 50 51 51 52 54 51 49 45 38 39 39 41
54 53 54 54 51 51 52 53 52 53 50 48 45 42 41 39 34 38 41 43 43 39 38 39 41 42 42 42 43 40 39 40 42 43 44 39 36 33 32 32 32 30 29
53 55 56 53 52 51 51 48 45 43 37 34 31 31 35 30 28 28 25 31 29 24 26 28 32 34 33 32 33 34 36 37 38 38 34 32 28 26 28 27 25 23 15
53 53 54 51 50 50 48 40 35 31 28 25 28 27 27 27 23 16 13 17 21 22 21 24 24 25 26 25 26 29 30 34 34 31 26 27 19 18 20 21 14 13 10
57 54 52 51 48 46 43 37 32 31 29 27 24 26 27 28 30 27 23 21 19 14 21 24 24 22 16 15 24 29 32 32 29 26 22 19 16 11 15 17 15 15 13
52 51 50 50 49 46 38 32 28 33 36 38 27 28 30 27 32 25 22 24 24 21 13 19 22 21 21 21 26 31 34 35 31 26 23 21 17 14 15 16 18 15 14
52 48 49 48 49 43 36 29 26 32 40 46 37 44 40 33 27 30 28 28 30 24 17 18 22 26 25 27 28 33 34 32 32 32 29 22 20 15 15 16 16 16 17
50 48 47 46 49 43 34 27 28 32 46 51 48 47 50 43 35 39 36 33 27 25 22 12 18 23 27 28 32 35 35 31 32 34 31 25 24 19 19 16 15 18 18
47 46 40 45 46 42 30 29 35 41 49 55 55 55 54 46 38 43 38 31 30 24 21 19 23 23 25 27 31 37 34 32 35 30 26 25 25 22 19 18 19 18 18
40 37 39 45 41 36 29 33 38 44 48 50 62 59 52 42 40 43 39 36 36 34 35 33 35 33 29 29 31 33 33 35 34 34 26 25 22 19 20 20 19 22 24
35 36 40 41 39 30 24 34 36 42 46 50 59 60 50 49 46 38 38 39 43 33 34 34 29 32 29 24 28 34 36 35 38 34 31 24 25 23 21 23 21 21 26
32 37 39 37 37 26 21 25 33 33 36 49 51 56 57 54 39 38 36 34 38 31 15 15 23 23 24 24 26 33 39 34 38 39 36 28 26 23 22 22 22 26 29
33 36 35 35 30 27 20 19 30 35 30 34 44 51 54 55 52 39 39 38 33 30 17 18 16 15 19 25 27 33 40 39 38 36 30 27 25 24 23 23 28 29 33
33 32 34 32 25 26 21 19 25 21 21 29 39 50 45 50 53 49 44 42 35 25 28 32 26 27 26 30 32 39 40 41 40 37 29 23 24 28 29 29 30 31 36
30 28 32 27 24 26 20 19 22 19 18 27 43 48 51 50 51 43 44 43 39 40 40 20 21 30 29 26 30 44 40 40 41 36 28 26 29 31 30 34 34 36 41
23 26 27 22 27 22 22 18 20 20 17 30 40 47 46 54 47 44 49 37 36 40 26 25 24 27 23 24 33 42 39 40 40 41 35 33 32 33 38 38 39 40 45
20 26 23 19 28 22 19 19 18 20 19 29 41 47 51 49 47 55 48 39 38 26 24 26 29 30 20 21 22 34 40 39 41 45 41 42 40 39 43 42 44 45 52
19 20 20 16 27 26 21 21 17 20 19 29 39 52 47 51 53 54 44 45 38 29 28 31 31 26 25 25 22 29 37 38 40 44 42 46 43 44 46 48 50 53 56
10 15 17 12 23 28 22 20 22 23 26 25 31 52 56 57 61 60 57 46 39 42 34 33 35 30 27 30 31 36 37 43 42 44 47 50 49 48 52 51 56 55 58
11 11 15 12 13 27 25 20 26 28 33 33 37 45 50 59 54 57 61 55 45 42 40 38 33 34 30 37 38 41 37 44 46 48 47 50 48 57 55 55 58 58 61
14 9 10 12 7 26 28 23 19 30 35 38 36 43 48 50 49 49 51 50 50 45 44 41 35 34 33 32 37 43 42 44 49 52 53 53 56 57 56 60 62 61 65
16 10 8 10 13 7 29 31 28 29 33 35 34 41 46 52 48 51 53 53 50 52 48 45 44 43 45 41 41 45 46 48 56 58 58 59 57 60 60 62 64 68 69

GFSSE_250_spd_084.txt.gz
Wind_Speed
57 57 57 57 58 59 60 60 62 66 66 66 67 69 72 73 77 80 81 81 82 83 82 83 83 83 82 81 81 82 82 81 81 81 81 80 80 80 79 80 81 82 80
54 52 51 51 49 52 54 56 56 58 59 61 60 63 66 68 72 75 80 79 80 83 85 83 82 83 82 82 82 83 82 82 82 81 81 80 79 79 79 80 78 80 78
54 50 50 49 48 50 51 51 52 53 54 54 55 57 59 63 64 65 70 72 75 78 80 82 84 84 83 82 82 82 82 82 80 79 79 78 78 76 77 76 76 75 74
58 57 54 51 50 48 49 47 47 49 49 51 52 53 53 54 55 57 59 61 65 68 70 77 74 74 76 78 77 76 75 76 75 72 70 71 70 70 72 67 67 62 62
63 63 59 54 52 50 49 51 49 47 46 49 49 49 49 47 49 51 50 50 52 55 60 60 60 63 63 62 62 59 60 60 60 59 56 57 57 57 54 53 50 44 44
68 66 61 59 54 48 49 47 43 43 45 45 46 44 42 41 41 45 43 42 39 41 47 50 51 48 50 51 49 46 46 46 48 43 42 42 42 41 40 38 37 31 32
68 67 65 59 56 54 52 48 41 43 42 42 43 34 30 28 31 36 34 33 33 34 37 39 41 42 38 39 40 38 36 35 34 35 37 37 35 33 29 26 26 26 25
65 66 63 61 58 52 49 43 42 40 38 36 36 33 32 31 23 26 26 16 14 18 21 25 24 22 23 26 31 31 28 27 28 30 32 33 28 25 20 20 19 17 10
62 63 65 62 58 50 47 41 40 37 37 38 33 37 39 33 28 29 30 20 11 13 21 21 18 20 17 21 23 20 20 22 25 27 28 29 22 19 15 17 13 11 14
64 64 65 60 58 50 47 42 40 34 32 33 35 38 45 39 36 36 33 27 25 17 21 15 15 19 16 16 15 16 21 23 26 30 31 28 22 21 18 16 15 17 18
64 65 63 59 52 50 46 42 39 30 30 32 37 39 43 42 34 34 36 34 30 23 23 16 12 14 14 16 17 21 25 24 28 32 34 31 26 24 19 17 19 20 19
66 65 58 52 48 47 46 41 37 28 26 37 43 45 48 47 43 42 42 37 32 25 25 20 9 10 13 11 16 18 22 25 29 34 34 33 30 25 22 19 17 22 21
65 61 52 43 45 45 39 38 36 29 36 42 50 51 46 50 43 45 43 35 34 24 22 17 14 13 12 10 15 18 22 25 30 35 36 29 33 27 28 24 21 19 21
65 51 42 38 44 40 36 38 33 29 41 46 50 57 51 48 46 39 43 39 35 26 20 20 22 21 20 25 23 23 23 22 28 34 35 31 35 29 27 27 22 23 19
62 43 37 37 39 35 37 37 30 28 43 51 50 58 58 51 48 45 40 39 33 34 28 31 28 23 25 25 24 24 21 27 31 35 34 33 31 28 27 25 23 26 22
50 36 35 35 36 32 37 35 27 29 42 51 52 53 62 55 52 45 37 39 36 37 35 30 20 14 16 19 22 17 23 33 36 34 32 33 30 29 27 26 20 26 24
40 32 32 32 35 35 37 27 26 25 29 40 49 50 55 63 55 50 38 38 34 31 28 21 14 11 10 11 12 24 23 27 31 33 32 35 35 30 27 29 24 23 25
36 30 28 31 35 38 32 23 24 24 24 30 29 38 48 45 53 47 44 41 35 29 24 27 24 18 19 21 20 27 31 28 32 34 34 37 38 35 28 26 25 28 30
32 27 26 30 34 30 25 23 20 22 23 22 23 27 31 42 49 51 46 35 29 23 25 22 23 25 18 19 29 27 24 25 31 34 36 35 34 28 28 25 29 29 32
28 22 23 34 31 26 20 22 19 24 21 20 20 23 30 39 51 48 47 40 34 32 36 29 31 22 20 29 23 23 25 23 30 36 36 38 35 31 31 30 31 32 37
25 18 28 27 22 22 19 24 19 21 22 20 25 29 39 38 46 45 52 48 39 39 37 39 38 38 27 20 21 21 21 18 26 33 36 37 40 40 35 40 41 40 42
22 18 20 17 18 20 23 20 19 19 20 23 26 35 34 37 38 43 44 46 38 39 37 33 25 23 21 24 21 20 21 20 22 30 34 34 38 43 49 49 48 47 47
19 16 13 12 15 17 25 22 22 18 19 20 31 25 36 39 38 39 42 47 48 34 31 24 23 24 27 30 25 26 27 26 25 29 32 37 41 50 47 49 50 49 50
19 13 12 11 12 10 28 27 17 21 24 24 24 33 35 40 41 46 50 52 52 54 45 35 36 33 29 36 34 31 28 28 29 31 35 43 44 45 46 50 52 52 54
18 14 8 9 9 6 22 26 21 28 29 28 30 35 35 35 44 50 48 54 53 51 51 45 42 37 42 37 40 34 33 35 38 43 43 42 44 50 50 52 53 59 61
20 17 8 7 8 9 13 27 26 31 35 31 37 36 41 46 49 48 46 46 51 54 51 46 45 42 38 35 35 36 43 40 40 41 42 45 48 53 54 54 57 60 64

GFSSE_250_spd_087.txt.gz
Wind_Speed
59 55 54 53 53 54 52 54 56 58 59 60 63 65 67 69 70 74 75 75 77 79 80 79 80 81 81 82 82 82 80 80 80 81 81 81 81 81 80 80 81 82 81
52 50 48 48 48 48 48 48 50 50 52 55 58 59 60 63 66 67 69 70 72 75 80 82 82 84 83 84 83 83 82 82 82 83 83 82 81 81 80 81 82 82 80
52 50 48 49 48 49 50 47 47 48 48 50 51 54 56 59 62 63 63 65 66 66 69 77 82 82 82 83 84 84 84 82 82 82 81 81 81 81 80 79 79 80 80
54 50 51 55 54 52 51 51 49 47 48 47 47 50 51 53 54 51 53 57 59 58 60 63 68 75 79 80 79 77 78 79 81 79 77 77 75 72 74 74 72 72 71
57 54 55 55 56 53 54 50 48 46 43 43 45 45 45 44 46 46 47 49 52 53 53 52 54 59 62 64 68 71 71 70 68 64 63 65 63 59 60 62 60 59 53
57 56 56 57 59 59 55 53 46 46 44 42 41 41 43 42 39 43 36 39 38 43 44 42 44 47 51 53 54 56 58 56 55 55 52 52 51 51 50 49 47 44 38
60 59 60 61 61 65 61 57 48 41 39 39 40 41 42 40 35 39 33 34 38 37 40 42 44 41 42 44 46 46 45 45 43 42 43 42 41 39 37 37 36 27 25
63 62 61 65 66 68 65 56 48 39 39 35 38 42 37 34 31 37 36 29 35 36 34 35 37 36 34 35 37 38 38 35 35 36 36 34 30 29 31 28 22 19 16
66 64 61 63 68 72 69 56 44 37 35 33 35 40 38 36 36 36 36 28 26 27 25 22 21 26 23 20 22 24 25 26 28 25 21 22 24 26 25 19 17 15 11
68 61 62 70 73 71 64 52 40 35 32 30 36 40 36 37 45 36 33 30 29 26 23 14 16 14 20 19 20 21 18 17 17 17 20 22 24 28 24 19 17 16 15
69 66 68 71 71 66 58 47 40 32 30 30 37 38 35 37 48 44 39 39 36 25 19 20 14 16 20 21 18 14 13 13 14 18 20 24 26 27 25 23 19 17 19
74 70 70 69 63 61 56 43 36 28 28 35 37 33 33 40 48 50 48 46 39 37 32 24 17 18 22 16 13 10 9 9 11 15 19 25 28 29 26 27 21 19 22
74 75 66 64 59 58 53 36 29 29 31 32 33 33 38 45 50 50 52 50 42 37 33 29 22 16 20 15 10 9 7 9 10 15 19 24 30 28 28 27 27 23 21
76 75 68 64 58 56 45 33 27 29 32 31 35 39 46 51 52 54 54 47 46 40 36 30 21 18 19 17 15 15 16 16 14 19 23 26 29 28 32 28 30 26 25
79 76 72 65 59 50 40 30 28 29 30 32 42 44 54 56 55 54 53 49 45 44 38 31 25 25 23 18 18 17 15 10 13 19 28 27 27 26 29 29 28 29 25
79 76 66 64 52 42 34 32 31 27 33 32 45 45 53 56 56 50 49 50 41 43 38 30 33 29 25 22 18 16 10 10 12 22 27 28 26 23 27 30 27 29 26
78 67 62 48 40 35 31 33 27 30 37 32 42 45 51 58 60 49 46 53 45 44 42 34 28 23 21 19 15 11 6 10 20 23 28 27 28 26 28 30 29 28 28
76 61 43 40 32 30 33 28 28 35 33 29 30 44 42 52 61 52 51 47 42 46 40 28 23 18 19 18 16 12 13 17 22 18 25 27 28 28 33 34 27 27 28
62 46 38 32 27 30 31 24 32 32 30 27 26 32 34 47 53 58 54 49 42 41 33 30 20 21 25 23 22 22 20 18 24 13 21 27 24 30 37 36 34 30 25
42 35 35 24 28 31 23 31 32 29 30 26 26 25 30 38 48 46 59 54 49 36 37 31 26 24 27 26 27 23 20 17 18 15 14 20 22 26 32 34 36 34 29
34 36 23 25 28 23 25 30 25 29 25 25 27 25 26 31 37 46 48 53 53 48 43 26 28 27 23 27 29 25 15 13 17 16 17 17 22 27 34 35 34 33 34
37 27 25 26 21 20 23 24 27 28 23 27 26 24 27 26 35 41 42 50 52 47 33 32 38 28 28 29 26 25 17 20 19 25 26 23 26 29 32 37 41 44 45
31 26 26 23 18 14 19 21 26 25 26 27 27 26 29 29 30 42 48 50 46 43 36 39 37 34 34 24 19 18 19 24 26 25 23 20 29 32 37 38 42 43 45
29 30 28 23 15 10 14 25 28 26 25 25 28 29 34 34 37 35 52 47 45 45 38 40 32 29 26 26 22 24 26 24 22 28 27 24 28 30 34 39 39 43 43
34 32 27 20 12 7 10 27 28 30 27 27 25 34 35 35 36 32 38 45 47 41 45 38 37 27 27 29 29 28 28 34 31 33 33 31 34 37 40 40 43 45 48
38 35 25 17 10 6 8 25 32 27 30 34 33 44 29 37 33 36 33 37 46 49 43 36 36 32 34 40 39 37 34 33 31 38 37 39 42 41 40 42 46 50 51

GFSSE_250_spd_093.txt.gz
Wind_Speed
59 59 57 58 58 56 54 54 54 53 51 52 50 51 54 57 62 65 67 69 68 72 75 78 79 78 78 77 78 79 78 77 77 77 77 76 77 77 76 75 75 76 76
60 58 55 55 54 52 51 51 52 51 49 49 49 49 50 54 58 61 63 66 66 66 69 72 74 76 77 78 78 77 77 78 79 79 77 75 76 74 74 72 73 76 76
60 55 53 52 52 51 49 50 50 49 49 50 50 48 49 53 55 57 59 61 63 64 65 65 66 68 71 73 74 74 74 74 75 76 72 73 75 76 73 71 72 71 69
60 56 50 49 49 48 50 51 51 52 52 52 52 50 49 51 56 56 54 57 58 60 60 62 62 64 66 69 71 70 70 70 69 67 64 65 68 66 66 64 64 62 66
58 55 48 49 49 50 51 52 52 53 55 54 53 50 48 52 57 55 53 52 52 52 56 56 57 57 61 62 62 65 66 66 65 60 56 51 53 52 55 58 55 53 53
56 54 49 48 51 53 54 53 55 56 56 56 52 50 53 56 56 48 45 45 45 44 46 48 49 51 52 55 57 56 57 57 56 46 45 44 46 46 47 48 48 49 48
57 53 51 50 54 55 56 55 57 58 58 57 56 52 54 54 49 39 42 44 43 42 41 40 40 40 44 46 47 46 46 46 44 38 35 34 34 38 39 43 44 42 38
59 57 55 54 55 58 57 57 58 60 59 57 55 52 52 49 41 38 38 40 39 36 36 37 38 38 35 36 39 40 40 40 36 36 34 34 36 37 38 37 34 31 28
62 60 57 58 58 58 58 58 61 62 58 57 56 54 50 46 43 39 31 33 30 32 27 32 32 31 26 27 30 30 32 30 29 30 28 31 31 32 31 30 26 23 21
62 61 62 61 60 60 59 61 61 60 59 59 57 54 53 45 47 47 41 35 29 26 21 24 22 30 23 28 24 26 24 26 24 25 26 30 27 25 25 22 22 21 21
62 62 65 64 62 60 60 60 60 60 62 61 58 57 56 45 39 39 31 22 17 18 17 15 19 22 20 16 16 16 18 20 21 25 25 22 19 19 19 21 21 22 23
63 63 66 66 64 61 61 61 62 62 64 63 60 59 57 44 39 36 33 25 28 28 25 23 23 24 20 13 12 14 16 21 21 17 15 17 18 18 20 22 22 25 22
62 62 66 67 64 64 65 62 63 64 63 62 62 58 55 42 39 39 36 37 36 33 34 28 27 28 24 19 15 16 20 22 15 14 14 16 19 19 23 23 25 25 27
59 63 64 67 63 64 64 64 67 67 66 66 63 57 51 39 40 43 40 42 37 35 34 34 31 29 28 25 24 24 22 21 17 13 11 12 14 17 22 23 26 29 28
63 64 64 65 68 66 64 68 67 64 67 65 61 55 45 37 38 35 39 43 41 45 39 38 33 31 29 27 25 24 19 19 15 12 12 12 12 15 19 22 25 25 28
65 66 64 67 69 70 71 69 64 65 70 62 57 48 40 37 37 33 37 40 43 49 44 44 46 43 37 32 29 22 24 23 20 18 15 10 10 14 17 18 20 21 23
67 67 65 67 70 73 72 72 67 69 69 60 51 40 36 32 31 35 33 41 40 51 49 52 49 52 41 37 33 25 29 23 23 20 14 8 7 13 17 18 17 23 16
68 69 68 70 74 75 76 66 69 71 64 50 43 38 36 30 32 38 40 45 50 48 52 55 52 50 40 34 32 35 31 23 25 21 16 11 8 10 16 20 20 20 25
72 69 71 72 75 77 68 67 71 66 51 40 36 38 34 30 32 42 47 48 53 53 53 53 50 47 44 36 34 34 26 25 27 23 18 14 13 16 17 22 19 19 22
71 73 73 75 75 72 69 70 62 51 39 35 35 34 26 32 34 46 53 50 56 55 55 56 51 49 48 42 34 32 33 29 26 21 21 18 15 20 21 19 20 19 21
70 70 74 75 73 69 68 63 49 39 31 32 34 28 30 33 35 46 50 52 55 58 59 52 52 51 50 47 38 36 35 31 29 26 23 21 19 22 24 19 18 18 21
73 74 74 76 65 71 64 49 37 30 28 33 30 29 32 33 31 46 44 52 55 58 54 53 51 48 47 43 41 41 38 35 33 30 27 21 17 23 24 19 22 19 20
68 72 73 69 68 75 52 37 29 27 30 28 30 32 29 30 27 33 43 48 47 61 60 47 52 47 47 43 42 34 41 41 37 33 25 27 25 27 28 24 17 21 22
69 70 72 71 75 59 39 29 26 28 29 30 32 28 31 29 29 32 39 45 41 55 61 49 49 49 49 55 43 38 39 41 40 35 30 23 24 27 31 25 30 25 23
69 74 74 71 60 42 33 29 26 27 29 31 29 30 30 32 35 33 34 40 39 48 51 59 52 51 55 47 46 44 38 37 36 34 28 27 26 30 33 28 30 30 36
77 78 73 60 49 36 34 29 28 26 29 31 28 31 30 35 33 28 27 31 34 36 45 47 53 50 47 49 46 42 43 48 42 38 31 28 28 33 39 40 37 41 41

GFSSE_250_spd_096.txt.gz
Wind_Speed
60 60 58 58 58 60 60 60 57 57 57 57 56 57 58 57 59 62 64 65 67 69 68 68 69 67 67 65 63 64 63 63 63 64 68 72 75 76 73 67 71 74 74
61 59 56 55 57 58 57 56 56 54 54 53 52 52 53 53 54 53 56 57 62 64 66 65 66 65 64 65 65 67 69 72 72 73 74 75 75 75 75 71 69 67 68
59 60 55 55 56 55 53 52 51 52 51 51 51 51 50 52 51 51 51 52 56 59 61 61 62 63 63 61 63 64 67 67 67 66 66 69 71 70 67 64 66 66 64
60 61 55 54 52 51 50 51 51 51 51 51 51 50 50 51 49 48 49 53 55 57 58 59 57 57 59 58 58 59 62 63 61 61 59 58 61 61 61 58 54 51 47
59 61 55 53 50 49 47 48 49 52 52 52 52 51 52 53 50 46 47 52 51 47 49 50 51 50 51 51 54 56 54 53 55 54 53 54 55 44 39 37 36 38 39
59 61 56 52 48 48 49 48 50 53 53 52 52 53 54 55 50 44 47 49 48 44 40 40 41 43 44 46 48 48 47 47 46 45 46 41 41 40 39 38 36 39 41
59 61 58 55 52 50 50 51 52 54 54 53 53 54 57 55 47 45 46 45 40 38 37 38 39 39 42 42 41 41 39 38 36 36 36 35 33 32 30 33 33 36 37
64 64 59 58 57 52 53 53 54 54 55 55 53 55 54 53 45 47 46 42 39 34 28 30 35 34 33 36 34 36 34 32 33 27 29 27 27 26 30 29 32 34 33
65 65 61 63 60 52 55 54 55 55 57 53 54 55 56 52 46 50 46 45 37 35 32 31 27 26 28 29 29 25 24 23 23 21 23 26 27 27 27 30 32 30 28
69 69 64 63 61 57 56 57 55 56 57 55 57 57 55 54 45 48 45 38 33 27 26 23 15 13 12 17 22 16 21 20 19 21 24 27 28 29 25 26 24 22 21
67 65 68 64 62 58 58 59 56 58 58 57 58 57 59 55 50 50 43 35 25 24 22 18 17 16 15 18 17 9 14 18 17 20 21 25 25 22 19 20 21 22 20
68 66 67 67 64 62 60 60 57 57 58 60 59 60 61 57 54 53 47 36 33 32 26 29 27 22 20 21 14 10 5 8 14 16 20 23 18 16 16 17 19 20 22
66 61 65 69 68 61 57 59 57 59 60 62 63 64 68 62 59 55 46 35 38 37 31 35 32 25 22 22 22 21 17 16 16 17 15 16 14 14 15 19 21 22 24
57 55 62 68 64 60 58 59 60 62 62 65 67 69 69 62 62 54 45 38 39 42 39 37 29 32 28 29 26 19 17 17 15 18 16 15 14 15 17 19 21 23 23
62 63 63 65 62 61 61 62 62 63 65 68 72 75 70 63 63 55 45 39 41 44 40 42 45 38 33 35 26 23 24 15 15 15 10 12 12 13 15 18 21 22 25
67 65 61 62 61 63 65 66 66 67 66 72 74 79 68 67 59 50 40 41 44 42 42 44 45 37 40 36 28 25 26 20 15 15 14 16 15 12 13 13 16 19 23
68 65 54 62 63 65 69 70 68 72 73 73 78 73 73 68 54 40 37 41 41 43 44 49 45 38 32 32 36 30 28 22 18 23 21 19 15 10 5 7 13 18 21
57 57 58 58 68 68 67 70 73 73 76 79 75 70 70 55 38 31 38 39 39 39 48 52 43 41 40 42 41 37 34 29 23 23 24 22 16 10 7 6 13 17 20
59 62 65 64 69 73 71 73 73 73 74 80 69 69 54 38 28 32 39 34 36 41 39 53 45 48 45 46 45 37 34 32 31 26 25 23 18 17 11 10 17 15 18
69 68 65 66 70 73 71 72 74 75 81 70 71 58 40 28 25 35 37 33 38 43 44 57 47 54 53 52 48 39 32 33 31 25 23 24 19 20 19 15 20 17 20
66 65 69 69 69 67 68 69 74 76 73 67 62 42 31 27 28 40 36 32 40 43 43 48 52 52 53 53 50 40 34 34 35 25 24 28 22 21 21 25 20 18 20
65 64 67 67 62 66 72 75 74 73 68 62 46 32 27 27 32 38 36 34 48 46 43 47 56 49 58 54 45 43 36 36 38 31 29 27 27 22 25 21 16 15 20
66 68 67 65 66 70 78 74 71 68 65 47 35 25 25 30 33 35 36 37 54 51 48 49 55 56 56 53 46 46 41 39 36 33 33 32 33 27 27 22 19 17 21
60 62 62 65 72 71 77 69 70 66 53 34 29 26 28 33 34 34 34 38 56 56 54 48 55 53 57 54 48 49 48 44 39 37 38 36 34 30 28 24 21 21 24
59 62 62 66 75 71 74 67 71 54 39 31 29 30 32 34 34 32 36 39 56 52 49 48 56 50 57 52 46 48 49 46 39 38 36 40 40 35 33 30 26 22 24
60 58 63 75 76 71 71 72 66 53 34 32 32 31 33 33 31 33 31 28 40 45 44 44 47 52 52 50 44 48 46 46 42 38 35 34 40 41 33 31 28 30 32

GFSSE_250_spd_102.txt.gz
Wind_Speed
68 66 66 64 63 62 60 59 59 59 59 60 60 60 59 59 58 58 58 58 55 56 57 60 60 60 58 56 55 55 55 54 52 51 54 56 59 56 59 60 60 60 56
70 69 70 69 66 64 61 59 59 58 57 56 56 56 57 56 55 54 54 53 51 52 55 54 53 52 53 52 50 50 51 51 50 48 49 52 54 56 58 57 60 58 58
69 69 71 70 68 66 61 59 57 55 54 52 51 52 53 52 51 50 50 49 49 51 50 48 48 48 47 45 45 43 44 47 47 47 46 49 52 55 57 57 56 57 56
68 69 70 70 69 66 59 57 53 51 51 50 49 49 49 48 48 47 46 47 48 46 45 44 44 45 45 44 45 41 39 39 40 42 44 46 49 51 52 53 54 53 55
64 65 65 66 67 66 58 55 51 49 46 47 46 46 45 45 45 45 45 45 45 45 43 41 41 42 42 40 37 38 37 35 35 35 36 41 42 42 40 39 42 46 46
67 63 63 62 64 64 58 52 48 43 45 43 44 45 45 46 45 46 45 45 44 42 40 39 39 39 37 34 32 32 32 31 32 32 32 33 34 32 34 36 37 37 38
63 62 59 59 60 62 58 52 48 43 44 45 47 46 46 42 45 46 45 45 45 45 42 40 40 36 33 35 36 33 31 29 28 29 30 28 28 27 32 34 37 39 39
64 63 62 62 60 62 60 53 50 40 44 47 47 49 47 45 46 45 46 45 46 43 43 41 40 36 37 34 33 32 31 28 28 27 24 24 22 22 25 25 30 35 35
63 63 63 59 58 60 63 56 51 45 45 50 49 50 46 45 46 46 46 43 44 44 46 43 39 33 26 23 16 25 26 24 21 23 19 16 13 20 23 26 28 30 31
48 52 59 57 57 57 62 56 54 49 49 49 50 49 48 48 48 46 45 44 45 44 44 44 41 34 30 28 21 25 23 14 12 15 16 14 16 24 25 25 27 27 28
46 49 54 50 51 54 60 54 51 50 51 53 48 51 51 51 48 47 46 45 47 47 48 50 38 37 37 38 27 29 20 12 11 12 15 14 16 22 24 25 26 26 25
48 51 54 51 53 56 60 53 48 49 50 51 55 56 53 49 49 48 48 48 50 52 56 51 45 37 38 40 35 32 18 12 8 2 8 13 16 21 26 29 29 29 23
49 51 57 53 50 52 55 54 49 49 49 55 58 47 49 46 49 49 50 52 54 56 57 56 57 43 42 42 35 33 26 19 16 11 9 6 10 16 21 18 22 22 18
51 51 53 60 54 52 52 51 49 50 48 47 49 50 47 46 49 52 52 53 57 59 59 61 65 46 42 41 37 36 32 27 26 23 20 11 13 15 18 17 17 16 13
55 51 57 59 51 49 49 47 47 50 51 47 54 49 47 50 52 54 55 56 61 61 62 67 62 51 45 47 39 39 39 36 29 26 28 18 14 17 14 14 15 15 15
57 55 60 55 54 46 47 49 51 51 45 49 52 48 48 52 55 56 58 61 65 65 70 64 55 49 47 49 41 43 43 36 30 28 26 24 16 18 18 17 17 18 16
56 56 54 51 51 46 48 52 53 52 51 55 47 48 52 54 57 59 60 63 67 72 70 58 50 45 46 50 45 46 42 35 28 28 27 20 14 15 16 18 19 17 15
56 56 55 49 51 46 46 51 52 54 55 52 47 51 53 56 57 60 61 66 70 71 61 51 41 38 46 52 51 49 43 37 31 30 27 24 21 21 17 17 17 16 12
56 58 53 51 52 53 47 47 50 52 50 50 49 50 54 56 57 58 62 68 74 65 52 41 30 37 47 52 53 48 42 36 34 33 31 30 26 23 21 21 21 21 15
57 61 54 46 49 49 44 43 46 51 47 47 48 51 54 55 54 58 61 69 67 51 40 30 31 40 48 51 50 44 40 41 36 38 35 37 31 29 24 24 21 20 15
59 62 63 44 42 37 42 44 49 46 44 46 52 54 53 52 55 59 61 65 57 42 31 27 35 41 46 49 50 46 46 44 42 41 38 29 29 29 26 24 24 25 18
61 64 60 47 46 45 43 47 45 41 45 51 54 53 51 53 60 58 63 59 48 36 27 32 37 39 45 49 48 48 53 45 43 46 41 32 33 32 26 24 25 29 23
62 60 62 52 47 45 46 48 47 45 47 50 52 55 55 58 60 58 58 53 41 33 30 35 35 40 47 53 53 54 46 42 41 43 40 35 31 33 31 25 27 30 28
59 57 62 60 56 50 49 55 52 47 47 50 55 57 59 60 57 61 52 49 36 31 34 35 37 43 49 57 56 57 56 45 44 45 39 40 34 33 35 35 31 30 29
59 59 59 57 60 60 60 52 54 48 48 51 60 59 57 59 61 60 52 42 36 34 36 38 31 38 43 54 62 64 58 53 47 45 46 44 42 42 40 36 35 36 33
60 59 59 56 56 52 49 51 52 50 51 58 59 59 59 60 63 60 50 38 36 36 39 38 42 38 43 45 51 62 58 58 54 50 47 50 48 47 43 40 37 29 31

GFSSE_250_spd_105.txt.gz
Wind_Speed
68 71 71 68 67 67 65 64 64 63 63 63 63 62 62 62 59 58 58 58 58 58 58 60 59 59 57 55 52 50 51 53 53 52 49 49 49 50 55 57 58 56 55
70 73 75 73 72 71 69 67 67 66 65 64 63 63 62 62 60 57 56 56 56 54 53 54 54 51 47 47 48 49 50 49 46 47 45 47 48 52 54 55 55 55 54
72 73 75 76 75 74 72 70 68 67 65 64 62 61 60 60 58 54 53 53 53 49 48 48 44 44 47 47 47 47 47 47 46 47 45 45 46 48 50 52 52 51 50
75 73 75 78 80 77 75 71 67 64 64 62 59 57 56 56 54 53 51 50 48 42 43 43 38 40 44 46 45 45 44 46 45 42 41 41 40 41 44 47 47 49 50
78 78 79 79 78 79 74 74 69 65 59 55 53 50 51 50 50 46 46 46 44 42 42 39 37 40 45 46 46 45 41 39 36 34 35 36 34 34 36 41 44 45 45
79 79 77 76 76 74 73 74 68 65 60 53 49 51 49 47 45 44 42 40 41 42 39 37 37 38 42 45 45 43 44 41 39 37 33 30 33 27 30 36 34 36 39
71 75 76 73 72 70 72 74 68 61 56 51 48 48 45 45 43 39 43 41 38 39 37 35 36 38 41 44 42 41 42 41 40 33 32 33 30 25 24 31 33 36 38
53 62 67 68 69 71 69 68 67 61 58 52 50 46 44 45 43 40 40 38 35 38 36 35 36 39 38 43 37 39 41 41 37 33 32 32 30 24 24 30 31 33 36
52 53 57 63 68 69 68 66 66 60 55 49 48 48 45 45 42 41 37 38 38 38 35 35 38 38 42 41 39 36 40 37 36 32 27 26 24 22 26 29 29 30 30
52 52 54 55 58 61 63 63 63 61 52 46 46 50 49 46 44 39 40 42 40 39 40 39 42 43 40 40 41 41 36 32 34 34 28 16 18 22 27 26 28 27 27
53 54 54 52 50 51 49 54 55 58 50 45 46 48 48 46 44 43 48 45 41 43 43 43 42 45 45 43 43 44 36 29 36 31 16 16 16 21 24 27 27 23 25
54 52 51 50 53 53 51 51 51 52 49 47 47 47 46 47 45 49 47 43 40 44 43 45 44 46 48 46 44 46 37 34 34 29 18 15 17 19 25 25 27 26 26
61 54 56 55 56 54 50 50 50 54 53 49 46 45 47 45 48 46 43 42 43 44 46 49 48 50 50 49 47 46 34 35 29 34 24 9 9 14 15 22 24 28 30
63 60 56 58 55 60 58 54 51 51 51 44 43 46 45 46 44 46 45 42 46 47 49 52 54 56 56 53 53 47 34 38 35 30 28 23 16 16 14 15 22 23 22
59 61 59 57 58 62 57 54 51 51 53 45 39 43 46 49 51 51 45 45 47 48 53 55 56 59 61 59 59 48 39 43 38 35 30 30 23 21 16 17 14 19 18
71 64 61 59 63 67 62 56 52 49 49 44 43 46 47 46 51 48 46 47 48 52 55 59 61 64 63 63 57 46 43 46 43 41 36 32 27 21 20 18 20 17 18
74 70 63 63 62 65 66 60 53 50 49 47 47 49 51 51 53 45 46 47 51 55 56 59 65 67 67 57 46 41 42 47 44 44 41 33 32 27 24 19 22 22 22
74 72 69 63 62 63 65 63 55 51 45 46 47 48 50 52 51 49 47 47 53 53 56 61 65 67 56 45 38 38 44 46 46 42 37 32 29 28 24 23 19 19 20
76 73 70 65 60 63 61 65 58 53 40 42 45 49 53 48 46 43 44 49 51 52 55 62 68 59 47 36 33 40 47 46 47 44 36 29 32 30 23 23 20 18 20
74 74 73 69 63 61 57 57 55 50 42 45 50 52 50 41 43 41 45 47 49 53 58 61 64 52 37 24 28 44 50 47 44 43 38 35 35 33 31 28 22 22 22
73 73 73 69 64 59 56 49 53 54 48 45 49 48 42 43 44 44 45 47 49 54 58 62 59 42 29 22 34 49 46 47 46 45 39 38 37 35 37 30 26 21 24
76 70 70 69 66 57 55 58 52 52 47 45 39 37 42 45 44 43 47 48 51 53 56 60 48 35 25 25 38 51 49 52 43 41 40 39 39 36 28 25 26 24 25
67 66 64 67 66 59 58 57 59 48 47 45 41 42 46 45 41 42 47 49 52 54 57 55 41 31 26 31 40 50 50 49 50 45 45 40 38 38 33 26 29 26 23
59 57 53 65 67 61 60 56 55 53 48 45 47 46 43 43 44 45 45 53 52 57 58 53 40 34 27 32 36 48 50 51 47 44 46 49 42 41 33 29 31 29 30
58 53 48 58 66 61 61 60 56 48 45 40 42 43 49 45 45 44 50 53 57 57 59 53 38 35 33 32 36 47 51 51 43 51 51 47 47 46 40 33 33 33 30
56 55 57 60 67 65 65 63 60 55 48 46 47 49 45 44 46 49 54 56 58 59 58 55 39 39 35 33 39 46 51 53 54 52 46 49 48 44 41 39 36 36 34

GFSSE_250_spd_108.txt.gz
Wind_Speed
76 77 76 76 73 72 72 72 70 69 68 65 64 63 63 64 64 63 62 62 62 62 62 61 59 62 63 65 63 63 61 58 55 58 57 55 50 46 46 48 53 52 50
77 77 78 79 77 76 75 74 73 72 70 70 68 67 66 66 65 63 63 62 61 61 61 59 58 59 60 60 60 59 58 51 50 51 49 48 45 44 43 44 49 49 48
80 80 80 81 83 81 80 78 76 74 73 72 71 69 67 65 65 65 64 60 61 59 55 56 56 52 52 53 52 56 52 50 46 44 43 44 43 41 41 42 44 48 50
78 79 79 80 80 83 83 81 80 77 75 74 74 71 68 67 63 62 60 57 52 53 52 51 48 46 49 49 49 50 48 46 43 40 40 38 37 34 37 37 39 41 42
73 73 75 78 81 83 85 83 79 79 76 74 73 70 66 64 58 60 53 55 50 48 46 43 43 43 43 42 43 45 46 42 41 41 37 35 34 32 30 32 33 35 36
59 56 63 70 74 76 77 78 77 79 78 75 72 68 63 61 58 54 53 50 45 42 41 40 39 41 39 38 40 42 44 45 38 38 34 34 34 33 28 29 28 28 30
55 56 58 60 60 64 68 73 73 74 74 71 67 62 60 58 57 52 49 48 39 38 36 36 37 37 37 36 37 40 40 40 36 36 28 26 30 29 30 30 26 25 30
52 54 58 58 60 58 59 62 66 67 69 67 63 60 57 55 54 50 47 45 41 36 33 33 35 36 33 35 38 42 41 39 36 31 27 29 30 31 28 30 27 30 31
52 54 55 56 57 57 60 61 62 63 64 63 59 58 56 54 51 49 48 44 42 37 35 35 37 36 37 37 38 39 42 39 38 32 29 26 28 28 25 26 29 29 29
57 60 58 58 57 56 57 59 59 59 58 58 56 56 54 48 45 43 44 44 43 34 36 38 41 40 38 37 37 39 41 42 38 32 24 26 29 22 24 25 26 27 27
60 64 64 62 61 58 57 59 59 57 54 51 51 50 50 46 45 44 45 42 39 36 38 35 37 38 39 38 38 41 40 43 39 33 26 28 22 23 22 25 27 27 26
63 66 66 65 65 61 59 59 59 58 54 54 51 49 46 45 44 42 41 41 38 34 37 36 36 38 38 39 41 44 45 42 43 35 28 29 26 21 25 25 27 28 27
60 65 67 66 66 64 61 58 58 57 56 55 52 48 45 46 46 41 41 39 35 35 37 38 38 40 40 41 42 45 44 44 40 40 31 27 24 21 25 21 18 24 25
54 63 65 67 67 66 60 58 55 56 56 54 51 45 41 45 44 43 41 37 35 40 40 38 39 43 43 45 46 49 48 49 47 41 33 29 30 22 23 20 17 16 22
55 60 63 65 66 65 62 62 54 54 56 58 56 52 44 42 43 39 39 38 42 41 40 41 43 44 46 49 50 54 55 55 56 46 37 35 30 29 26 25 17 17 17
60 59 65 64 68 66 63 64 58 56 55 60 58 54 46 41 42 40 40 42 45 43 44 43 44 46 50 52 55 58 59 62 58 47 42 43 40 33 28 32 20 16 18
58 61 63 69 70 69 62 62 60 58 56 57 56 52 46 43 41 41 43 44 46 43 43 44 45 47 50 55 60 62 63 56 45 42 41 39 42 39 37 24 27 16 20
67 58 62 67 73 73 70 66 62 61 57 55 57 54 49 46 42 43 45 44 42 43 43 44 43 47 50 55 59 62 52 39 36 40 45 42 44 38 33 29 33 21 21
76 64 59 65 68 74 75 75 67 62 56 56 55 53 51 50 44 43 44 40 40 39 42 41 43 44 50 54 60 51 37 33 35 46 52 52 45 38 35 34 34 24 24
79 65 61 64 63 71 77 78 73 66 59 55 56 55 52 49 45 44 39 37 36 37 40 40 42 46 49 54 55 39 29 30 41 51 51 47 42 36 34 34 32 28 25
81 69 60 64 66 66 75 76 76 70 64 56 52 57 54 51 44 41 40 43 42 38 41 41 42 46 49 52 49 31 24 33 49 51 43 43 43 41 35 35 33 30 29
82 75 62 62 68 67 68 71 74 74 66 58 54 53 50 46 40 40 44 45 42 41 42 44 42 44 48 51 45 26 25 41 49 47 43 45 44 42 39 39 33 27 27
84 82 75 64 66 68 65 72 74 70 64 59 54 53 45 42 45 42 42 41 41 39 42 44 44 43 44 47 42 25 33 45 44 44 45 46 44 40 41 39 36 30 24
86 82 76 68 65 68 67 68 71 68 64 61 56 60 56 53 50 42 41 38 37 40 41 45 45 45 44 49 42 27 37 46 46 52 49 47 46 42 42 40 34 30 24
72 70 68 68 65 68 65 63 69 72 67 57 55 58 60 52 46 43 42 40 40 38 40 46 46 48 46 49 44 32 35 50 48 52 48 48 44 46 44 41 39 34 31
61 61 63 64 62 65 65 60 66 71 66 57 57 51 51 48 47 45 42 42 42 40 43 48 50 49 49 50 48 36 38 47 55 54 55 48 47 46 47 46 45 39 34

GFSSE_250_spd_111.txt.gz
Wind_Speed
73 73 75 75 75 74 74 74 73 73 73 73 73 72 70 70 70 70 68 67 66 65 65 65 65 67 66 67 65 65 65 67 66 62 54 53 56 55 50 48 44 44 41
77 77 79 80 79 79 76 76 77 76 74 74 73 73 72 71 72 71 69 69 68 66 65 65 65 65 66 65 62 64 64 65 63 59 57 53 49 44 41 40 40 38 42
73 78 80 81 82 83 82 80 80 79 77 76 75 75 75 73 73 72 71 69 67 65 64 64 62 61 63 60 60 60 57 60 60 56 51 46 42 40 38 32 32 29 34
60 64 70 75 78 81 83 84 83 82 81 78 77 75 75 73 73 72 70 67 64 61 59 59 56 57 57 54 55 53 52 52 54 50 48 44 39 37 31 28 28 28 31
58 57 57 60 65 68 71 72 74 78 80 81 77 75 75 73 70 68 66 63 59 56 56 51 50 50 49 48 46 46 46 45 45 41 42 37 33 26 25 28 27 28 31
52 53 57 59 60 60 60 63 65 66 66 68 70 70 69 67 65 60 59 56 52 50 50 46 43 44 43 40 42 41 41 41 42 39 31 30 24 19 18 24 25 26 26
56 55 56 56 58 59 59 60 61 59 59 58 61 61 62 62 60 57 52 55 50 48 45 41 40 40 40 37 37 35 37 41 40 37 33 32 29 25 25 23 24 18 25
57 57 56 57 58 59 59 60 59 58 57 56 55 55 55 56 53 51 51 51 49 46 45 42 43 40 38 37 35 35 38 40 38 36 34 34 26 22 24 24 21 21 26
59 60 60 60 60 59 58 59 60 57 56 54 54 53 52 51 53 49 46 46 47 45 42 44 43 40 37 36 37 36 37 38 36 35 33 32 20 20 26 25 23 23 24
56 58 62 65 65 64 62 60 60 60 58 55 53 52 51 50 49 49 46 45 44 41 41 42 44 41 40 36 36 36 36 35 37 35 32 30 16 20 28 27 25 23 26
53 54 55 64 68 69 66 64 63 62 59 57 55 52 51 51 48 48 45 42 42 40 43 43 43 38 38 36 36 36 36 36 36 37 32 31 20 17 29 28 27 25 26
52 54 53 55 60 68 69 66 64 64 60 56 53 50 51 51 47 47 46 43 41 41 39 42 37 37 37 34 37 36 36 37 39 38 34 33 27 19 31 31 25 29 25
56 55 56 57 58 60 66 69 66 66 62 58 52 47 46 48 48 45 44 44 46 42 39 38 31 35 35 35 37 37 38 39 40 41 37 36 33 23 32 30 25 25 18
63 62 59 62 59 58 58 62 65 65 62 59 54 47 44 47 46 44 44 44 45 42 41 36 33 36 35 36 38 39 40 42 43 43 42 39 38 29 33 27 24 24 22
71 66 66 63 63 57 57 58 59 62 60 59 56 51 47 46 46 44 42 41 43 44 37 35 35 35 36 38 39 41 42 44 46 47 47 46 44 32 35 27 30 27 20
72 74 72 71 63 56 59 59 59 58 61 58 56 53 48 48 47 47 44 41 40 38 37 35 37 37 39 38 40 43 44 47 49 55 54 54 51 42 39 33 34 32 22
75 79 79 78 68 56 57 64 61 60 58 59 58 56 52 49 45 43 45 44 40 39 35 35 38 35 40 38 40 44 46 49 53 58 56 51 48 44 47 32 32 32 27
77 81 85 83 77 62 55 64 65 64 61 61 61 57 52 51 49 44 41 44 39 38 37 38 36 37 38 36 39 44 46 51 54 50 42 38 39 44 52 39 44 33 27
80 84 83 80 77 71 56 58 66 65 64 61 60 58 52 49 50 46 44 45 42 39 41 33 35 38 36 36 39 40 46 51 54 39 33 31 36 45 41 42 40 36 30
83 84 80 80 80 79 68 53 60 61 62 66 64 64 61 52 50 47 44 44 42 43 38 31 34 37 36 34 34 39 44 51 42 30 25 32 38 36 41 41 36 36 37
82 86 86 84 84 84 77 64 54 58 62 64 68 70 65 57 53 48 45 46 44 43 36 36 38 41 37 35 33 38 43 48 34 23 27 44 41 50 53 44 34 39 40
85 88 91 89 90 86 79 68 56 58 63 64 68 66 66 60 58 52 48 48 45 41 38 40 44 42 40 36 33 35 40 43 35 22 42 55 56 55 52 36 34 42 42
88 90 92 92 93 87 78 68 58 60 56 59 60 64 65 68 64 54 51 46 44 40 39 41 44 40 40 35 32 35 37 39 34 23 49 57 58 53 48 45 44 43 42
92 95 92 87 85 85 79 68 59 57 52 63 67 70 69 67 64 53 51 47 36 39 47 46 41 37 38 36 34 35 33 35 30 32 42 55 56 51 48 53 52 48 43
90 91 89 82 83 87 79 70 62 59 56 71 72 70 65 65 65 52 52 53 47 45 46 43 40 37 39 36 37 35 32 35 31 38 46 52 50 49 51 50 49 46 43
78 77 78 77 77 78 76 69 64 64 65 73 72 68 63 65 62 52 52 50 46 44 43 43 41 38 39 38 40 38 35 36 37 41 50 54 54 53 55 50 47 47 46

GFSSE_250_spd_114.txt.gz
Wind_Speed
75 78 77 76 75 74 73 73 73 74 74 73 73 73 72 72 72 72 72 71 71 70 70 70 69 69 69 68 68 68 67 67 67 67 68 64 59 60 59 55 52 48 44
75 78 78 78 78 78 77 75 75 76 76 76 76 76 75 75 74 74 74 73 72 71 71 70 70 70 67 68 68 67 66 66 63 65 64 55 57 52 48 48 44 41 40
65 69 72 74 78 80 78 78 78 78 79 79 79 80 79 78 78 76 75 73 72 72 70 70 66 66 63 63 63 63 61 60 58 57 55 53 44 46 49 41 40 34 31
57 60 64 66 68 70 69 71 74 76 77 76 75 77 77 78 77 77 77 73 72 70 70 67 63 60 57 58 56 55 55 53 48 49 49 46 46 45 37 32 30 28 28
58 57 57 59 64 67 68 66 66 69 67 61 63 66 64 63 64 64 68 69 69 67 64 60 57 54 54 50 50 49 48 44 44 44 41 40 39 34 32 23 25 25 27
58 59 59 58 59 60 61 63 64 62 63 63 60 55 54 54 55 55 56 59 57 56 56 52 49 49 47 47 46 44 43 41 40 34 37 39 34 31 30 24 23 23 25
58 59 62 62 61 59 62 61 61 60 58 55 55 55 54 54 53 53 53 54 52 53 47 47 48 47 46 44 42 42 42 40 36 35 36 35 34 29 30 28 24 25 25
57 58 59 62 64 63 62 63 63 61 59 56 53 53 53 52 51 51 51 50 50 46 44 47 46 44 44 43 43 42 39 39 37 36 34 31 30 27 27 26 24 23 22
60 63 59 60 63 64 65 64 64 64 63 61 58 53 52 50 49 49 50 51 47 48 46 47 45 41 43 42 43 41 40 39 35 36 32 29 26 23 20 19 20 22 22
52 52 52 54 54 56 57 62 65 66 67 64 61 58 52 50 49 46 47 49 49 46 44 46 44 42 42 45 41 41 39 37 35 32 31 26 23 15 22 24 23 26 22
53 52 53 56 54 51 54 56 64 68 70 67 64 61 56 50 45 44 45 45 47 45 40 42 41 44 46 43 39 39 37 35 34 32 30 29 26 19 17 22 29 28 27
55 57 59 58 58 57 54 55 57 61 70 71 66 64 60 53 46 44 42 42 41 41 40 43 44 46 46 44 36 36 36 35 34 35 32 32 29 24 19 25 32 31 27
57 58 60 61 57 58 57 57 57 59 58 63 69 66 60 55 49 46 43 43 45 45 44 45 47 49 42 40 35 36 36 36 34 36 34 32 32 28 23 26 32 32 28
57 59 59 62 62 60 62 62 61 59 56 58 58 62 63 56 51 47 44 42 46 43 46 45 46 47 45 39 36 36 35 34 35 37 36 37 34 29 31 29 31 34 28
63 63 62 64 65 63 63 66 66 65 61 58 55 56 58 55 53 48 44 41 40 45 42 47 48 47 47 37 37 37 34 34 35 37 39 39 40 37 32 30 26 29 31
70 74 67 66 67 67 66 67 68 69 68 64 54 52 52 52 53 50 43 42 42 41 42 40 46 49 45 37 36 36 35 34 35 38 42 43 47 47 44 39 30 30 35
74 75 66 67 69 66 70 72 76 71 71 64 63 51 53 50 51 51 46 44 44 41 40 43 41 42 41 39 36 35 35 35 35 40 43 45 51 55 53 45 36 28 47
75 77 76 73 71 69 70 73 76 76 74 70 60 58 52 51 53 51 48 44 43 41 40 42 41 42 41 38 37 38 36 37 39 43 44 50 54 46 40 40 38 39 39
77 77 80 80 79 74 73 73 81 82 79 70 57 56 58 56 52 52 49 46 45 43 42 41 41 42 40 35 38 42 36 38 41 40 44 50 47 36 33 37 50 35 39
78 77 81 82 83 84 82 73 77 84 84 74 61 60 58 55 54 52 51 47 43 40 42 43 40 41 39 35 38 40 38 38 37 39 44 48 39 27 29 42 54 47 41
77 82 85 88 89 90 88 86 82 84 86 79 69 59 61 57 62 50 52 52 44 40 41 41 41 43 38 36 40 40 39 38 37 39 41 43 28 25 32 51 59 46 43
85 89 90 91 94 89 87 89 89 88 87 86 79 61 59 61 62 63 54 55 53 43 39 43 44 42 41 44 42 40 41 38 35 37 38 37 19 29 36 51 61 46 46
92 92 93 93 92 94 92 90 88 92 88 86 81 70 67 67 65 60 58 55 56 47 40 43 43 40 44 45 38 41 41 38 33 34 36 30 24 30 42 47 53 51 51
91 91 91 91 93 95 96 93 89 88 93 86 86 80 70 63 65 62 60 56 58 50 44 47 45 41 46 42 40 41 38 37 31 33 35 21 35 46 45 53 54 53 46
90 87 88 88 91 95 94 93 92 88 91 92 87 86 74 64 65 68 58 54 56 51 47 45 40 41 46 44 44 42 36 35 32 31 31 16 32 46 55 53 59 58 41
87 87 89 90 91 91 91 90 90 89 87 92 87 87 82 62 67 70 59 54 56 51 45 46 46 47 49 44 44 42 36 33 33 30 29 28 30 36 61 58 58 56 52

GFSSE_250_spd_117.txt.gz
Wind_Speed
75 78 78 78 82 81 81 82 81 78 80 77 76 75 74 74 73 73 72 73 74 73 74 74 73 72 72 72 72 72 71 70 69 69 67 67 65 67 62 58 52 44 42
71 76 75 75 77 79 80 80 77 78 78 79 78 78 77 77 76 75 76 77 78 77 76 76 75 75 75 74 73 71 72 70 69 68 66 66 64 57 55 51 41 39 38
59 64 67 68 69 69 70 71 71 72 77 76 77 80 79 79 78 77 78 77 77 78 78 78 77 76 73 73 69 71 69 69 66 63 59 56 48 47 48 37 34 35 33
56 55 56 58 58 60 61 63 64 64 67 66 64 69 72 73 73 72 73 70 74 72 70 69 66 65 64 64 63 61 59 58 55 52 49 46 44 44 37 33 34 28 27
58 57 57 59 60 60 60 60 60 59 59 59 61 61 60 61 59 60 59 59 59 61 59 60 58 56 51 51 50 50 49 47 48 44 44 39 39 39 35 28 24 26 29
53 54 54 55 55 56 57 58 57 58 57 56 56 56 54 54 56 54 53 54 54 55 53 52 51 50 45 47 46 47 45 45 42 40 39 35 34 35 31 25 26 29 30
53 55 55 55 57 58 59 59 58 59 59 58 57 56 55 53 51 51 50 51 52 51 52 51 49 45 47 43 47 44 44 41 41 40 37 33 33 33 29 25 25 28 30
55 57 57 57 60 61 61 63 62 62 62 61 61 58 57 56 53 50 47 47 47 49 48 47 48 49 44 43 49 44 43 42 41 38 35 34 30 31 30 22 17 25 27
50 52 53 53 54 54 55 57 56 59 59 61 61 60 58 58 55 52 50 47 45 43 45 46 48 43 45 44 45 40 43 42 42 36 36 31 29 30 23 19 20 22 25
51 52 53 52 52 54 54 54 54 52 53 51 54 57 60 59 59 56 51 48 45 42 42 43 45 44 46 43 42 36 44 42 35 39 37 30 29 24 18 21 21 20 23
55 54 57 57 54 51 52 54 57 57 55 55 55 54 56 61 61 60 56 52 47 44 41 39 39 39 36 35 35 43 45 41 37 40 36 30 29 24 20 24 20 24 26
57 56 58 57 55 54 54 55 56 59 59 54 51 50 51 52 56 62 59 55 52 45 41 37 37 37 35 38 37 40 46 43 37 38 35 29 29 26 25 23 25 24 27
60 60 59 58 54 53 56 54 56 56 61 62 57 51 47 47 54 52 55 58 53 45 41 41 41 40 40 42 44 44 44 39 37 37 36 32 28 27 29 23 26 27 26
61 59 60 58 57 59 59 59 61 58 64 63 61 58 56 47 41 46 48 52 52 47 44 44 43 44 44 42 45 41 41 36 38 35 36 31 30 30 31 30 28 25 24
65 63 63 60 59 60 62 62 66 64 64 65 62 60 60 57 48 44 46 47 51 49 45 44 42 38 42 47 44 47 44 40 40 37 35 34 33 34 36 36 31 33 30
70 67 65 63 62 61 64 68 70 68 68 66 64 62 61 62 61 43 44 44 48 48 47 43 41 40 39 40 47 50 44 39 38 39 36 31 35 36 36 40 35 37 32
72 71 69 69 68 66 65 69 70 70 62 70 67 65 65 62 65 56 45 44 46 47 47 43 40 38 39 40 39 42 39 40 39 40 36 32 35 40 43 45 43 41 28
76 75 72 75 76 74 71 71 72 71 71 69 68 66 67 64 66 68 57 44 46 46 46 45 42 39 40 41 40 38 38 39 40 40 37 36 39 44 47 45 55 49 49
82 83 82 83 83 80 79 76 76 75 74 74 71 69 67 71 69 71 63 48 48 48 49 45 42 42 41 40 37 37 38 41 42 40 37 39 41 48 46 51 46 38 45
88 88 88 86 86 84 82 80 77 75 74 77 75 70 70 68 76 72 61 60 48 50 49 48 47 44 43 38 37 36 39 42 41 39 38 40 44 47 48 51 36 34 49
93 95 95 89 88 85 83 80 79 78 78 77 76 75 76 74 72 69 64 56 57 53 52 51 45 44 44 41 32 36 37 40 40 38 40 40 45 46 46 37 28 39 58
98 96 96 94 90 85 84 85 85 83 85 82 80 84 82 82 80 74 73 64 62 52 54 51 46 43 40 40 36 36 37 42 44 40 41 38 42 40 43 28 26 45 57
98 98 97 97 96 94 94 92 89 90 90 90 86 82 84 83 82 78 76 65 57 53 56 53 51 43 38 36 39 39 40 49 44 38 42 38 38 37 37 22 27 47 53
106 103 99 100 101 104 100 97 98 95 91 88 87 85 84 82 80 77 75 74 64 58 55 59 55 50 41 40 37 36 44 44 42 40 40 36 34 34 32 21 31 46 58
105 106 105 104 101 99 99 100 97 95 90 89 86 85 85 82 81 83 75 74 68 61 56 62 59 54 45 41 40 39 44 43 43 42 37 36 30 28 29 21 34 48 61
107 107 101 96 94 94 95 95 95 93 92 91 87 83 80 81 84 81 81 78 72 62 57 60 61 57 49 42 39 38 43 44 45 42 37 34 30 31 25 36 36 45 62

GFSSE_250_spd_120.txt.gz
Wind_Speed
62 68 67 67 69 71 72 73 75 74 75 75 75 78 78 78 77 77 76 77 76 74 75 75 73 73 74 74 73 73 73 73 73 72 71 70 69 68 67 64 60 55 49
57 64 63 66 67 69 67 65 66 67 69 71 71 71 72 71 71 73 75 75 75 74 75 76 76 75 74 75 74 74 71 71 71 71 69 66 66 63 57 57 51 40 35
48 52 55 55 54 55 58 58 58 60 59 60 59 59 59 60 61 64 65 66 65 64 66 67 69 70 68 69 66 63 66 64 62 61 60 58 55 49 47 45 40 33 28
48 52 53 53 53 54 54 55 56 54 54 55 53 53 52 53 53 53 57 56 56 56 56 56 54 54 53 56 55 55 52 52 50 47 49 47 45 41 40 37 28 27 27
38 41 44 46 48 49 50 51 52 53 53 52 53 52 50 51 50 48 48 50 51 51 53 52 50 50 48 49 46 43 44 44 44 45 47 43 35 34 34 29 22 22 30
42 40 42 41 44 47 48 50 51 52 53 53 51 49 49 51 51 50 49 48 47 48 48 45 45 45 46 46 45 41 37 40 39 29 45 42 34 37 30 28 25 26 28
42 43 43 42 42 44 47 50 51 52 53 55 57 56 54 52 51 51 51 50 50 46 45 44 42 43 42 42 42 41 37 37 32 10 38 49 42 34 31 29 31 29 29
45 46 47 46 46 44 44 46 49 51 49 48 49 48 51 50 51 50 50 50 50 48 46 43 41 40 39 41 41 41 38 34 37 25 40 40 35 31 29 29 34 25 30
52 47 52 52 49 50 46 46 48 51 48 48 48 48 46 45 47 46 49 50 51 50 48 45 42 40 40 38 41 41 40 35 32 27 35 36 31 33 30 30 25 21 28
57 51 51 54 57 55 50 52 49 48 48 49 50 50 46 44 43 44 47 48 50 51 50 48 44 42 39 38 40 40 38 26 24 24 30 37 32 33 23 28 29 27 26
61 54 51 57 60 56 57 52 48 48 47 50 52 51 49 47 43 41 41 44 47 45 49 49 47 42 39 32 31 31 25 26 30 27 36 41 33 29 25 24 27 26 24
62 58 59 61 62 61 58 55 52 50 49 48 52 52 50 46 49 49 45 42 44 47 44 46 47 44 42 38 33 33 38 31 32 31 35 31 31 30 24 26 25 27 27
65 58 66 64 62 60 60 57 56 53 52 50 50 50 51 53 53 53 48 42 42 44 42 43 46 46 42 40 37 36 34 36 36 37 36 30 32 30 28 25 26 28 28
66 60 64 68 66 65 62 58 60 55 53 50 53 53 55 56 58 53 51 47 45 41 40 40 41 46 43 40 41 38 38 38 40 39 32 30 31 29 29 29 30 27 24
67 68 67 73 69 69 65 60 56 60 53 48 54 60 63 58 61 53 54 48 52 49 38 39 40 42 43 41 41 43 43 42 40 42 37 37 34 31 32 31 32 28 28
71 72 70 71 69 68 69 66 59 60 57 54 57 64 62 62 62 55 57 55 53 51 43 40 42 41 43 43 39 38 39 40 42 41 38 34 34 34 33 33 32 33 28
76 76 73 72 74 72 71 68 66 70 63 58 58 68 65 64 62 59 59 57 55 53 49 43 42 43 43 43 40 39 39 36 35 38 39 38 35 36 34 35 36 36 33
80 79 76 72 73 73 73 71 67 66 68 66 63 69 68 70 64 64 59 57 56 55 55 48 43 43 46 45 41 38 38 41 37 33 27 36 36 36 36 37 40 42 42
85 82 81 76 76 76 74 72 71 72 75 75 75 72 71 72 70 70 64 63 57 56 55 52 46 45 47 48 45 42 41 39 37 33 30 35 37 38 39 40 42 43 45
90 88 88 87 85 86 86 86 83 85 87 84 80 77 73 72 71 67 68 68 63 53 57 56 50 47 48 50 48 43 40 37 36 34 30 38 36 37 41 43 43 45 49
94 95 94 92 88 86 86 87 88 88 87 87 82 77 73 69 73 73 72 69 67 59 54 57 57 48 51 50 50 48 41 35 37 36 32 36 37 37 37 43 44 47 53
100 97 97 95 94 90 88 88 90 92 91 89 87 79 75 72 72 75 74 70 69 64 64 61 60 59 47 49 49 46 45 38 39 33 37 37 39 38 39 43 43 46 47
106 105 104 102 102 99 99 100 101 100 97 91 85 79 83 79 76 78 78 78 78 74 69 67 61 66 52 50 51 48 47 42 36 33 40 40 42 40 39 39 38 44 38
108 109 109 109 109 109 107 105 105 101 99 98 99 92 90 89 83 81 79 77 78 75 68 62 65 62 52 51 54 50 47 43 35 31 40 41 38 39 38 34 35 32 32
110 109 108 108 108 109 108 107 105 104 101 99 98 98 95 92 90 80 80 80 79 72 66 60 70 58 56 54 58 54 47 43 36 35 38 36 37 37 36 33 33 25 25
111 112 111 110 111 110 110 109 108 106 106 106 105 100 93 87 86 82 78 78 73 71 57 50 84 70 63 54 58 57 50 45 39 40 39 40 40 39 35 34 32 26 20

GFSSE_250_spd_123.txt.gz
Wind_Speed
57 57 56 57 56 57 58 60 62 62 65 65 66 65 66 68 69 69 68 70 68 69 70 70 68 68 65 65 65 64 66 70 68 67 63 64 61 58 57 60 58 55 53
50 54 53 55 54 53 52 52 53 54 55 55 57 58 59 61 63 63 63 60 62 62 59 59 60 60 59 58 58 59 58 59 59 59 54 47 45 47 47 46 44 40 41
42 47 49 49 49 49 49 50 50 50 50 50 51 52 52 53 55 55 55 54 54 56 53 51 48 49 51 48 49 53 52 54 54 50 46 41 32 37 37 39 33 30 28
35 38 38 39 41 42 45 46 47 48 49 50 51 51 50 50 50 49 50 51 50 49 48 47 46 45 45 45 45 46 48 45 45 42 28 26 32 33 29 28 27 24 23
33 36 34 37 38 38 38 37 38 42 44 45 45 46 47 46 46 45 47 48 48 48 46 46 44 42 43 43 41 38 40 37 39 23 17 26 27 27 32 30 30 25 24
37 39 37 35 35 39 39 41 41 41 40 39 42 42 43 41 41 43 44 45 45 46 47 46 44 43 40 41 39 36 34 33 31 17 17 19 18 32 42 37 34 26 27
42 44 40 38 40 41 40 40 40 41 40 40 41 42 42 40 40 40 41 41 42 42 44 44 45 43 41 40 38 36 38 32 29 19 21 22 30 39 40 36 26 25 29
47 46 46 43 44 45 44 40 41 43 43 41 40 40 40 39 38 38 39 39 39 40 42 42 43 43 42 40 40 38 38 33 25 20 22 30 39 37 36 29 30 28 28
52 52 52 49 49 50 47 40 41 47 44 42 40 42 42 39 37 38 35 34 39 41 40 41 37 41 42 40 41 39 38 36 28 20 23 20 33 30 27 29 29 28 28
49 54 53 54 56 56 49 41 45 50 47 45 42 43 43 41 39 35 35 37 40 38 42 42 40 35 38 41 41 38 37 34 29 22 24 31 26 21 27 30 28 31 29
54 48 56 56 56 59 58 47 49 50 48 46 46 45 44 39 40 33 33 38 41 44 41 40 42 38 36 37 41 37 35 28 18 20 27 26 25 35 37 26 27 30 29
56 61 52 55 57 59 62 56 52 50 58 54 50 47 45 44 41 37 33 39 44 42 46 44 40 41 38 34 38 39 37 38 37 34 32 29 25 31 32 27 28 28 30
60 58 56 55 55 59 61 59 55 57 57 55 53 49 46 48 43 43 42 40 42 45 47 41 40 42 37 36 35 39 40 37 37 31 32 31 33 31 28 29 27 29 31
63 63 58 57 58 64 56 61 59 58 60 59 54 49 52 50 51 42 46 47 46 44 48 45 48 42 38 36 35 37 40 37 36 34 31 34 32 30 29 27 27 27 30
57 53 56 63 65 62 61 56 61 66 63 59 56 56 53 52 54 48 47 50 50 49 47 50 50 47 37 36 36 35 38 39 40 37 34 33 34 33 32 32 29 28 36
57 55 60 64 67 67 63 60 61 60 61 62 62 59 49 45 55 55 49 52 55 55 50 51 50 44 41 39 36 35 37 40 41 40 40 38 36 34 34 32 33 32 32
63 67 68 68 71 74 73 69 62 60 58 60 58 55 54 54 59 63 56 58 61 58 53 53 49 52 48 38 36 38 39 39 39 40 40 37 37 35 36 35 33 34 34
61 70 72 74 73 74 76 75 73 67 59 65 58 57 58 56 61 67 67 68 64 60 55 51 51 51 49 39 36 38 40 39 38 38 41 39 34 31 30 35 36 35 35
68 75 80 76 79 78 79 79 78 76 72 65 66 64 59 53 62 71 73 76 71 60 56 53 52 53 49 48 45 38 39 41 40 38 40 40 35 31 32 31 36 36 38
81 82 80 80 80 84 82 80 78 78 74 75 74 72 72 67 59 57 73 70 68 66 64 61 53 53 49 49 44 43 43 42 41 42 38 38 38 36 37 31 34 37 39
98 91 91 87 81 87 89 83 83 81 82 82 82 79 76 73 71 77 79 62 63 72 74 70 60 52 56 56 49 45 44 48 47 42 36 36 36 37 39 33 35 36 39
103 101 97 95 91 89 93 95 92 92 90 87 85 83 80 78 79 77 75 52 71 73 72 73 65 60 57 56 56 51 50 45 52 45 39 40 37 38 38 36 37 35 40
94 101 101 100 97 94 95 98 98 94 91 89 87 85 82 79 76 79 76 69 78 76 70 76 67 63 62 54 57 56 49 48 48 48 41 40 42 39 36 37 42 38 39
92 92 99 102 100 96 98 100 102 102 100 99 95 91 89 86 86 86 77 75 70 72 73 73 68 61 55 54 49 52 50 48 46 48 43 39 45 40 36 39 40 38 37
83 88 90 93 95 96 99 101 103 101 102 100 100 98 95 96 94 93 88 83 78 75 72 67 72 57 46 47 50 51 58 51 43 50 48 40 45 44 38 34 36 38 35
74 76 81 85 87 88 93 97 100 103 104 102 103 102 100 98 97 92 92 86 84 84 77 73 65 44 37 52 61 58 63 60 52 51 51 46 42 47 35 31 36 38 35

GFSSE_250_spd_126.txt.gz
Wind_Speed
51 49 47 50 54 56 57 58 59 60 61 62 59 58 62 64 66 65 63 62 64 64 63 63 65 67 64 62 64 61 62 60 56 59 57 54 55 54 50 48 48 49 49
34 38 39 40 41 43 45 48 51 52 52 53 53 53 54 56 58 59 58 56 55 56 57 57 57 56 56 54 56 54 52 51 55 58 54 47 48 40 38 37 37 35 33
35 34 28 29 31 33 35 34 39 41 41 44 48 50 51 52 53 56 54 54 55 56 53 53 54 54 51 49 50 50 49 46 50 51 46 41 35 28 29 28 24 23 25
41 42 36 33 29 29 32 32 33 33 32 33 35 37 41 44 45 45 47 48 50 52 53 53 53 53 49 47 47 45 46 45 45 43 34 31 28 25 19 21 25 26 29
41 39 39 38 35 33 31 29 29 29 31 33 33 35 34 32 33 35 37 39 41 44 47 49 49 49 49 51 47 45 45 43 41 37 31 26 22 24 17 21 27 27 33
46 46 40 39 40 39 35 31 32 32 31 31 32 38 38 38 37 36 35 35 37 37 39 40 42 47 47 47 46 43 42 40 37 33 30 27 25 27 26 20 29 27 30
42 44 42 40 42 43 38 35 35 38 32 30 33 36 37 38 37 34 32 32 31 32 34 37 36 41 42 43 43 42 41 37 37 33 26 25 26 29 27 26 29 23 25
44 44 43 42 41 44 44 40 39 42 40 34 31 36 38 37 37 36 34 31 29 25 29 34 34 36 37 40 41 43 39 36 34 32 29 28 28 26 30 32 26 21 26
47 44 44 44 40 42 46 44 46 46 46 36 36 36 37 39 39 36 38 33 31 23 29 33 36 36 35 35 37 37 42 37 37 32 29 31 31 28 29 24 22 24 26
58 49 48 45 43 42 42 43 41 43 46 44 42 38 42 43 43 40 38 35 30 30 35 35 38 38 41 37 35 31 38 38 36 32 32 32 33 32 33 25 20 25 28
57 56 55 54 51 44 49 51 45 42 43 46 48 40 48 45 44 42 38 38 35 35 33 36 38 43 42 38 36 35 35 38 36 32 32 30 33 32 34 33 26 27 25
55 56 60 60 58 57 52 50 49 48 45 47 50 47 47 47 48 44 41 42 39 39 32 36 39 44 44 44 42 38 34 37 34 34 32 34 37 36 34 36 34 27 24
39 39 49 60 59 60 60 58 55 49 47 46 48 49 47 51 51 46 46 44 41 42 39 36 37 44 45 47 43 38 35 37 37 35 33 35 36 39 35 32 35 27 25
47 42 42 51 53 51 55 61 60 58 52 49 51 49 50 51 50 51 48 48 43 45 44 40 40 49 50 48 45 35 36 38 39 37 30 32 32 33 40 37 32 29 25
51 50 46 42 53 52 52 51 50 54 56 54 51 48 44 44 45 46 52 52 53 50 47 46 45 47 48 44 45 38 35 35 37 36 33 35 35 35 35 33 32 31 28
56 57 54 51 54 55 56 57 52 51 53 52 48 45 43 46 49 51 49 49 47 49 50 51 51 51 49 46 45 39 37 34 33 37 36 34 35 39 37 36 35 35 34
65 62 63 62 62 63 59 60 64 55 50 50 56 50 40 38 42 62 55 45 54 54 51 58 55 53 47 48 42 40 34 32 34 36 37 36 36 37 39 42 38 40 38
74 72 76 77 74 69 70 67 62 67 61 53 48 51 42 37 53 52 60 51 53 51 58 61 57 59 49 52 51 49 39 34 34 32 35 38 36 35 39 39 39 43 44
81 81 83 86 83 79 75 75 72 64 65 65 61 53 48 50 56 53 48 61 59 62 55 66 61 62 52 51 60 48 45 37 32 34 35 38 37 37 39 40 37 38 44
92 94 97 98 96 93 87 80 78 76 70 68 66 68 66 63 58 28 38 50 65 59 56 66 63 71 67 51 55 54 51 44 34 36 34 37 38 38 38 38 40 40 38
101 107 105 102 100 99 96 92 86 85 80 76 74 73 69 69 62 55 60 74 52 50 60 67 63 62 62 54 49 55 57 52 44 40 32 32 38 39 37 36 40 41 42
109 109 105 103 103 100 97 99 94 90 90 86 82 77 78 72 69 67 59 67 67 60 60 49 58 62 54 47 54 66 59 47 45 41 32 35 36 40 41 39 42 40 42
111 107 99 95 95 97 97 97 98 95 96 98 91 85 82 83 81 76 78 76 60 63 48 57 62 69 65 57 63 62 61 55 49 41 36 35 41 39 40 42 43 42 42
103 94 91 90 89 90 90 89 92 91 94 97 99 91 87 88 87 86 83 78 73 75 74 73 72 75 64 55 50 46 43 50 48 44 43 39 41 44 40 41 44 42 40
91 87 83 81 80 80 82 81 79 84 88 95 99 97 93 91 92 93 89 88 83 82 81 78 77 73 61 61 53 38 33 39 43 45 53 54 47 41 46 39 42 43 40
84 76 70 66 64 64 67 75 75 76 80 89 98 97 97 95 96 95 97 95 93 90 89 83 75 72 67 56 50 35 36 40 62 51 56 65 55 45 51 46 41 45 43